Time,TemperatureF,DewpointF,PressureIn,WindDirection,WindDirectionDegrees,WindSpeedMPH,WindSpeedGustMPH,Humidity,HourlyPrecipIn,Conditions,Clouds,dailyrainin,SoftwareType,DateUTC
2013-02-20 00:00:00,38.6,24.7,29.85,West,259,0.0,4.0,57,0.00,,,0.00,VWS V14.01,2013-02-20 05:00:00,
2013-02-20 00:01:00,38.6,24.7,29.85,West,259,1.0,1.0,57,0.00,,,0.00,VWS V14.01,2013-02-20 05:01:00,
2013-02-20 00:02:00,38.7,24.8,29.85,West,259,0.0,0.0,57,0.00,,,0.00,VWS V14.01,2013-02-20 05:02:00,
2013-02-20 00:03:00,38.7,24.8,29.85,WNW,286,3.0,4.0,57,0.00,,,0.00,VWS V14.01,2013-02-20 05:03:00,
2013-02-20 00:04:00,38.6,24.7,29.85,WNW,286,0.0,2.0,57,0.00,,,0.00,VWS V14.01,2013-02-20 05:04:00,
2013-02-20 00:05:00,38.6,24.7,29.85,WNW,286,0.0,1.0,57,0.00,,,0.00,VWS V14.01,2013-02-20 05:05:00,
2013-02-20 00:06:00,38.6,24.7,29.85,WNW,286,0.0,3.0,57,0.00,,,0.00,VWS V14.01,2013-02-20 05:06:00,
2013-02-20 00:07:00,38.6,24.7,29.85,WNW,286,0.0,1.0,57,0.00,,,0.00,VWS V14.01,2013-02-20 05:07:00,
2013-02-20 00:08:00,38.6,25.1,29.85,South,184,1.0,5.0,58,0.00,,,0.00,VWS V14.01,2013-02-20 05:08:00,
2013-02-20 00:09:00,38.6,24.7,29.85,West,281,1.0,4.0,57,0.00,,,0.00,VWS V14.01,2013-02-20 05:09:00,
2013-02-20 00:10:00,38.6,24.7,29.85,West,281,1.0,2.0,57,0.00,,,0.00,VWS V14.01,2013-02-20 05:10:00,
2013-02-20 00:11:00,38.5,24.6,29.85,West,267,1.0,2.0,57,0.00,,,0.00,VWS V14.01,2013-02-20 05:11:00,
2013-02-20 00:12:00,38.5,24.6,29.85,West,267,1.0,2.0,57,0.00,,,0.00,VWS V14.01,2013-02-20 05:12:00,
2013-02-20 00:13:00,38.5,24.6,29.85,NW,310,1.0,3.0,57,0.00,,,0.00,VWS V14.01,2013-02-20 05:13:00,
2013-02-20 00:14:00,38.5,24.6,29.85,NNW,328,0.0,9.0,57,0.00,,,0.00,VWS V14.01,2013-02-20 05:14:00,
2013-02-20 00:15:00,38.5,24.2,29.85,NNW,328,0.0,0.0,56,0.00,,,0.00,VWS V14.01,2013-02-20 05:15:00,
2013-02-20 00:16:00,38.5,24.6,29.85,NNW,328,0.0,0.0,57,0.00,,,0.00,VWS V14.01,2013-02-20 05:16:00,
2013-02-20 00:17:00,38.5,24.6,29.85,NW,321,1.0,1.0,57,0.00,,,0.00,VWS V14.01,2013-02-20 05:17:00,
2013-02-20 00:18:00,38.5,24.6,29.85,North,9,4.0,4.0,57,0.00,,,0.00,VWS V14.01,2013-02-20 05:18:00,
2013-02-20 00:19:00,38.5,24.6,29.85,WSW,252,2.0,4.0,57,0.00,,,0.00,VWS V14.01,2013-02-20 05:19:00,
2013-02-20 00:20:00,38.5,24.2,29.85,NW,315,2.0,4.0,56,0.00,,,0.00,VWS V14.01,2013-02-20 05:20:00,
2013-02-20 00:21:00,38.4,24.5,29.85,NW,315,1.0,2.0,57,0.00,,,0.00,VWS V14.01,2013-02-20 05:21:00,
2013-02-20 00:22:00,38.4,24.5,29.85,NW,310,0.0,2.0,57,0.00,,,0.00,VWS V14.01,2013-02-20 05:22:00,
2013-02-20 00:23:00,38.4,24.1,29.85,NW,323,1.0,5.0,56,0.00,,,0.00,VWS V14.01,2013-02-20 05:23:00,
2013-02-20 00:24:00,38.4,24.5,29.85,West,262,0.0,2.0,57,0.00,,,0.00,VWS V14.01,2013-02-20 05:24:00,
2013-02-20 00:25:00,38.4,24.5,29.85,West,262,1.0,2.0,57,0.00,,,0.00,VWS V14.01,2013-02-20 05:25:00,
2013-02-20 00:26:00,38.4,24.5,29.85,NNW,344,0.0,0.0,57,0.00,,,0.00,VWS V14.01,2013-02-20 05:26:00,
2013-02-20 00:27:00,38.4,24.1,29.85,NW,309,1.0,2.0,56,0.00,,,0.00,VWS V14.01,2013-02-20 05:27:00,
2013-02-20 00:28:00,38.4,24.5,29.85,NW,309,0.0,1.0,57,0.00,,,0.00,VWS V14.01,2013-02-20 05:28:00,
2013-02-20 00:29:00,38.4,24.5,29.85,NNW,344,1.0,4.0,57,0.00,,,0.00,VWS V14.01,2013-02-20 05:29:00,
2013-02-20 00:30:00,38.3,24.0,29.85,WNW,295,1.0,2.0,56,0.00,,,0.00,VWS V14.01,2013-02-20 05:30:00,
2013-02-20 00:31:00,38.3,24.0,29.85,WNW,299,1.0,1.0,56,0.00,,,0.00,VWS V14.01,2013-02-20 05:31:00,
2013-02-20 00:32:00,38.3,24.4,29.85,NNW,341,1.0,3.0,57,0.00,,,0.00,VWS V14.01,2013-02-20 05:32:00,
2013-02-20 00:33:00,38.3,24.4,29.85,NNW,340,0.0,1.0,57,0.00,,,0.00,VWS V14.01,2013-02-20 05:33:00,
2013-02-20 00:34:00,38.2,24.3,29.85,West,264,1.0,3.0,57,0.00,,,0.00,VWS V14.01,2013-02-20 05:34:00,
2013-02-20 00:35:00,38.2,24.3,29.85,WNW,285,0.0,4.0,57,0.00,,,0.00,VWS V14.01,2013-02-20 05:35:00,
2013-02-20 00:36:00,38.2,24.3,29.86,WNW,285,0.0,2.0,57,0.00,,,0.00,VWS V14.01,2013-02-20 05:36:00,
2013-02-20 00:37:00,38.2,24.3,29.85,WNW,285,0.0,1.0,57,0.00,,,0.00,VWS V14.01,2013-02-20 05:37:00,
2013-02-20 00:38:00,38.1,24.2,29.86,NNE,22,1.0,7.0,57,0.00,,,0.00,VWS V14.01,2013-02-20 05:38:00,
2013-02-20 00:39:00,38.1,24.2,29.86,NNW,329,0.0,1.0,57,0.00,,,0.00,VWS V14.01,2013-02-20 05:39:00,
2013-02-20 00:40:00,38.1,24.6,29.86,NW,318,0.0,1.0,58,0.00,,,0.00,VWS V14.01,2013-02-20 05:40:00,
2013-02-20 00:41:00,38.1,24.2,29.86,NW,318,0.0,0.0,57,0.00,,,0.00,VWS V14.01,2013-02-20 05:41:00,
2013-02-20 00:42:00,38.1,24.2,29.86,WSW,251,0.0,3.0,57,0.00,,,0.00,VWS V14.01,2013-02-20 05:42:00,
2013-02-20 00:43:00,38.0,24.5,29.86,WSW,251,0.0,1.0,58,0.00,,,0.00,VWS V14.01,2013-02-20 05:43:00,
2013-02-20 00:44:00,38.0,24.5,29.86,WNW,297,0.0,2.0,58,0.00,,,0.00,VWS V14.01,2013-02-20 05:44:00,
2013-02-20 00:45:00,38.0,24.5,29.86,WSW,244,1.0,1.0,58,0.00,,,0.00,VWS V14.01,2013-02-20 05:45:00,
2013-02-20 00:46:00,38.0,24.1,29.86,WSW,250,1.0,5.0,57,0.00,,,0.00,VWS V14.01,2013-02-20 05:46:00,
2013-02-20 00:47:00,38.0,24.5,29.86,WSW,250,1.0,1.0,58,0.00,,,0.00,VWS V14.01,2013-02-20 05:47:00,
2013-02-20 00:48:00,38.0,24.5,29.86,West,267,1.0,4.0,58,0.00,,,0.00,VWS V14.01,2013-02-20 05:48:00,
2013-02-20 00:49:00,37.9,24.0,29.86,West,267,0.0,1.0,57,0.00,,,0.00,VWS V14.01,2013-02-20 05:49:00,
2013-02-20 00:50:00,37.9,24.5,29.86,West,267,0.0,2.0,58,0.00,,,0.00,VWS V14.01,2013-02-20 05:50:00,
2013-02-20 00:51:00,37.9,24.5,29.86,West,267,0.0,0.0,58,0.00,,,0.00,VWS V14.01,2013-02-20 05:51:00,
2013-02-20 00:52:00,37.9,24.5,29.86,NNW,346,1.0,2.0,58,0.00,,,0.00,VWS V14.01,2013-02-20 05:52:00,
2013-02-20 00:53:00,37.9,24.5,29.86,NNW,346,0.0,1.0,58,0.00,,,0.00,VWS V14.01,2013-02-20 05:53:00,
2013-02-20 00:54:00,37.8,24.4,29.86,NW,309,0.0,1.0,58,0.00,,,0.00,VWS V14.01,2013-02-20 05:54:00,
2013-02-20 00:55:00,37.8,24.4,29.86,WSW,251,0.0,1.0,58,0.00,,,0.00,VWS V14.01,2013-02-20 05:55:00,
2013-02-20 00:56:00,37.8,24.8,29.86,WSW,251,0.0,2.0,59,0.00,,,0.00,VWS V14.01,2013-02-20 05:56:00,
2013-02-20 00:57:00,37.8,24.4,29.86,WSW,248,4.0,5.0,58,0.00,,,0.00,VWS V14.01,2013-02-20 05:57:00,
2013-02-20 00:58:00,37.8,24.4,29.86,WNW,291,0.0,4.0,58,0.00,,,0.00,VWS V14.01,2013-02-20 05:58:00,
2013-02-20 00:59:00,37.7,24.3,29.86,WNW,284,2.0,2.0,58,0.00,,,0.00,VWS V14.01,2013-02-20 05:59:00,
2013-02-20 01:00:00,37.7,24.3,29.86,West,280,1.0,2.0,58,0.00,,,0.00,VWS V14.01,2013-02-20 06:00:00,
2013-02-20 01:01:00,37.7,24.3,29.87,NW,314,0.0,2.0,58,0.00,,,0.00,VWS V14.01,2013-02-20 06:01:00,
2013-02-20 01:02:00,37.7,24.3,29.86,NW,314,1.0,1.0,58,0.00,,,0.00,VWS V14.01,2013-02-20 06:02:00,
2013-02-20 01:03:00,37.7,24.3,29.86,NNW,334,1.0,5.0,58,0.00,,,0.00,VWS V14.01,2013-02-20 06:03:00,
2013-02-20 01:04:00,37.7,24.3,29.87,NNW,344,0.0,2.0,58,0.00,,,0.00,VWS V14.01,2013-02-20 06:04:00,
2013-02-20 01:05:00,37.6,24.6,29.87,WNW,298,0.0,4.0,59,0.00,,,0.00,VWS V14.01,2013-02-20 06:05:00,
2013-02-20 01:06:00,37.7,24.3,29.87,SW,222,0.0,3.0,58,0.00,,,0.00,VWS V14.01,2013-02-20 06:06:00,
2013-02-20 01:07:00,37.6,24.2,29.87,SW,223,0.0,1.0,58,0.00,,,0.00,VWS V14.01,2013-02-20 06:07:00,
2013-02-20 01:08:00,37.6,24.2,29.87,SW,223,0.0,1.0,58,0.00,,,0.00,VWS V14.01,2013-02-20 06:08:00,
2013-02-20 01:09:00,37.6,24.2,29.87,West,271,0.0,2.0,58,0.00,,,0.00,VWS V14.01,2013-02-20 06:09:00,
2013-02-20 01:10:00,37.6,24.2,29.87,NE,54,2.0,4.0,58,0.00,,,0.00,VWS V14.01,2013-02-20 06:10:00,
2013-02-20 01:11:00,37.5,23.7,29.87,WNW,303,0.0,7.0,57,0.00,,,0.00,VWS V14.01,2013-02-20 06:11:00,
2013-02-20 01:12:00,37.5,24.1,29.87,WNW,303,0.0,0.0,58,0.00,,,0.00,VWS V14.01,2013-02-20 06:12:00,
2013-02-20 01:13:00,37.5,24.1,29.87,WNW,303,0.0,1.0,58,0.00,,,0.00,VWS V14.01,2013-02-20 06:13:00,
2013-02-20 01:14:00,37.5,24.1,29.87,WNW,297,2.0,2.0,58,0.00,,,0.00,VWS V14.01,2013-02-20 06:14:00,
2013-02-20 01:15:00,37.5,24.1,29.87,WNW,299,0.0,2.0,58,0.00,,,0.00,VWS V14.01,2013-02-20 06:15:00,
2013-02-20 01:16:00,37.5,24.1,29.88,WNW,299,0.0,2.0,58,0.00,,,0.00,VWS V14.01,2013-02-20 06:16:00,
2013-02-20 01:17:00,37.5,24.1,29.88,WNW,299,1.0,1.0,58,0.00,,,0.00,VWS V14.01,2013-02-20 06:17:00,
2013-02-20 01:18:00,37.5,24.1,29.87,WNW,299,0.0,0.0,58,0.00,,,0.00,VWS V14.01,2013-02-20 06:18:00,
2013-02-20 01:19:00,37.5,24.1,29.87,SW,230,1.0,2.0,58,0.00,,,0.00,VWS V14.01,2013-02-20 06:19:00,
2013-02-20 01:20:00,37.5,24.5,29.87,WSW,254,1.0,1.0,59,0.00,,,0.00,VWS V14.01,2013-02-20 06:20:00,
2013-02-20 01:21:00,37.4,24.0,29.87,West,281,1.0,6.0,58,0.00,,,0.00,VWS V14.01,2013-02-20 06:21:00,
2013-02-20 01:22:00,37.4,24.0,29.87,NW,313,0.0,4.0,58,0.00,,,0.00,VWS V14.01,2013-02-20 06:22:00,
2013-02-20 01:23:00,37.4,24.0,29.87,WNW,295,1.0,5.0,58,0.00,,,0.00,VWS V14.01,2013-02-20 06:23:00,
2013-02-20 01:24:00,37.4,24.0,29.87,West,259,0.0,2.0,58,0.00,,,0.00,VWS V14.01,2013-02-20 06:24:00,
2013-02-20 01:25:00,37.4,24.0,29.87,NW,323,3.0,7.0,58,0.00,,,0.00,VWS V14.01,2013-02-20 06:25:00,
2013-02-20 01:26:00,37.4,24.0,29.87,West,261,1.0,6.0,58,0.00,,,0.00,VWS V14.01,2013-02-20 06:26:00,
2013-02-20 01:27:00,37.4,23.6,29.87,NW,325,2.0,7.0,57,0.00,,,0.00,VWS V14.01,2013-02-20 06:27:00,
2013-02-20 01:28:00,37.4,23.6,29.87,NW,315,1.0,2.0,57,0.00,,,0.00,VWS V14.01,2013-02-20 06:28:00,
2013-02-20 01:29:00,37.4,23.6,29.87,NW,315,1.0,1.0,57,0.00,,,0.00,VWS V14.01,2013-02-20 06:29:00,
2013-02-20 01:30:00,37.5,23.7,29.87,NNW,336,0.0,2.0,57,0.00,,,0.00,VWS V14.01,2013-02-20 06:30:00,
2013-02-20 01:31:00,37.5,23.7,29.87,WNW,294,0.0,2.0,57,0.00,,,0.00,VWS V14.01,2013-02-20 06:31:00,
2013-02-20 01:32:00,37.5,23.7,29.87,WSW,246,1.0,3.0,57,0.00,,,0.00,VWS V14.01,2013-02-20 06:32:00,
2013-02-20 01:33:00,37.5,23.7,29.87,WSW,247,0.0,2.0,57,0.00,,,0.00,VWS V14.01,2013-02-20 06:33:00,
2013-02-20 01:34:00,37.5,23.7,29.87,West,262,0.0,5.0,57,0.00,,,0.00,VWS V14.01,2013-02-20 06:34:00,
2013-02-20 01:35:00,37.5,23.7,29.87,NW,320,0.0,6.0,57,0.00,,,0.00,VWS V14.01,2013-02-20 06:35:00,
2013-02-20 01:36:00,37.5,23.7,29.87,NW,320,0.0,1.0,57,0.00,,,0.00,VWS V14.01,2013-02-20 06:36:00,
2013-02-20 01:37:00,37.5,23.7,29.87,NW,313,4.0,6.0,57,0.00,,,0.00,VWS V14.01,2013-02-20 06:37:00,
2013-02-20 01:38:00,37.5,23.7,29.87,NE,40,2.0,5.0,57,0.00,,,0.00,VWS V14.01,2013-02-20 06:38:00,
2013-02-20 01:39:00,37.5,23.7,29.87,NE,39,1.0,1.0,57,0.00,,,0.00,VWS V14.01,2013-02-20 06:39:00,
2013-02-20 01:40:00,37.5,23.7,29.87,WSW,252,1.0,2.0,57,0.00,,,0.00,VWS V14.01,2013-02-20 06:40:00,
2013-02-20 01:41:00,37.5,23.7,29.87,NNE,21,2.0,4.0,57,0.00,,,0.00,VWS V14.01,2013-02-20 06:41:00,
2013-02-20 01:42:00,37.5,23.7,29.87,NNE,21,0.0,2.0,57,0.00,,,0.00,VWS V14.01,2013-02-20 06:42:00,
2013-02-20 01:43:00,37.5,23.7,29.88,NW,309,5.0,5.0,57,0.00,,,0.00,VWS V14.01,2013-02-20 06:43:00,
2013-02-20 01:44:00,37.5,23.7,29.88,West,270,0.0,5.0,57,0.00,,,0.00,VWS V14.01,2013-02-20 06:44:00,
2013-02-20 01:45:00,37.5,23.7,29.88,West,270,0.0,2.0,57,0.00,,,0.00,VWS V14.01,2013-02-20 06:45:00,
2013-02-20 01:46:00,37.5,23.7,29.88,West,270,0.0,3.0,57,0.00,,,0.00,VWS V14.01,2013-02-20 06:46:00,
2013-02-20 01:47:00,37.5,23.7,29.88,West,270,0.0,1.0,57,0.00,,,0.00,VWS V14.01,2013-02-20 06:47:00,
2013-02-20 01:48:00,37.5,23.7,29.88,North,11,2.0,4.0,57,0.00,,,0.00,VWS V14.01,2013-02-20 06:48:00,
2013-02-20 01:49:00,37.5,23.7,29.88,NW,326,9.0,9.0,57,0.00,,,0.00,VWS V14.01,2013-02-20 06:49:00,
2013-02-20 01:50:00,37.5,23.7,29.88,NW,323,5.0,11.0,57,0.00,,,0.00,VWS V14.01,2013-02-20 06:50:00,
2013-02-20 01:51:00,37.5,23.7,29.88,NW,325,0.0,3.0,57,0.00,,,0.00,VWS V14.01,2013-02-20 06:51:00,
2013-02-20 01:52:00,37.5,23.7,29.88,NW,325,1.0,1.0,57,0.00,,,0.00,VWS V14.01,2013-02-20 06:52:00,
2013-02-20 01:53:00,37.5,23.7,29.88,NW,325,0.0,1.0,57,0.00,,,0.00,VWS V14.01,2013-02-20 06:53:00,
2013-02-20 01:54:00,37.5,23.7,29.88,NW,317,1.0,1.0,57,0.00,,,0.00,VWS V14.01,2013-02-20 06:54:00,
2013-02-20 01:55:00,37.5,24.1,29.88,West,273,0.0,2.0,58,0.00,,,0.00,VWS V14.01,2013-02-20 06:55:00,
2013-02-20 01:56:00,37.5,23.7,29.88,NNW,329,2.0,8.0,57,0.00,,,0.00,VWS V14.01,2013-02-20 06:56:00,
2013-02-20 01:57:00,37.4,23.6,29.88,West,271,0.0,5.0,57,0.00,,,0.00,VWS V14.01,2013-02-20 06:57:00,
2013-02-20 01:58:00,37.4,24.0,29.88,West,271,0.0,0.0,58,0.00,,,0.00,VWS V14.01,2013-02-20 06:58:00,
2013-02-20 01:59:00,37.4,24.0,29.88,West,271,0.0,0.0,58,0.00,,,0.00,VWS V14.01,2013-02-20 06:59:00,
2013-02-20 02:00:00,37.4,24.0,29.88,West,276,0.0,2.0,58,0.00,,,0.00,VWS V14.01,2013-02-20 07:00:00,
2013-02-20 02:01:00,37.4,24.0,29.88,West,277,0.0,0.0,58,0.00,,,0.00,VWS V14.01,2013-02-20 07:01:00,
2013-02-20 02:02:00,37.4,24.4,29.88,West,277,1.0,1.0,59,0.00,,,0.00,VWS V14.01,2013-02-20 07:02:00,
2013-02-20 02:03:00,37.4,24.0,29.88,WNW,299,0.0,6.0,58,0.00,,,0.00,VWS V14.01,2013-02-20 07:03:00,
2013-02-20 02:04:00,37.3,23.9,29.88,WNW,299,1.0,2.0,58,0.00,,,0.00,VWS V14.01,2013-02-20 07:04:00,
2013-02-20 02:05:00,37.3,23.9,29.88,West,260,0.0,4.0,58,0.00,,,0.00,VWS V14.01,2013-02-20 07:05:00,
2013-02-20 02:06:00,37.3,24.3,29.88,West,260,1.0,1.0,59,0.00,,,0.00,VWS V14.01,2013-02-20 07:06:00,
2013-02-20 02:07:00,37.3,24.3,29.88,SSW,195,1.0,6.0,59,0.00,,,0.00,VWS V14.01,2013-02-20 07:07:00,
2013-02-20 02:08:00,37.3,24.7,29.88,SSW,195,0.0,2.0,60,0.00,,,0.00,VWS V14.01,2013-02-20 07:08:00,
2013-02-20 02:09:00,37.2,24.6,29.88,SSW,195,0.0,1.0,60,0.00,,,0.00,VWS V14.01,2013-02-20 07:09:00,
2013-02-20 02:10:00,37.2,24.6,29.88,NW,324,0.0,2.0,60,0.00,,,0.00,VWS V14.01,2013-02-20 07:10:00,
2013-02-20 02:11:00,37.2,24.6,29.88,WNW,292,0.0,2.0,60,0.00,,,0.00,VWS V14.01,2013-02-20 07:11:00,
2013-02-20 02:12:00,37.1,24.5,29.88,NW,321,0.0,1.0,60,0.00,,,0.00,VWS V14.01,2013-02-20 07:12:00,
2013-02-20 02:13:00,37.1,24.1,29.88,NW,321,0.0,0.0,59,0.00,,,0.00,VWS V14.01,2013-02-20 07:13:00,
2013-02-20 02:14:00,37.1,24.5,29.88,NW,316,3.0,5.0,60,0.00,,,0.00,VWS V14.01,2013-02-20 07:14:00,
2013-02-20 02:15:00,37.0,24.0,29.88,West,278,1.0,4.0,59,0.00,,,0.00,VWS V14.01,2013-02-20 07:15:00,
2013-02-20 02:16:00,37.0,24.4,29.89,West,278,1.0,1.0,60,0.00,,,0.00,VWS V14.01,2013-02-20 07:16:00,
2013-02-20 02:17:00,37.0,24.4,29.88,South,180,2.0,5.0,60,0.00,,,0.00,VWS V14.01,2013-02-20 07:17:00,
2013-02-20 02:18:00,37.0,24.4,29.88,SSW,196,0.0,6.0,60,0.00,,,0.00,VWS V14.01,2013-02-20 07:18:00,
2013-02-20 02:19:00,37.0,24.0,29.88,WNW,283,0.0,2.0,59,0.00,,,0.00,VWS V14.01,2013-02-20 07:19:00,
2013-02-20 02:20:00,36.9,24.3,29.89,West,275,0.0,2.0,60,0.00,,,0.00,VWS V14.01,2013-02-20 07:20:00,
2013-02-20 02:21:00,36.9,24.3,29.89,West,275,1.0,1.0,60,0.00,,,0.00,VWS V14.01,2013-02-20 07:21:00,
2013-02-20 02:22:00,36.9,24.3,29.89,NNW,336,0.0,3.0,60,0.00,,,0.00,VWS V14.01,2013-02-20 07:22:00,
2013-02-20 02:23:00,36.9,23.9,29.89,WSW,252,0.0,2.0,59,0.00,,,0.00,VWS V14.01,2013-02-20 07:23:00,
2013-02-20 02:24:00,36.8,23.8,29.89,West,262,0.0,1.0,59,0.00,,,0.00,VWS V14.01,2013-02-20 07:24:00,
2013-02-20 02:25:00,36.8,23.8,29.89,NNE,31,5.0,6.0,59,0.00,,,0.00,VWS V14.01,2013-02-20 07:25:00,
2013-02-20 02:26:00,36.8,23.4,29.88,West,281,4.0,8.0,58,0.00,,,0.00,VWS V14.01,2013-02-20 07:26:00,
2013-02-20 02:27:00,36.8,23.4,29.89,North,351,2.0,6.0,58,0.00,,,0.00,VWS V14.01,2013-02-20 07:27:00,
2013-02-20 02:28:00,36.8,23.8,29.89,WSW,258,1.0,4.0,59,0.00,,,0.00,VWS V14.01,2013-02-20 07:28:00,
2013-02-20 02:29:00,36.8,23.8,29.89,ENE,65,3.0,7.0,59,0.00,,,0.00,VWS V14.01,2013-02-20 07:29:00,
2013-02-20 02:30:00,36.8,23.8,29.89,NNW,329,2.0,4.0,59,0.00,,,0.00,VWS V14.01,2013-02-20 07:30:00,
2013-02-20 02:31:00,36.8,23.4,29.88,WNW,286,3.0,7.0,58,0.00,,,0.00,VWS V14.01,2013-02-20 07:31:00,
2013-02-20 02:32:00,36.8,23.4,29.88,NNE,23,6.0,8.0,58,0.00,,,0.00,VWS V14.01,2013-02-20 07:32:00,
2013-02-20 02:33:00,36.7,22.9,29.89,WSW,257,1.0,7.0,57,0.00,,,0.00,VWS V14.01,2013-02-20 07:33:00,
2013-02-20 02:34:00,36.8,23.4,29.88,NNW,340,2.0,4.0,58,0.00,,,0.00,VWS V14.01,2013-02-20 07:34:00,
2013-02-20 02:38:00,36.8,23.0,29.88,WNW,293,1.0,3.0,57,0.00,,,0.00,VWS V14.01,2013-02-20 07:38:00,
2013-02-20 02:39:00,36.7,22.9,29.88,West,275,5.0,6.0,57,0.00,,,0.00,VWS V14.01,2013-02-20 07:39:00,
2013-02-20 02:40:00,36.8,23.0,29.88,NW,315,1.0,6.0,57,0.00,,,0.00,VWS V14.01,2013-02-20 07:40:00,
2013-02-20 02:41:00,36.7,22.9,29.88,SW,214,6.0,6.0,57,0.00,,,0.00,VWS V14.01,2013-02-20 07:41:00,
2013-02-20 02:42:00,36.7,22.9,29.88,NW,323,0.0,5.0,57,0.00,,,0.00,VWS V14.01,2013-02-20 07:42:00,
2013-02-20 02:43:00,36.7,22.5,29.88,WNW,293,2.0,2.0,56,0.00,,,0.00,VWS V14.01,2013-02-20 07:43:00,
2013-02-20 02:44:00,36.7,22.9,29.88,WNW,292,3.0,5.0,57,0.00,,,0.00,VWS V14.01,2013-02-20 07:44:00,
2013-02-20 02:45:00,36.7,22.9,29.88,WSW,238,5.0,6.0,57,0.00,,,0.00,VWS V14.01,2013-02-20 07:45:00,
2013-02-20 02:46:00,36.6,22.4,29.88,WSW,244,4.0,6.0,56,0.00,,,0.00,VWS V14.01,2013-02-20 07:46:00,
2013-02-20 02:47:00,36.6,22.4,29.88,WSW,248,1.0,3.0,56,0.00,,,0.00,VWS V14.01,2013-02-20 07:47:00,
2013-02-20 02:48:00,36.6,22.4,29.88,North,355,2.0,3.0,56,0.00,,,0.00,VWS V14.01,2013-02-20 07:48:00,
2013-02-20 02:49:00,36.6,22.4,29.88,West,274,2.0,4.0,56,0.00,,,0.00,VWS V14.01,2013-02-20 07:49:00,
2013-02-20 02:50:00,36.6,22.8,29.89,West,274,0.0,2.0,57,0.00,,,0.00,VWS V14.01,2013-02-20 07:50:00,
2013-02-20 02:51:00,36.6,22.8,29.89,WNW,297,0.0,3.0,57,0.00,,,0.00,VWS V14.01,2013-02-20 07:51:00,
2013-02-20 02:52:00,36.6,22.8,29.89,NW,318,1.0,1.0,57,0.00,,,0.00,VWS V14.01,2013-02-20 07:52:00,
2013-02-20 02:53:00,36.6,22.8,29.89,NW,318,0.0,1.0,57,0.00,,,0.00,VWS V14.01,2013-02-20 07:53:00,
2013-02-20 02:54:00,36.5,22.7,29.89,SW,220,2.0,4.0,57,0.00,,,0.00,VWS V14.01,2013-02-20 07:54:00,
2013-02-20 02:55:00,36.5,22.7,29.89,NNE,19,1.0,5.0,57,0.00,,,0.00,VWS V14.01,2013-02-20 07:55:00,
2013-02-20 02:56:00,36.5,22.7,29.89,NNW,343,2.0,3.0,57,0.00,,,0.00,VWS V14.01,2013-02-20 07:56:00,
2013-02-20 02:57:00,36.5,22.7,29.89,West,279,2.0,4.0,57,0.00,,,0.00,VWS V14.01,2013-02-20 07:57:00,
2013-02-20 02:58:00,36.5,22.3,29.89,NNW,328,0.0,5.0,56,0.00,,,0.00,VWS V14.01,2013-02-20 07:58:00,
2013-02-20 02:59:00,36.5,22.3,29.89,WSW,251,0.0,2.0,56,0.00,,,0.00,VWS V14.01,2013-02-20 07:59:00,
2013-02-20 03:00:00,36.5,22.3,29.90,West,280,1.0,2.0,56,0.00,,,0.00,VWS V14.01,2013-02-20 08:00:00,
2013-02-20 03:01:00,36.5,22.3,29.89,WNW,292,0.0,2.0,56,0.00,,,0.00,VWS V14.01,2013-02-20 08:01:00,
2013-02-20 03:02:00,36.4,22.6,29.89,WNW,291,0.0,1.0,57,0.00,,,0.00,VWS V14.01,2013-02-20 08:02:00,
2013-02-20 03:03:00,36.4,22.6,29.89,WNW,291,0.0,0.0,57,0.00,,,0.00,VWS V14.01,2013-02-20 08:03:00,
2013-02-20 03:04:00,36.4,22.6,29.89,East,100,0.0,4.0,57,0.00,,,0.00,VWS V14.01,2013-02-20 08:04:00,
2013-02-20 03:05:00,36.4,22.6,29.89,North,11,1.0,5.0,57,0.00,,,0.00,VWS V14.01,2013-02-20 08:05:00,
2013-02-20 03:06:00,36.4,23.0,29.90,NNW,345,0.0,3.0,58,0.00,,,0.00,VWS V14.01,2013-02-20 08:06:00,
2013-02-20 03:07:00,36.4,23.5,29.90,NNW,345,0.0,0.0,59,0.00,,,0.00,VWS V14.01,2013-02-20 08:07:00,
2013-02-20 03:08:00,36.4,23.5,29.90,NNW,338,0.0,1.0,59,0.00,,,0.00,VWS V14.01,2013-02-20 08:08:00,
2013-02-20 03:09:00,36.3,23.4,29.89,WNW,298,0.0,2.0,59,0.00,,,0.00,VWS V14.01,2013-02-20 08:09:00,
2013-02-20 03:10:00,36.3,23.4,29.90,WNW,298,0.0,3.0,59,0.00,,,0.00,VWS V14.01,2013-02-20 08:10:00,
2013-02-20 03:11:00,36.2,23.3,29.90,South,183,1.0,6.0,59,0.00,,,0.00,VWS V14.01,2013-02-20 08:11:00,
2013-02-20 03:12:00,36.2,23.3,29.90,NNW,348,0.0,3.0,59,0.00,,,0.00,VWS V14.01,2013-02-20 08:12:00,
2013-02-20 03:13:00,36.2,23.7,29.90,West,270,0.0,4.0,60,0.00,,,0.00,VWS V14.01,2013-02-20 08:13:00,
2013-02-20 03:14:00,36.1,23.6,29.90,West,270,1.0,1.0,60,0.00,,,0.00,VWS V14.01,2013-02-20 08:14:00,
2013-02-20 03:15:00,36.1,23.6,29.90,NW,304,0.0,2.0,60,0.00,,,0.00,VWS V14.01,2013-02-20 08:15:00,
2013-02-20 03:16:00,36.0,23.5,29.90,NW,304,0.0,1.0,60,0.00,,,0.00,VWS V14.01,2013-02-20 08:16:00,
2013-02-20 03:17:00,36.0,23.5,29.90,WNW,285,0.0,2.0,60,0.00,,,0.00,VWS V14.01,2013-02-20 08:17:00,
2013-02-20 03:18:00,35.9,23.4,29.90,NW,311,2.0,6.0,60,0.00,,,0.00,VWS V14.01,2013-02-20 08:18:00,
2013-02-20 03:19:00,35.9,23.4,29.90,NW,305,1.0,2.0,60,0.00,,,0.00,VWS V14.01,2013-02-20 08:19:00,
2013-02-20 03:20:00,35.8,23.3,29.90,WNW,291,0.0,4.0,60,0.00,,,0.00,VWS V14.01,2013-02-20 08:20:00,
2013-02-20 03:21:00,35.7,23.2,29.90,WNW,291,0.0,0.0,60,0.00,,,0.00,VWS V14.01,2013-02-20 08:21:00,
2013-02-20 03:22:00,35.7,23.6,29.90,WNW,291,0.0,0.0,61,0.00,,,0.00,VWS V14.01,2013-02-20 08:22:00,
2013-02-20 03:23:00,35.6,23.5,29.90,North,360,1.0,1.0,61,0.00,,,0.00,VWS V14.01,2013-02-20 08:23:00,
2013-02-20 03:24:00,35.6,23.5,29.90,NNE,13,0.0,2.0,61,0.00,,,0.00,VWS V14.01,2013-02-20 08:24:00,
2013-02-20 03:25:00,35.5,23.4,29.90,WNW,300,0.0,4.0,61,0.00,,,0.00,VWS V14.01,2013-02-20 08:25:00,
2013-02-20 03:26:00,35.5,23.0,29.90,NNW,327,5.0,6.0,60,0.00,,,0.00,VWS V14.01,2013-02-20 08:26:00,
2013-02-20 03:27:00,35.4,22.9,29.90,WNW,284,5.0,5.0,60,0.00,,,0.00,VWS V14.01,2013-02-20 08:27:00,
2013-02-20 03:28:00,35.4,22.9,29.90,NW,318,1.0,5.0,60,0.00,,,0.00,VWS V14.01,2013-02-20 08:28:00,
2013-02-20 03:29:00,35.3,22.8,29.90,West,279,0.0,2.0,60,0.00,,,0.00,VWS V14.01,2013-02-20 08:29:00,
2013-02-20 03:30:00,35.3,22.8,29.90,North,355,0.0,6.0,60,0.00,,,0.00,VWS V14.01,2013-02-20 08:30:00,
2013-02-20 03:31:00,35.3,23.2,29.90,North,355,0.0,2.0,61,0.00,,,0.00,VWS V14.01,2013-02-20 08:31:00,
2013-02-20 03:32:00,35.2,23.1,29.90,WNW,300,5.0,7.0,61,0.00,,,0.00,VWS V14.01,2013-02-20 08:32:00,
2013-02-20 03:33:00,35.2,22.7,29.90,WNW,288,0.0,6.0,60,0.00,,,0.00,VWS V14.01,2013-02-20 08:33:00,
2013-02-20 03:34:00,35.2,22.7,29.90,West,277,0.0,4.0,60,0.00,,,0.00,VWS V14.01,2013-02-20 08:34:00,
2013-02-20 03:35:00,35.1,22.6,29.90,West,261,1.0,2.0,60,0.00,,,0.00,VWS V14.01,2013-02-20 08:35:00,
2013-02-20 03:36:00,35.1,22.6,29.90,NNW,348,1.0,4.0,60,0.00,,,0.00,VWS V14.01,2013-02-20 08:36:00,
2013-02-20 03:37:00,35.1,22.2,29.90,NE,55,7.0,7.0,59,0.00,,,0.00,VWS V14.01,2013-02-20 08:37:00,
2013-02-20 03:38:00,35.0,22.1,29.90,NNE,18,3.0,7.0,59,0.00,,,0.00,VWS V14.01,2013-02-20 08:38:00,
2013-02-20 03:39:00,35.0,22.1,29.90,NNE,13,0.0,4.0,59,0.00,,,0.00,VWS V14.01,2013-02-20 08:39:00,
2013-02-20 03:40:00,35.0,22.5,29.90,WNW,301,5.0,5.0,60,0.00,,,0.00,VWS V14.01,2013-02-20 08:40:00,
2013-02-20 03:41:00,34.9,22.0,29.90,SW,228,4.0,6.0,59,0.00,,,0.00,VWS V14.01,2013-02-20 08:41:00,
2013-02-20 03:42:00,34.9,21.6,29.90,NW,325,1.0,5.0,58,0.00,,,0.00,VWS V14.01,2013-02-20 08:42:00,
2013-02-20 03:43:00,34.9,21.6,29.91,NNW,348,1.0,9.0,58,0.00,,,0.00,VWS V14.01,2013-02-20 08:43:00,
2013-02-20 03:44:00,34.8,21.5,29.91,North,5,9.0,13.0,58,0.00,,,0.00,VWS V14.01,2013-02-20 08:44:00,
2013-02-20 03:45:00,34.8,20.7,29.90,WSW,241,1.0,9.0,56,0.00,,,0.00,VWS V14.01,2013-02-20 08:45:00,
2013-02-20 03:46:00,34.8,20.7,29.90,West,269,3.0,5.0,56,0.00,,,0.00,VWS V14.01,2013-02-20 08:46:00,
2013-02-20 03:47:00,34.8,20.7,29.90,NNW,331,1.0,2.0,56,0.00,,,0.00,VWS V14.01,2013-02-20 08:47:00,
2013-02-20 03:48:00,34.8,20.7,29.90,NW,323,1.0,1.0,56,0.00,,,0.00,VWS V14.01,2013-02-20 08:48:00,
2013-02-20 03:49:00,34.8,21.1,29.90,WNW,287,2.0,2.0,57,0.00,,,0.00,VWS V14.01,2013-02-20 08:49:00,
2013-02-20 03:50:00,34.8,21.1,29.91,WNW,296,1.0,2.0,57,0.00,,,0.00,VWS V14.01,2013-02-20 08:50:00,
2013-02-20 03:51:00,34.8,21.1,29.91,NW,306,5.0,8.0,57,0.00,,,0.00,VWS V14.01,2013-02-20 08:51:00,
2013-02-20 03:52:00,34.7,20.6,29.90,West,272,1.0,4.0,56,0.00,,,0.00,VWS V14.01,2013-02-20 08:52:00,
2013-02-20 03:53:00,34.7,20.2,29.91,WNW,296,0.0,4.0,55,0.00,,,0.00,VWS V14.01,2013-02-20 08:53:00,
2013-02-20 03:54:00,34.7,20.2,29.90,NE,38,0.0,2.0,55,0.00,,,0.00,VWS V14.01,2013-02-20 08:54:00,
2013-02-20 03:55:00,34.7,20.6,29.91,NE,38,0.0,0.0,56,0.00,,,0.00,VWS V14.01,2013-02-20 08:55:00,
2013-02-20 03:56:00,34.7,20.6,29.91,NE,38,0.0,1.0,56,0.00,,,0.00,VWS V14.01,2013-02-20 08:56:00,
2013-02-20 03:57:00,34.6,20.5,29.90,West,262,0.0,1.0,56,0.00,,,0.00,VWS V14.01,2013-02-20 08:57:00,
2013-02-20 03:58:00,34.6,20.5,29.90,West,260,2.0,2.0,56,0.00,,,0.00,VWS V14.01,2013-02-20 08:58:00,
2013-02-20 03:59:00,34.6,20.5,29.91,WNW,293,1.0,3.0,56,0.00,,,0.00,VWS V14.01,2013-02-20 08:59:00,
2013-02-20 04:00:00,34.6,20.1,29.91,NNW,339,0.0,2.0,55,0.00,,,0.00,VWS V14.01,2013-02-20 09:00:00,
2013-02-20 04:01:00,34.5,20.4,29.91,WSW,254,1.0,1.0,56,0.00,,,0.00,VWS V14.01,2013-02-20 09:01:00,
2013-02-20 04:02:00,34.4,19.9,29.91,West,281,0.0,3.0,55,0.00,,,0.00,VWS V14.01,2013-02-20 09:02:00,
2013-02-20 04:03:00,34.4,20.3,29.91,West,281,0.0,1.0,56,0.00,,,0.00,VWS V14.01,2013-02-20 09:03:00,
2013-02-20 04:04:00,34.4,19.9,29.91,North,355,0.0,2.0,55,0.00,,,0.00,VWS V14.01,2013-02-20 09:04:00,
2013-02-20 04:05:00,34.4,20.3,29.91,NNE,17,2.0,2.0,56,0.00,,,0.00,VWS V14.01,2013-02-20 09:05:00,
2013-02-20 04:06:00,34.4,20.3,29.91,ENE,66,1.0,2.0,56,0.00,,,0.00,VWS V14.01,2013-02-20 09:06:00,
2013-02-20 04:07:00,34.3,20.7,29.91,West,279,0.0,3.0,57,0.00,,,0.00,VWS V14.01,2013-02-20 09:07:00,
2013-02-20 04:08:00,34.3,20.7,29.91,West,279,0.0,1.0,57,0.00,,,0.00,VWS V14.01,2013-02-20 09:08:00,
2013-02-20 04:09:00,34.3,20.7,29.91,West,279,0.0,0.0,57,0.00,,,0.00,VWS V14.01,2013-02-20 09:09:00,
2013-02-20 04:10:00,34.3,20.7,29.91,West,279,0.0,0.0,57,0.00,,,0.00,VWS V14.01,2013-02-20 09:10:00,
2013-02-20 04:11:00,34.2,20.6,29.91,West,279,0.0,0.0,57,0.00,,,0.00,VWS V14.01,2013-02-20 09:11:00,
2013-02-20 04:12:00,34.2,20.6,29.91,SSW,204,1.0,4.0,57,0.00,,,0.00,VWS V14.01,2013-02-20 09:12:00,
2013-02-20 04:13:00,34.2,20.6,29.91,SSW,204,0.0,1.0,57,0.00,,,0.00,VWS V14.01,2013-02-20 09:13:00,
2013-02-20 04:14:00,34.1,20.9,29.91,SSW,204,0.0,0.0,58,0.00,,,0.00,VWS V14.01,2013-02-20 09:14:00,
2013-02-20 04:15:00,34.1,20.9,29.91,West,266,1.0,6.0,58,0.00,,,0.00,VWS V14.01,2013-02-20 09:15:00,
2013-02-20 04:16:00,34.0,20.4,29.92,NNW,337,0.0,1.0,57,0.00,,,0.00,VWS V14.01,2013-02-20 09:16:00,
2013-02-20 04:17:00,34.0,20.8,29.91,West,275,2.0,2.0,58,0.00,,,0.00,VWS V14.01,2013-02-20 09:17:00,
2013-02-20 04:18:00,33.9,20.7,29.91,WNW,296,0.0,1.0,58,0.00,,,0.00,VWS V14.01,2013-02-20 09:18:00,
2013-02-20 04:19:00,33.9,20.7,29.91,WNW,296,0.0,1.0,58,0.00,,,0.00,VWS V14.01,2013-02-20 09:19:00,
2013-02-20 04:20:00,33.9,20.7,29.91,WNW,296,0.0,1.0,58,0.00,,,0.00,VWS V14.01,2013-02-20 09:20:00,
2013-02-20 04:21:00,33.8,21.0,29.91,West,277,2.0,2.0,59,0.00,,,0.00,VWS V14.01,2013-02-20 09:21:00,
2013-02-20 04:22:00,33.8,20.6,29.91,NW,316,0.0,2.0,58,0.00,,,0.00,VWS V14.01,2013-02-20 09:22:00,
2013-02-20 04:23:00,33.7,20.5,29.91,NW,316,0.0,1.0,58,0.00,,,0.00,VWS V14.01,2013-02-20 09:23:00,
2013-02-20 04:24:00,33.7,20.9,29.92,NW,316,0.0,1.0,59,0.00,,,0.00,VWS V14.01,2013-02-20 09:24:00,
2013-02-20 04:25:00,33.7,20.9,29.92,NW,310,1.0,1.0,59,0.00,,,0.00,VWS V14.01,2013-02-20 09:25:00,
2013-02-20 04:26:00,33.6,20.4,29.92,NW,310,0.0,1.0,58,0.00,,,0.00,VWS V14.01,2013-02-20 09:26:00,
2013-02-20 04:27:00,33.6,20.4,29.92,NW,310,0.0,0.0,58,0.00,,,0.00,VWS V14.01,2013-02-20 09:27:00,
2013-02-20 04:28:00,33.5,20.7,29.92,NW,319,1.0,6.0,59,0.00,,,0.00,VWS V14.01,2013-02-20 09:28:00,
2013-02-20 04:29:00,33.5,20.7,29.92,NW,319,0.0,1.0,59,0.00,,,0.00,VWS V14.01,2013-02-20 09:29:00,
2013-02-20 04:30:00,33.5,20.7,29.92,NW,319,0.0,1.0,59,0.00,,,0.00,VWS V14.01,2013-02-20 09:30:00,
2013-02-20 04:31:00,33.5,20.7,29.92,SW,227,0.0,2.0,59,0.00,,,0.00,VWS V14.01,2013-02-20 09:31:00,
2013-02-20 04:32:00,33.4,20.6,29.92,SW,227,1.0,1.0,59,0.00,,,0.00,VWS V14.01,2013-02-20 09:32:00,
2013-02-20 04:33:00,33.4,21.0,29.92,West,281,0.0,2.0,60,0.00,,,0.00,VWS V14.01,2013-02-20 09:33:00,
2013-02-20 04:34:00,33.4,20.6,29.92,West,281,0.0,0.0,59,0.00,,,0.00,VWS V14.01,2013-02-20 09:34:00,
2013-02-20 04:35:00,33.4,20.6,29.92,West,281,0.0,0.0,59,0.00,,,0.00,VWS V14.01,2013-02-20 09:35:00,
2013-02-20 04:36:00,33.3,20.9,29.92,West,281,0.0,0.0,60,0.00,,,0.00,VWS V14.01,2013-02-20 09:36:00,
2013-02-20 04:37:00,33.3,20.9,29.92,West,281,0.0,0.0,60,0.00,,,0.00,VWS V14.01,2013-02-20 09:37:00,
2013-02-20 04:38:00,33.2,20.8,29.92,West,281,0.0,0.0,60,0.00,,,0.00,VWS V14.01,2013-02-20 09:38:00,
2013-02-20 04:39:00,33.2,20.8,29.92,West,281,0.0,2.0,60,0.00,,,0.00,VWS V14.01,2013-02-20 09:39:00,
2013-02-20 04:40:00,33.2,20.4,29.92,West,281,0.0,1.0,59,0.00,,,0.00,VWS V14.01,2013-02-20 09:40:00,
2013-02-20 04:41:00,33.1,20.7,29.92,West,281,0.0,0.0,60,0.00,,,0.00,VWS V14.01,2013-02-20 09:41:00,
2013-02-20 04:42:00,33.1,20.7,29.92,NW,321,1.0,2.0,60,0.00,,,0.00,VWS V14.01,2013-02-20 09:42:00,
2013-02-20 04:43:00,33.1,20.7,29.92,North,355,0.0,1.0,60,0.00,,,0.00,VWS V14.01,2013-02-20 09:43:00,
2013-02-20 04:44:00,33.1,20.4,29.92,West,275,1.0,2.0,59,0.00,,,0.00,VWS V14.01,2013-02-20 09:44:00,
2013-02-20 04:45:00,33.0,20.2,29.92,West,275,0.0,2.0,59,0.00,,,0.00,VWS V14.01,2013-02-20 09:45:00,
2013-02-20 04:46:00,33.0,20.6,29.92,West,275,0.0,1.0,60,0.00,,,0.00,VWS V14.01,2013-02-20 09:46:00,
2013-02-20 04:47:00,33.0,20.6,29.92,West,275,0.0,0.0,60,0.00,,,0.00,VWS V14.01,2013-02-20 09:47:00,
2013-02-20 04:48:00,33.0,20.6,29.92,West,275,0.0,1.0,60,0.00,,,0.00,VWS V14.01,2013-02-20 09:48:00,
2013-02-20 04:49:00,33.0,20.6,29.92,West,275,0.0,0.0,60,0.00,,,0.00,VWS V14.01,2013-02-20 09:49:00,
2013-02-20 04:50:00,32.9,20.5,29.92,West,275,0.0,0.0,60,0.00,,,0.00,VWS V14.01,2013-02-20 09:50:00,
2013-02-20 04:51:00,32.9,20.9,29.92,West,275,0.0,0.0,61,0.00,,,0.00,VWS V14.01,2013-02-20 09:51:00,
2013-02-20 04:52:00,32.9,20.5,29.92,West,275,0.0,1.0,60,0.00,,,0.00,VWS V14.01,2013-02-20 09:52:00,
2013-02-20 04:53:00,32.9,20.5,29.93,West,275,0.0,2.0,60,0.00,,,0.00,VWS V14.01,2013-02-20 09:53:00,
2013-02-20 04:54:00,32.8,20.5,29.93,West,275,0.0,0.0,60,0.00,,,0.00,VWS V14.01,2013-02-20 09:54:00,
2013-02-20 04:55:00,32.8,20.5,29.93,West,275,0.0,0.0,60,0.00,,,0.00,VWS V14.01,2013-02-20 09:55:00,
2013-02-20 04:56:00,32.8,20.5,29.93,West,275,0.0,0.0,60,0.00,,,0.00,VWS V14.01,2013-02-20 09:56:00,
2013-02-20 04:57:00,32.8,20.5,29.93,West,275,0.0,0.0,60,0.00,,,0.00,VWS V14.01,2013-02-20 09:57:00,
2013-02-20 04:58:00,32.8,20.9,29.93,NNE,22,0.0,1.0,61,0.00,,,0.00,VWS V14.01,2013-02-20 09:58:00,
2013-02-20 04:59:00,32.7,20.4,29.93,NNE,21,0.0,2.0,60,0.00,,,0.00,VWS V14.01,2013-02-20 09:59:00,
2013-02-20 05:00:00,32.7,20.8,29.93,North,355,0.0,4.0,61,0.00,,,0.00,VWS V14.01,2013-02-20 10:00:00,
2013-02-20 05:01:00,32.6,20.3,29.93,NW,308,0.0,2.0,60,0.00,,,0.00,VWS V14.01,2013-02-20 10:01:00,
2013-02-20 05:02:00,32.6,20.3,29.93,NW,306,0.0,1.0,60,0.00,,,0.00,VWS V14.01,2013-02-20 10:02:00,
2013-02-20 05:03:00,32.6,20.3,29.93,NW,304,0.0,0.0,60,0.00,,,0.00,VWS V14.01,2013-02-20 10:03:00,
2013-02-20 05:04:00,32.6,20.3,29.93,West,277,2.0,2.0,60,0.00,,,0.00,VWS V14.01,2013-02-20 10:04:00,
2013-02-20 05:05:00,32.6,19.9,29.93,West,277,0.0,3.0,59,0.00,,,0.00,VWS V14.01,2013-02-20 10:05:00,
2013-02-20 05:06:00,32.6,19.9,29.93,West,277,0.0,2.0,59,0.00,,,0.00,VWS V14.01,2013-02-20 10:06:00,
2013-02-20 05:07:00,32.6,19.9,29.93,West,277,1.0,1.0,59,0.00,,,0.00,VWS V14.01,2013-02-20 10:07:00,
2013-02-20 05:08:00,32.6,19.9,29.93,WNW,295,2.0,2.0,59,0.00,,,0.00,VWS V14.01,2013-02-20 10:08:00,
2013-02-20 05:09:00,32.6,19.9,29.93,West,275,2.0,4.0,59,0.00,,,0.00,VWS V14.01,2013-02-20 10:09:00,
2013-02-20 05:10:00,32.6,19.9,29.93,North,355,0.0,4.0,59,0.00,,,0.00,VWS V14.01,2013-02-20 10:10:00,
2013-02-20 05:11:00,32.6,19.9,29.93,North,355,0.0,0.0,59,0.00,,,0.00,VWS V14.01,2013-02-20 10:11:00,
2013-02-20 05:12:00,32.6,19.9,29.93,West,266,6.0,6.0,59,0.00,,,0.00,VWS V14.01,2013-02-20 10:12:00,
2013-02-20 05:13:00,32.7,19.6,29.93,NW,322,0.0,5.0,58,0.00,,,0.00,VWS V14.01,2013-02-20 10:13:00,
2013-02-20 05:14:00,32.7,20.0,29.93,NW,322,0.0,0.0,59,0.00,,,0.00,VWS V14.01,2013-02-20 10:14:00,
2013-02-20 05:15:00,32.7,20.0,29.93,West,274,2.0,2.0,59,0.00,,,0.00,VWS V14.01,2013-02-20 10:15:00,
2013-02-20 05:16:00,32.7,20.0,29.93,NW,309,1.0,1.0,59,0.00,,,0.00,VWS V14.01,2013-02-20 10:16:00,
2013-02-20 05:17:00,32.7,20.0,29.93,NW,317,0.0,4.0,59,0.00,,,0.00,VWS V14.01,2013-02-20 10:17:00,
2013-02-20 05:18:00,32.7,20.0,29.93,WNW,295,0.0,4.0,59,0.00,,,0.00,VWS V14.01,2013-02-20 10:18:00,
2013-02-20 05:19:00,32.7,20.0,29.93,WNW,295,0.0,1.0,59,0.00,,,0.00,VWS V14.01,2013-02-20 10:19:00,
2013-02-20 05:20:00,32.7,20.0,29.93,WNW,295,0.0,0.0,59,0.00,,,0.00,VWS V14.01,2013-02-20 10:20:00,
2013-02-20 05:21:00,32.7,20.0,29.93,WNW,295,0.0,1.0,59,0.00,,,0.00,VWS V14.01,2013-02-20 10:21:00,
2013-02-20 05:22:00,32.7,20.4,29.93,WNW,295,0.0,1.0,60,0.00,,,0.00,VWS V14.01,2013-02-20 10:22:00,
2013-02-20 05:23:00,32.7,20.4,29.93,WNW,295,0.0,2.0,60,0.00,,,0.00,VWS V14.01,2013-02-20 10:23:00,
2013-02-20 05:24:00,32.6,19.9,29.93,WNW,283,2.0,2.0,59,0.00,,,0.00,VWS V14.01,2013-02-20 10:24:00,
2013-02-20 05:25:00,32.6,19.9,29.93,WSW,255,0.0,1.0,59,0.00,,,0.00,VWS V14.01,2013-02-20 10:25:00,
2013-02-20 05:26:00,32.6,20.3,29.93,NW,311,0.0,2.0,60,0.00,,,0.00,VWS V14.01,2013-02-20 10:26:00,
2013-02-20 05:27:00,32.6,20.3,29.93,NW,311,0.0,1.0,60,0.00,,,0.00,VWS V14.01,2013-02-20 10:27:00,
2013-02-20 05:28:00,32.6,20.3,29.93,West,276,1.0,2.0,60,0.00,,,0.00,VWS V14.01,2013-02-20 10:28:00,
2013-02-20 05:29:00,32.6,20.3,29.93,WNW,290,3.0,5.0,60,0.00,,,0.00,VWS V14.01,2013-02-20 10:29:00,
2013-02-20 05:30:00,32.5,19.8,29.93,WNW,293,1.0,2.0,59,0.00,,,0.00,VWS V14.01,2013-02-20 10:30:00,
2013-02-20 05:31:00,32.5,19.8,29.93,WNW,293,0.0,2.0,59,0.00,,,0.00,VWS V14.01,2013-02-20 10:31:00,
2013-02-20 05:32:00,32.5,19.8,29.93,WNW,293,0.0,0.0,59,0.00,,,0.00,VWS V14.01,2013-02-20 10:32:00,
2013-02-20 05:33:00,32.5,19.8,29.93,WNW,283,1.0,2.0,59,0.00,,,0.00,VWS V14.01,2013-02-20 10:33:00,
2013-02-20 05:34:00,32.5,19.8,29.93,NNW,328,4.0,7.0,59,0.00,,,0.00,VWS V14.01,2013-02-20 10:34:00,
2013-02-20 05:35:00,32.6,19.9,29.94,West,273,1.0,7.0,59,0.00,,,0.00,VWS V14.01,2013-02-20 10:35:00,
2013-02-20 05:36:00,32.5,19.8,29.94,West,273,0.0,1.0,59,0.00,,,0.00,VWS V14.01,2013-02-20 10:36:00,
2013-02-20 05:37:00,32.5,19.8,29.94,NNW,342,1.0,6.0,59,0.00,,,0.00,VWS V14.01,2013-02-20 10:37:00,
2013-02-20 05:38:00,32.6,19.9,29.94,NW,317,1.0,2.0,59,0.00,,,0.00,VWS V14.01,2013-02-20 10:38:00,
2013-02-20 05:39:00,32.6,19.9,29.94,NW,326,1.0,3.0,59,0.00,,,0.00,VWS V14.01,2013-02-20 10:39:00,
2013-02-20 05:40:00,32.6,19.9,29.94,WNW,287,2.0,2.0,59,0.00,,,0.00,VWS V14.01,2013-02-20 10:40:00,
2013-02-20 05:41:00,32.6,19.9,29.94,SSW,209,4.0,5.0,59,0.00,,,0.00,VWS V14.01,2013-02-20 10:41:00,
2013-02-20 05:42:00,32.6,19.9,29.94,West,263,4.0,6.0,59,0.00,,,0.00,VWS V14.01,2013-02-20 10:42:00,
2013-02-20 05:43:00,32.6,19.5,29.94,West,267,1.0,6.0,58,0.00,,,0.00,VWS V14.01,2013-02-20 10:43:00,
2013-02-20 05:44:00,32.6,19.5,29.94,North,9,0.0,2.0,58,0.00,,,0.00,VWS V14.01,2013-02-20 10:44:00,
2013-02-20 05:45:00,32.6,19.9,29.94,WSW,254,1.0,2.0,59,0.00,,,0.00,VWS V14.01,2013-02-20 10:45:00,
2013-02-20 05:46:00,32.6,19.9,29.94,West,262,1.0,5.0,59,0.00,,,0.00,VWS V14.01,2013-02-20 10:46:00,
2013-02-20 05:47:00,32.6,19.9,29.95,West,276,1.0,6.0,59,0.00,,,0.00,VWS V14.01,2013-02-20 10:47:00,
2013-02-20 05:48:00,32.6,19.5,29.95,WNW,296,2.0,3.0,58,0.00,,,0.00,VWS V14.01,2013-02-20 10:48:00,
2013-02-20 05:49:00,32.6,19.5,29.95,North,5,0.0,2.0,58,0.00,,,0.00,VWS V14.01,2013-02-20 10:49:00,
2013-02-20 05:50:00,32.6,19.5,29.95,WSW,237,2.0,5.0,58,0.00,,,0.00,VWS V14.01,2013-02-20 10:50:00,
2013-02-20 05:51:00,32.6,19.1,29.95,WNW,282,10.0,10.0,57,0.00,,,0.00,VWS V14.01,2013-02-20 10:51:00,
2013-02-20 05:52:00,32.6,19.1,29.95,North,355,1.0,7.0,57,0.00,,,0.00,VWS V14.01,2013-02-20 10:52:00,
2013-02-20 05:53:00,32.6,19.1,29.95,ENE,67,0.0,3.0,57,0.00,,,0.00,VWS V14.01,2013-02-20 10:53:00,
2013-02-20 05:54:00,32.6,18.7,29.95,NW,304,0.0,5.0,56,0.00,,,0.00,VWS V14.01,2013-02-20 10:54:00,
2013-02-20 05:55:00,32.6,18.7,29.95,SSW,209,4.0,4.0,56,0.00,,,0.00,VWS V14.01,2013-02-20 10:55:00,
2013-02-20 05:56:00,32.5,18.6,29.95,WSW,250,1.0,4.0,56,0.00,,,0.00,VWS V14.01,2013-02-20 10:56:00,
2013-02-20 05:57:00,32.5,18.6,29.95,SE,127,0.0,2.0,56,0.00,,,0.00,VWS V14.01,2013-02-20 10:57:00,
2013-02-20 05:58:00,32.5,18.6,29.96,SE,127,1.0,2.0,56,0.00,,,0.00,VWS V14.01,2013-02-20 10:58:00,
2013-02-20 05:59:00,32.5,18.6,29.96,NW,304,9.0,9.0,56,0.00,,,0.00,VWS V14.01,2013-02-20 10:59:00,
2013-02-20 06:00:00,32.5,18.1,29.96,NW,309,2.0,7.0,55,0.00,,,0.00,VWS V14.01,2013-02-20 11:00:00,
2013-02-20 06:01:00,32.4,17.6,29.96,NW,309,4.0,6.0,54,0.00,,,0.00,VWS V14.01,2013-02-20 11:01:00,
2013-02-20 06:02:00,32.4,17.6,29.96,WNW,298,0.0,4.0,54,0.00,,,0.00,VWS V14.01,2013-02-20 11:02:00,
2013-02-20 06:03:00,32.4,17.6,29.96,NNE,22,5.0,5.0,54,0.00,,,0.00,VWS V14.01,2013-02-20 11:03:00,
2013-02-20 06:04:00,32.4,17.6,29.97,WNW,292,3.0,8.0,54,0.00,,,0.00,VWS V14.01,2013-02-20 11:04:00,
2013-02-20 06:05:00,32.4,17.2,29.96,West,264,8.0,10.0,53,0.00,,,0.00,VWS V14.01,2013-02-20 11:05:00,
2013-02-20 06:06:00,32.4,17.2,29.96,NW,319,0.0,7.0,53,0.00,,,0.00,VWS V14.01,2013-02-20 11:06:00,
2013-02-20 06:07:00,32.4,17.2,29.96,NNW,340,1.0,2.0,53,0.00,,,0.00,VWS V14.01,2013-02-20 11:07:00,
2013-02-20 06:08:00,32.4,17.6,29.97,NNE,22,4.0,8.0,54,0.00,,,0.00,VWS V14.01,2013-02-20 11:08:00,
2013-02-20 06:09:00,32.4,17.6,29.96,WNW,298,4.0,5.0,54,0.00,,,0.00,VWS V14.01,2013-02-20 11:09:00,
2013-02-20 06:10:00,32.4,17.2,29.97,WSW,242,8.0,8.0,53,0.00,,,0.00,VWS V14.01,2013-02-20 11:10:00,
2013-02-20 06:11:00,32.4,17.2,29.96,NW,306,7.0,7.0,53,0.00,,,0.00,VWS V14.01,2013-02-20 11:11:00,
2013-02-20 06:12:00,32.4,17.2,29.97,WNW,297,1.0,7.0,53,0.00,,,0.00,VWS V14.01,2013-02-20 11:12:00,
2013-02-20 06:13:00,32.3,17.5,29.97,WNW,296,0.0,2.0,54,0.00,,,0.00,VWS V14.01,2013-02-20 11:13:00,
2013-02-20 06:14:00,32.3,17.5,29.96,WNW,290,2.0,2.0,54,0.00,,,0.00,VWS V14.01,2013-02-20 11:14:00,
2013-02-20 06:15:00,32.3,17.5,29.96,NW,309,0.0,2.0,54,0.00,,,0.00,VWS V14.01,2013-02-20 11:15:00,
2013-02-20 06:16:00,32.4,17.6,29.96,NW,309,2.0,2.0,54,0.00,,,0.00,VWS V14.01,2013-02-20 11:16:00,
2013-02-20 06:17:00,32.3,17.1,29.97,North,10,0.0,3.0,53,0.00,,,0.00,VWS V14.01,2013-02-20 11:17:00,
2013-02-20 06:18:00,32.3,17.1,29.96,WSW,244,4.0,4.0,53,0.00,,,0.00,VWS V14.01,2013-02-20 11:18:00,
2013-02-20 06:19:00,32.3,17.5,29.96,North,355,0.0,5.0,54,0.00,,,0.00,VWS V14.01,2013-02-20 11:19:00,
2013-02-20 06:20:00,32.2,17.0,29.96,NNW,345,2.0,6.0,53,0.00,,,0.00,VWS V14.01,2013-02-20 11:20:00,
2013-02-20 06:21:00,32.2,17.4,29.97,WNW,302,1.0,2.0,54,0.00,,,0.00,VWS V14.01,2013-02-20 11:21:00,
2013-02-20 06:22:00,32.2,17.0,29.97,NNW,344,2.0,4.0,53,0.00,,,0.00,VWS V14.01,2013-02-20 11:22:00,
2013-02-20 06:23:00,32.2,17.0,29.97,NNW,340,0.0,1.0,53,0.00,,,0.00,VWS V14.01,2013-02-20 11:23:00,
2013-02-20 06:24:00,32.2,17.4,29.97,NNW,347,1.0,4.0,54,0.00,,,0.00,VWS V14.01,2013-02-20 11:24:00,
2013-02-20 06:25:00,32.1,16.9,29.97,SW,230,2.0,9.0,53,0.00,,,0.00,VWS V14.01,2013-02-20 11:25:00,
2013-02-20 06:26:00,32.1,16.9,29.97,WSW,253,0.0,8.0,53,0.00,,,0.00,VWS V14.01,2013-02-20 11:26:00,
2013-02-20 06:27:00,32.1,16.9,29.97,NW,323,1.0,2.0,53,0.00,,,0.00,VWS V14.01,2013-02-20 11:27:00,
2013-02-20 06:28:00,32.1,16.9,29.97,WSW,248,0.0,2.0,53,0.00,,,0.00,VWS V14.01,2013-02-20 11:28:00,
2013-02-20 06:29:00,32.1,17.3,29.97,NW,321,1.0,5.0,54,0.00,,,0.00,VWS V14.01,2013-02-20 11:29:00,
2013-02-20 06:30:00,32.1,17.3,29.97,WNW,302,1.0,4.0,54,0.00,,,0.00,VWS V14.01,2013-02-20 11:30:00,
2013-02-20 06:31:00,32.1,16.9,29.97,South,185,3.0,4.0,53,0.00,,,0.00,VWS V14.01,2013-02-20 11:31:00,
2013-02-20 06:32:00,32.1,17.3,29.97,North,350,3.0,3.0,54,0.00,,,0.00,VWS V14.01,2013-02-20 11:32:00,
2013-02-20 06:33:00,32.1,16.9,29.97,West,277,0.0,9.0,53,0.00,,,0.00,VWS V14.01,2013-02-20 11:33:00,
2013-02-20 06:34:00,32.1,16.9,29.97,SSW,208,0.0,2.0,53,0.00,,,0.00,VWS V14.01,2013-02-20 11:34:00,
2013-02-20 06:35:00,32.1,17.3,29.97,WSW,254,0.0,4.0,54,0.00,,,0.00,VWS V14.01,2013-02-20 11:35:00,
2013-02-20 06:36:00,32.1,17.3,29.97,WNW,299,5.0,6.0,54,0.00,,,0.00,VWS V14.01,2013-02-20 11:36:00,
2013-02-20 06:37:00,32.1,17.3,29.97,NW,325,0.0,5.0,54,0.00,,,0.00,VWS V14.01,2013-02-20 11:37:00,
2013-02-20 06:38:00,32.1,17.3,29.98,NW,325,0.0,2.0,54,0.00,,,0.00,VWS V14.01,2013-02-20 11:38:00,
2013-02-20 06:39:00,32.0,17.2,29.98,NW,311,1.0,6.0,54,0.00,,,0.00,VWS V14.01,2013-02-20 11:39:00,
2013-02-20 06:40:00,32.1,17.3,29.98,West,259,0.0,5.0,54,0.00,,,0.00,VWS V14.01,2013-02-20 11:40:00,
2013-02-20 06:41:00,32.0,17.2,29.98,NNW,329,0.0,2.0,54,0.00,,,0.00,VWS V14.01,2013-02-20 11:41:00,
2013-02-20 06:42:00,32.0,17.2,29.98,SW,229,0.0,3.0,54,0.00,,,0.00,VWS V14.01,2013-02-20 11:42:00,
2013-02-20 06:43:00,32.0,17.2,29.98,SW,229,0.0,1.0,54,0.00,,,0.00,VWS V14.01,2013-02-20 11:43:00,
2013-02-20 06:44:00,32.0,17.2,29.98,NNW,329,4.0,6.0,54,0.00,,,0.00,VWS V14.01,2013-02-20 11:44:00,
2013-02-20 06:45:00,32.0,17.2,29.98,West,271,1.0,6.0,54,0.00,,,0.00,VWS V14.01,2013-02-20 11:45:00,
2013-02-20 06:46:00,32.0,17.2,29.98,WNW,285,2.0,5.0,54,0.00,,,0.00,VWS V14.01,2013-02-20 11:46:00,
2013-02-20 06:47:00,32.0,17.2,29.99,NNW,342,2.0,2.0,54,0.00,,,0.00,VWS V14.01,2013-02-20 11:47:00,
2013-02-20 06:48:00,32.0,17.2,29.98,NW,314,1.0,5.0,54,0.00,,,0.00,VWS V14.01,2013-02-20 11:48:00,
2013-02-20 06:49:00,32.0,17.2,29.99,WNW,290,0.0,1.0,54,0.00,,,0.00,VWS V14.01,2013-02-20 11:49:00,
2013-02-20 06:50:00,32.0,17.2,29.99,WNW,290,1.0,2.0,54,0.00,,,0.00,VWS V14.01,2013-02-20 11:50:00,
2013-02-20 06:51:00,32.0,17.2,29.99,WNW,298,0.0,5.0,54,0.00,,,0.00,VWS V14.01,2013-02-20 11:51:00,
2013-02-20 06:52:00,32.0,17.2,29.98,WNW,291,0.0,2.0,54,0.00,,,0.00,VWS V14.01,2013-02-20 11:52:00,
2013-02-20 06:53:00,32.0,17.7,29.99,WNW,291,1.0,1.0,55,0.00,,,0.00,VWS V14.01,2013-02-20 11:53:00,
2013-02-20 06:54:00,32.0,17.7,29.98,NNW,336,1.0,3.0,55,0.00,,,0.00,VWS V14.01,2013-02-20 11:54:00,
2013-02-20 06:55:00,32.0,17.2,29.98,NNW,328,2.0,2.0,54,0.00,,,0.00,VWS V14.01,2013-02-20 11:55:00,
2013-02-20 06:56:00,32.0,17.2,29.98,NW,314,1.0,4.0,54,0.00,,,0.00,VWS V14.01,2013-02-20 11:56:00,
2013-02-20 06:57:00,32.0,17.2,29.99,WNW,300,0.0,5.0,54,0.00,,,0.00,VWS V14.01,2013-02-20 11:57:00,
2013-02-20 06:58:00,32.0,17.7,29.99,NW,318,0.0,2.0,55,0.00,,,0.00,VWS V14.01,2013-02-20 11:58:00,
2013-02-20 06:59:00,32.0,17.7,29.99,NW,311,2.0,4.0,55,0.00,,,0.00,VWS V14.01,2013-02-20 11:59:00,
2013-02-20 07:00:00,32.0,17.7,29.99,WSW,247,2.0,4.0,55,0.00,,,0.00,VWS V14.01,2013-02-20 12:00:00,
2013-02-20 07:01:00,32.0,17.2,29.99,WSW,247,0.0,1.0,54,0.00,,,0.00,VWS V14.01,2013-02-20 12:01:00,
2013-02-20 07:02:00,32.0,17.7,29.99,WNW,292,0.0,2.0,55,0.00,,,0.00,VWS V14.01,2013-02-20 12:02:00,
2013-02-20 07:03:00,32.0,17.7,29.99,WNW,292,0.0,0.0,55,0.00,,,0.00,VWS V14.01,2013-02-20 12:03:00,
2013-02-20 07:04:00,32.0,17.7,29.99,NW,304,1.0,2.0,55,0.00,,,0.00,VWS V14.01,2013-02-20 12:04:00,
2013-02-20 07:05:00,32.0,17.7,29.99,NW,321,1.0,2.0,55,0.00,,,0.00,VWS V14.01,2013-02-20 12:05:00,
2013-02-20 07:06:00,32.0,17.7,29.99,WSW,252,1.0,6.0,55,0.00,,,0.00,VWS V14.01,2013-02-20 12:06:00,
2013-02-20 07:07:00,32.0,18.1,29.99,WSW,254,0.0,2.0,56,0.00,,,0.00,VWS V14.01,2013-02-20 12:07:00,
2013-02-20 07:08:00,32.0,18.1,29.99,WSW,254,1.0,1.0,56,0.00,,,0.00,VWS V14.01,2013-02-20 12:08:00,
2013-02-20 07:09:00,32.0,18.1,29.99,WSW,255,0.0,2.0,56,0.00,,,0.00,VWS V14.01,2013-02-20 12:09:00,
2013-02-20 07:10:00,32.0,18.1,29.99,NW,304,0.0,1.0,56,0.00,,,0.00,VWS V14.01,2013-02-20 12:10:00,
2013-02-20 07:11:00,32.0,18.1,29.99,WSW,245,3.0,3.0,56,0.00,,,0.00,VWS V14.01,2013-02-20 12:11:00,
2013-02-20 07:12:00,32.0,18.1,29.99,West,261,0.0,2.0,56,0.00,,,0.00,VWS V14.01,2013-02-20 12:12:00,
2013-02-20 07:13:00,32.0,18.1,29.99,NW,317,2.0,2.0,56,0.00,,,0.00,VWS V14.01,2013-02-20 12:13:00,
2013-02-20 07:14:00,32.0,18.1,29.99,WNW,289,0.0,3.0,56,0.00,,,0.00,VWS V14.01,2013-02-20 12:14:00,
2013-02-20 07:15:00,32.0,18.5,29.99,West,279,0.0,2.0,57,0.00,,,0.00,VWS V14.01,2013-02-20 12:15:00,
2013-02-20 07:16:00,32.0,18.5,29.99,SW,228,1.0,1.0,57,0.00,,,0.00,VWS V14.01,2013-02-20 12:16:00,
2013-02-20 07:17:00,32.0,18.5,29.99,NW,311,0.0,1.0,57,0.00,,,0.00,VWS V14.01,2013-02-20 12:17:00,
2013-02-20 07:18:00,32.0,18.9,29.99,NW,311,0.0,1.0,58,0.00,,,0.00,VWS V14.01,2013-02-20 12:18:00,
2013-02-20 07:19:00,32.0,18.5,29.99,NW,313,0.0,1.0,57,0.00,,,0.00,VWS V14.01,2013-02-20 12:19:00,
2013-02-20 07:20:00,31.9,18.8,29.99,North,355,5.0,5.0,58,0.00,,,0.00,VWS V14.01,2013-02-20 12:20:00,
2013-02-20 07:21:00,31.9,18.4,30.00,West,273,1.0,7.0,57,0.00,,,0.00,VWS V14.01,2013-02-20 12:21:00,
2013-02-20 07:22:00,31.9,18.4,30.00,West,271,1.0,2.0,57,0.00,,,0.00,VWS V14.01,2013-02-20 12:22:00,
2013-02-20 07:23:00,31.9,18.4,30.00,WNW,285,6.0,6.0,57,0.00,,,0.00,VWS V14.01,2013-02-20 12:23:00,
2013-02-20 07:24:00,31.9,18.4,29.99,WSW,254,1.0,5.0,57,0.00,,,0.00,VWS V14.01,2013-02-20 12:24:00,
2013-02-20 07:25:00,31.9,18.4,29.99,WSW,254,1.0,1.0,57,0.00,,,0.00,VWS V14.01,2013-02-20 12:25:00,
2013-02-20 07:26:00,31.9,18.4,29.99,NNW,329,0.0,2.0,57,0.00,,,0.00,VWS V14.01,2013-02-20 12:26:00,
2013-02-20 07:27:00,31.9,18.8,30.00,West,267,1.0,7.0,58,0.00,,,0.00,VWS V14.01,2013-02-20 12:27:00,
2013-02-20 07:28:00,31.9,18.4,30.00,WNW,284,2.0,2.0,57,0.00,,,0.00,VWS V14.01,2013-02-20 12:28:00,
2013-02-20 07:29:00,31.9,18.8,30.00,WNW,285,0.0,2.0,58,0.00,,,0.00,VWS V14.01,2013-02-20 12:29:00,
2013-02-20 07:30:00,31.9,18.8,29.99,WNW,285,0.0,1.0,58,0.00,,,0.00,VWS V14.01,2013-02-20 12:30:00,
2013-02-20 07:31:00,31.9,18.8,30.00,WNW,284,0.0,1.0,58,0.00,,,0.00,VWS V14.01,2013-02-20 12:31:00,
2013-02-20 07:32:00,31.9,18.8,30.00,NW,321,3.0,5.0,58,0.00,,,0.00,VWS V14.01,2013-02-20 12:32:00,
2013-02-20 07:33:00,31.9,18.4,30.00,SSW,210,1.0,2.0,57,0.00,,,0.00,VWS V14.01,2013-02-20 12:33:00,
2013-02-20 07:34:00,31.9,18.4,30.00,West,262,2.0,2.0,57,0.00,,,0.00,VWS V14.01,2013-02-20 12:34:00,
2013-02-20 07:35:00,31.9,18.4,30.00,NNW,327,2.0,3.0,57,0.00,,,0.00,VWS V14.01,2013-02-20 12:35:00,
2013-02-20 07:36:00,31.9,18.4,30.00,NNE,28,1.0,7.0,57,0.00,,,0.00,VWS V14.01,2013-02-20 12:36:00,
2013-02-20 07:37:00,32.0,18.5,30.00,NE,43,1.0,2.0,57,0.00,,,0.00,VWS V14.01,2013-02-20 12:37:00,
2013-02-20 07:38:00,32.0,18.5,30.00,NW,319,4.0,4.0,57,0.00,,,0.00,VWS V14.01,2013-02-20 12:38:00,
2013-02-20 07:39:00,32.0,18.5,30.00,WNW,287,0.0,7.0,57,0.00,,,0.00,VWS V14.01,2013-02-20 12:39:00,
2013-02-20 07:40:00,32.0,18.5,30.00,SSW,200,0.0,1.0,57,0.00,,,0.00,VWS V14.01,2013-02-20 12:40:00,
2013-02-20 07:41:00,32.1,18.6,30.00,SSW,200,1.0,2.0,57,0.00,,,0.00,VWS V14.01,2013-02-20 12:41:00,
2013-02-20 07:42:00,32.1,18.6,30.00,WNW,298,0.0,4.0,57,0.00,,,0.00,VWS V14.01,2013-02-20 12:42:00,
2013-02-20 07:43:00,32.1,18.6,30.00,West,278,0.0,2.0,57,0.00,,,0.00,VWS V14.01,2013-02-20 12:43:00,
2013-02-20 07:44:00,32.1,18.2,30.00,West,278,1.0,7.0,56,0.00,,,0.00,VWS V14.01,2013-02-20 12:44:00,
2013-02-20 07:45:00,32.2,18.7,30.00,NW,319,4.0,5.0,57,0.00,,,0.00,VWS V14.01,2013-02-20 12:45:00,
2013-02-20 07:46:00,32.2,18.3,30.00,SW,234,1.0,5.0,56,0.00,,,0.00,VWS V14.01,2013-02-20 12:46:00,
2013-02-20 07:47:00,32.3,18.8,30.00,NW,304,1.0,5.0,57,0.00,,,0.00,VWS V14.01,2013-02-20 12:47:00,
2013-02-20 07:48:00,32.3,18.8,30.00,NW,319,2.0,4.0,57,0.00,,,0.00,VWS V14.01,2013-02-20 12:48:00,
2013-02-20 07:49:00,32.3,18.4,30.00,NNW,339,2.0,4.0,56,0.00,,,0.00,VWS V14.01,2013-02-20 12:49:00,
2013-02-20 07:50:00,32.3,18.4,30.00,West,276,0.0,2.0,56,0.00,,,0.00,VWS V14.01,2013-02-20 12:50:00,
2013-02-20 07:51:00,32.4,18.5,30.00,NE,44,1.0,2.0,56,0.00,,,0.00,VWS V14.01,2013-02-20 12:51:00,
2013-02-20 07:52:00,32.4,18.9,30.00,West,278,2.0,5.0,57,0.00,,,0.00,VWS V14.01,2013-02-20 12:52:00,
2013-02-20 07:53:00,32.4,18.5,30.00,NW,319,1.0,4.0,56,0.00,,,0.00,VWS V14.01,2013-02-20 12:53:00,
2013-02-20 07:54:00,32.4,18.5,30.00,WNW,299,1.0,3.0,56,0.00,,,0.00,VWS V14.01,2013-02-20 12:54:00,
2013-02-20 07:55:00,32.4,18.0,30.00,West,279,3.0,3.0,55,0.00,,,0.00,VWS V14.01,2013-02-20 12:55:00,
2013-02-20 07:56:00,32.5,18.1,30.00,WSW,240,2.0,7.0,55,0.00,,,0.00,VWS V14.01,2013-02-20 12:56:00,
2013-02-20 07:57:00,32.5,18.1,30.00,WNW,298,0.0,3.0,55,0.00,,,0.00,VWS V14.01,2013-02-20 12:57:00,
2013-02-20 07:58:00,32.5,18.6,30.00,WNW,298,1.0,8.0,56,0.00,,,0.00,VWS V14.01,2013-02-20 12:58:00,
2013-02-20 07:59:00,32.5,18.1,30.00,West,273,2.0,4.0,55,0.00,,,0.00,VWS V14.01,2013-02-20 12:59:00,
2013-02-20 08:00:00,32.4,18.0,30.00,North,9,2.0,9.0,55,0.00,,,0.00,VWS V14.01,2013-02-20 13:00:00,
2013-02-20 08:01:00,32.4,18.0,30.00,West,262,1.0,7.0,55,0.00,,,0.00,VWS V14.01,2013-02-20 13:01:00,
2013-02-20 08:02:00,32.4,18.0,30.00,WSW,254,1.0,5.0,55,0.00,,,0.00,VWS V14.01,2013-02-20 13:02:00,
2013-02-20 08:03:00,32.4,18.0,30.00,West,260,4.0,5.0,55,0.00,,,0.00,VWS V14.01,2013-02-20 13:03:00,
2013-02-20 08:04:00,32.4,18.0,30.00,WSW,256,2.0,11.0,55,0.00,,,0.00,VWS V14.01,2013-02-20 13:04:00,
2013-02-20 08:05:00,32.4,18.0,30.00,SE,145,0.0,2.0,55,0.00,,,0.00,VWS V14.01,2013-02-20 13:05:00,
2013-02-20 08:06:00,32.4,18.0,30.00,SSE,165,1.0,2.0,55,0.00,,,0.00,VWS V14.01,2013-02-20 13:06:00,
2013-02-20 08:07:00,32.4,18.0,30.00,NW,321,2.0,8.0,55,0.00,,,0.00,VWS V14.01,2013-02-20 13:07:00,
2013-02-20 08:08:00,32.4,18.0,30.00,NW,316,2.0,2.0,55,0.00,,,0.00,VWS V14.01,2013-02-20 13:08:00,
2013-02-20 08:09:00,32.3,18.0,30.00,WNW,288,2.0,7.0,55,0.00,,,0.00,VWS V14.01,2013-02-20 13:09:00,
2013-02-20 08:10:00,32.3,18.0,30.00,NW,319,1.0,4.0,55,0.00,,,0.00,VWS V14.01,2013-02-20 13:10:00,
2013-02-20 08:11:00,32.3,18.0,30.00,NW,317,0.0,7.0,55,0.00,,,0.00,VWS V14.01,2013-02-20 13:11:00,
2013-02-20 08:12:00,32.3,18.0,30.00,SW,225,0.0,2.0,55,0.00,,,0.00,VWS V14.01,2013-02-20 13:12:00,
2013-02-20 08:13:00,32.4,18.5,30.00,SW,225,0.0,1.0,56,0.00,,,0.00,VWS V14.01,2013-02-20 13:13:00,
2013-02-20 08:14:00,32.4,18.5,30.00,SW,225,0.0,1.0,56,0.00,,,0.00,VWS V14.01,2013-02-20 13:14:00,
2013-02-20 08:15:00,32.4,18.5,30.01,West,280,5.0,8.0,56,0.00,,,0.00,VWS V14.01,2013-02-20 13:15:00,
2013-02-20 08:16:00,32.4,18.0,30.00,West,272,2.0,5.0,55,0.00,,,0.00,VWS V14.01,2013-02-20 13:16:00,
2013-02-20 08:17:00,32.5,18.6,30.00,WNW,282,0.0,4.0,56,0.00,,,0.00,VWS V14.01,2013-02-20 13:17:00,
2013-02-20 08:18:00,32.5,18.6,30.00,NW,319,2.0,2.0,56,0.00,,,0.00,VWS V14.01,2013-02-20 13:18:00,
2013-02-20 08:19:00,32.5,18.6,30.00,NNW,341,0.0,5.0,56,0.00,,,0.00,VWS V14.01,2013-02-20 13:19:00,
2013-02-20 08:20:00,32.6,18.7,30.00,ENE,57,4.0,7.0,56,0.00,,,0.00,VWS V14.01,2013-02-20 13:20:00,
2013-02-20 08:21:00,32.7,18.8,30.00,NW,320,2.0,6.0,56,0.00,,,0.00,VWS V14.01,2013-02-20 13:21:00,
2013-02-20 08:22:00,32.8,18.8,30.00,NNE,14,3.0,4.0,56,0.00,,,0.00,VWS V14.01,2013-02-20 13:22:00,
2013-02-20 08:23:00,32.8,18.8,30.00,WSW,250,4.0,8.0,56,0.00,,,0.00,VWS V14.01,2013-02-20 13:23:00,
2013-02-20 08:24:00,32.9,18.9,30.00,NNE,15,8.0,8.0,56,0.00,,,0.00,VWS V14.01,2013-02-20 13:24:00,
2013-02-20 08:25:00,32.9,18.5,30.00,West,265,4.0,10.0,55,0.00,,,0.00,VWS V14.01,2013-02-20 13:25:00,
2013-02-20 08:26:00,33.0,18.6,30.00,NNE,15,0.0,4.0,55,0.00,,,0.00,VWS V14.01,2013-02-20 13:26:00,
2013-02-20 08:27:00,33.0,19.0,30.00,WSW,252,2.0,6.0,56,0.00,,,0.00,VWS V14.01,2013-02-20 13:27:00,
2013-02-20 08:28:00,33.1,19.1,30.00,NNW,334,1.0,2.0,56,0.00,,,0.00,VWS V14.01,2013-02-20 13:28:00,
2013-02-20 08:29:00,33.1,19.1,30.00,West,262,0.0,2.0,56,0.00,,,0.00,VWS V14.01,2013-02-20 13:29:00,
2013-02-20 08:30:00,33.2,19.2,30.01,WNW,296,1.0,4.0,56,0.00,,,0.00,VWS V14.01,2013-02-20 13:30:00,
2013-02-20 08:31:00,33.2,19.2,30.01,NW,306,0.0,2.0,56,0.00,,,0.00,VWS V14.01,2013-02-20 13:31:00,
2013-02-20 08:32:00,33.2,19.2,30.01,WNW,298,6.0,7.0,56,0.00,,,0.00,VWS V14.01,2013-02-20 13:32:00,
2013-02-20 08:33:00,33.2,18.8,30.01,NW,311,0.0,6.0,55,0.00,,,0.00,VWS V14.01,2013-02-20 13:33:00,
2013-02-20 08:34:00,33.2,19.2,30.00,NW,315,0.0,2.0,56,0.00,,,0.00,VWS V14.01,2013-02-20 13:34:00,
2013-02-20 08:35:00,33.2,18.8,30.01,WNW,289,1.0,2.0,55,0.00,,,0.00,VWS V14.01,2013-02-20 13:35:00,
2013-02-20 08:36:00,33.2,19.2,30.01,West,271,0.0,4.0,56,0.00,,,0.00,VWS V14.01,2013-02-20 13:36:00,
2013-02-20 08:37:00,33.2,19.2,30.01,WNW,290,1.0,2.0,56,0.00,,,0.00,VWS V14.01,2013-02-20 13:37:00,
2013-02-20 08:38:00,33.1,19.1,30.01,WNW,297,3.0,5.0,56,0.00,,,0.00,VWS V14.01,2013-02-20 13:38:00,
2013-02-20 08:39:00,33.2,19.2,30.00,WNW,288,3.0,5.0,56,0.00,,,0.00,VWS V14.01,2013-02-20 13:39:00,
2013-02-20 08:40:00,33.2,19.2,30.01,WSW,240,5.0,5.0,56,0.00,,,0.00,VWS V14.01,2013-02-20 13:40:00,
2013-02-20 08:41:00,33.2,18.8,30.01,WNW,290,4.0,11.0,55,0.00,,,0.00,VWS V14.01,2013-02-20 13:41:00,
2013-02-20 08:42:00,33.2,18.8,30.00,WNW,295,1.0,4.0,55,0.00,,,0.00,VWS V14.01,2013-02-20 13:42:00,
2013-02-20 08:43:00,33.2,18.8,30.00,NW,325,5.0,6.0,55,0.00,,,0.00,VWS V14.01,2013-02-20 13:43:00,
2013-02-20 08:44:00,33.3,18.9,30.01,West,270,2.0,8.0,55,0.00,,,0.00,VWS V14.01,2013-02-20 13:44:00,
2013-02-20 08:45:00,33.3,18.9,30.00,NW,311,4.0,6.0,55,0.00,,,0.00,VWS V14.01,2013-02-20 13:45:00,
2013-02-20 08:46:00,33.4,19.0,30.01,SW,227,5.0,6.0,55,0.00,,,0.00,VWS V14.01,2013-02-20 13:46:00,
2013-02-20 08:47:00,33.4,19.0,30.00,WNW,298,3.0,8.0,55,0.00,,,0.00,VWS V14.01,2013-02-20 13:47:00,
2013-02-20 08:48:00,33.4,19.0,30.00,NW,315,4.0,9.0,55,0.00,,,0.00,VWS V14.01,2013-02-20 13:48:00,
2013-02-20 08:49:00,33.4,19.0,30.00,NW,312,5.0,8.0,55,0.00,,,0.00,VWS V14.01,2013-02-20 13:49:00,
2013-02-20 08:50:00,33.4,19.0,30.00,West,263,4.0,8.0,55,0.00,,,0.00,VWS V14.01,2013-02-20 13:50:00,
2013-02-20 08:51:00,33.4,19.0,30.00,WNW,288,1.0,5.0,55,0.00,,,0.00,VWS V14.01,2013-02-20 13:51:00,
2013-02-20 08:52:00,33.5,19.1,30.00,West,274,1.0,4.0,55,0.00,,,0.00,VWS V14.01,2013-02-20 13:52:00,
2013-02-20 08:53:00,33.5,19.1,30.00,West,281,0.0,4.0,55,0.00,,,0.00,VWS V14.01,2013-02-20 13:53:00,
2013-02-20 08:54:00,33.6,19.6,30.00,ENE,65,4.0,6.0,56,0.00,,,0.00,VWS V14.01,2013-02-20 13:54:00,
2013-02-20 08:55:00,33.7,19.3,30.00,WSW,246,9.0,9.0,55,0.00,,,0.00,VWS V14.01,2013-02-20 13:55:00,
2013-02-20 08:56:00,33.8,19.4,30.00,West,280,0.0,8.0,55,0.00,,,0.00,VWS V14.01,2013-02-20 13:56:00,
2013-02-20 08:57:00,33.9,19.9,30.01,WNW,300,1.0,7.0,56,0.00,,,0.00,VWS V14.01,2013-02-20 13:57:00,
2013-02-20 08:58:00,34.0,19.5,30.00,WNW,282,5.0,5.0,55,0.00,,,0.00,VWS V14.01,2013-02-20 13:58:00,
2013-02-20 08:59:00,34.1,19.2,30.00,WNW,290,2.0,6.0,54,0.00,,,0.00,VWS V14.01,2013-02-20 13:59:00,
2013-02-20 09:00:00,34.1,19.2,30.00,WSW,246,3.0,4.0,54,0.00,,,0.00,VWS V14.01,2013-02-20 14:00:00,
2013-02-20 09:01:00,34.2,19.3,30.00,West,261,1.0,4.0,54,0.00,,,0.00,VWS V14.01,2013-02-20 14:01:00,
2013-02-20 09:02:00,34.3,19.4,30.00,West,271,1.0,5.0,54,0.00,,,0.00,VWS V14.01,2013-02-20 14:02:00,
2013-02-20 09:03:00,34.3,19.4,30.01,NW,326,2.0,2.0,54,0.00,,,0.00,VWS V14.01,2013-02-20 14:03:00,
2013-02-20 09:04:00,34.4,19.0,30.01,West,265,5.0,7.0,53,0.00,,,0.00,VWS V14.01,2013-02-20 14:04:00,
2013-02-20 09:05:00,34.4,19.0,30.00,NNW,333,0.0,5.0,53,0.00,,,0.00,VWS V14.01,2013-02-20 14:05:00,
2013-02-20 09:06:00,34.4,19.0,30.00,West,270,2.0,2.0,53,0.00,,,0.00,VWS V14.01,2013-02-20 14:06:00,
2013-02-20 09:07:00,34.5,19.1,30.00,WSW,242,8.0,8.0,53,0.00,,,0.00,VWS V14.01,2013-02-20 14:07:00,
2013-02-20 09:08:00,34.5,18.7,30.00,WNW,294,2.0,9.0,52,0.00,,,0.00,VWS V14.01,2013-02-20 14:08:00,
2013-02-20 09:09:00,34.5,18.7,30.00,WSW,257,8.0,8.0,52,0.00,,,0.00,VWS V14.01,2013-02-20 14:09:00,
2013-02-20 09:10:00,34.5,18.7,30.01,SW,232,1.0,5.0,52,0.00,,,0.00,VWS V14.01,2013-02-20 14:10:00,
2013-02-20 09:11:00,34.5,18.7,30.00,WNW,294,1.0,3.0,52,0.00,,,0.00,VWS V14.01,2013-02-20 14:11:00,
2013-02-20 09:12:00,34.5,19.1,30.01,North,360,4.0,8.0,53,0.00,,,0.00,VWS V14.01,2013-02-20 14:12:00,
2013-02-20 09:13:00,34.5,18.7,30.00,SW,231,2.0,4.0,52,0.00,,,0.00,VWS V14.01,2013-02-20 14:13:00,
2013-02-20 09:14:00,34.4,19.0,30.00,NW,319,4.0,4.0,53,0.00,,,0.00,VWS V14.01,2013-02-20 14:14:00,
2013-02-20 09:15:00,34.4,18.6,30.01,WNW,283,1.0,6.0,52,0.00,,,0.00,VWS V14.01,2013-02-20 14:15:00,
2013-02-20 09:16:00,34.4,18.6,30.00,North,350,1.0,5.0,52,0.00,,,0.00,VWS V14.01,2013-02-20 14:16:00,
2013-02-20 09:17:00,34.4,18.6,30.01,SW,232,0.0,4.0,52,0.00,,,0.00,VWS V14.01,2013-02-20 14:17:00,
2013-02-20 09:18:00,34.4,19.0,30.01,NW,304,4.0,4.0,53,0.00,,,0.00,VWS V14.01,2013-02-20 14:18:00,
2013-02-20 09:19:00,34.4,19.0,30.01,WNW,300,6.0,6.0,53,0.00,,,0.00,VWS V14.01,2013-02-20 14:19:00,
2013-02-20 09:20:00,34.3,18.5,30.01,NNW,327,0.0,9.0,52,0.00,,,0.00,VWS V14.01,2013-02-20 14:20:00,
2013-02-20 09:21:00,34.3,18.5,30.01,WNW,290,4.0,7.0,52,0.00,,,0.00,VWS V14.01,2013-02-20 14:21:00,
2013-02-20 09:22:00,34.2,18.4,30.01,NNE,17,4.0,5.0,52,0.00,,,0.00,VWS V14.01,2013-02-20 14:22:00,
2013-02-20 09:23:00,34.1,18.3,30.01,West,272,6.0,8.0,52,0.00,,,0.00,VWS V14.01,2013-02-20 14:23:00,
2013-02-20 09:24:00,34.0,18.7,30.01,West,267,2.0,7.0,53,0.00,,,0.00,VWS V14.01,2013-02-20 14:24:00,
2013-02-20 09:25:00,33.9,18.6,30.01,ENE,74,9.0,9.0,53,0.00,,,0.00,VWS V14.01,2013-02-20 14:25:00,
2013-02-20 09:26:00,33.8,18.5,30.01,WNW,292,4.0,11.0,53,0.00,,,0.00,VWS V14.01,2013-02-20 14:26:00,
2013-02-20 09:27:00,33.7,18.8,30.02,NNW,331,1.0,5.0,54,0.00,,,0.00,VWS V14.01,2013-02-20 14:27:00,
2013-02-20 09:28:00,33.6,19.2,30.01,West,265,2.0,5.0,55,0.00,,,0.00,VWS V14.01,2013-02-20 14:28:00,
2013-02-20 09:29:00,33.6,19.2,30.01,NNE,22,2.0,3.0,55,0.00,,,0.00,VWS V14.01,2013-02-20 14:29:00,
2013-02-20 09:30:00,33.5,19.1,30.01,North,355,5.0,7.0,55,0.00,,,0.00,VWS V14.01,2013-02-20 14:30:00,
2013-02-20 09:31:00,33.5,19.1,30.01,WSW,245,1.0,8.0,55,0.00,,,0.00,VWS V14.01,2013-02-20 14:31:00,
2013-02-20 09:32:00,33.5,19.1,30.01,NW,319,1.0,2.0,55,0.00,,,0.00,VWS V14.01,2013-02-20 14:32:00,
2013-02-20 09:33:00,33.5,18.6,30.01,North,355,2.0,8.0,54,0.00,,,0.00,VWS V14.01,2013-02-20 14:33:00,
2013-02-20 09:34:00,33.5,18.6,30.01,North,11,4.0,4.0,54,0.00,,,0.00,VWS V14.01,2013-02-20 14:34:00,
2013-02-20 09:35:00,33.5,18.6,30.01,North,9,0.0,4.0,54,0.00,,,0.00,VWS V14.01,2013-02-20 14:35:00,
2013-02-20 09:36:00,33.6,18.7,30.01,WSW,248,0.0,2.0,54,0.00,,,0.00,VWS V14.01,2013-02-20 14:36:00,
2013-02-20 09:37:00,33.7,19.3,30.01,NW,319,1.0,2.0,55,0.00,,,0.00,VWS V14.01,2013-02-20 14:37:00,
2013-02-20 09:38:00,33.8,19.8,30.01,NNW,331,1.0,3.0,56,0.00,,,0.00,VWS V14.01,2013-02-20 14:38:00,
2013-02-20 09:39:00,33.9,19.5,30.01,SW,235,1.0,1.0,55,0.00,,,0.00,VWS V14.01,2013-02-20 14:39:00,
2013-02-20 09:40:00,34.1,19.6,30.01,WNW,290,0.0,2.0,55,0.00,,,0.00,VWS V14.01,2013-02-20 14:40:00,
2013-02-20 09:41:00,34.3,19.8,30.01,NW,319,2.0,2.0,55,0.00,,,0.00,VWS V14.01,2013-02-20 14:41:00,
2013-02-20 09:42:00,34.4,19.9,30.01,NNE,13,2.0,7.0,55,0.00,,,0.00,VWS V14.01,2013-02-20 14:42:00,
2013-02-20 09:43:00,34.5,19.6,30.01,NNE,15,0.0,4.0,54,0.00,,,0.00,VWS V14.01,2013-02-20 14:43:00,
2013-02-20 09:44:00,34.6,19.7,30.02,NE,46,1.0,4.0,54,0.00,,,0.00,VWS V14.01,2013-02-20 14:44:00,
2013-02-20 09:45:00,34.7,19.3,30.02,NE,43,5.0,10.0,53,0.00,,,0.00,VWS V14.01,2013-02-20 14:45:00,
2013-02-20 09:46:00,34.8,19.0,30.02,WNW,282,3.0,5.0,52,0.00,,,0.00,VWS V14.01,2013-02-20 14:46:00,
2013-02-20 09:47:00,34.8,19.4,30.02,West,280,2.0,2.0,53,0.00,,,0.00,VWS V14.01,2013-02-20 14:47:00,
2013-02-20 09:48:00,34.9,20.0,30.02,NW,309,4.0,7.0,54,0.00,,,0.00,VWS V14.01,2013-02-20 14:48:00,
2013-02-20 09:49:00,34.9,19.1,30.02,SSW,209,2.0,5.0,52,0.00,,,0.00,VWS V14.01,2013-02-20 14:49:00,
2013-02-20 09:50:00,34.8,18.5,30.02,West,260,3.0,9.0,51,0.00,,,0.00,VWS V14.01,2013-02-20 14:50:00,
2013-02-20 09:51:00,34.7,18.4,30.02,WNW,291,4.0,6.0,51,0.00,,,0.00,VWS V14.01,2013-02-20 14:51:00,
2013-02-20 09:52:00,34.7,18.9,30.02,WNW,288,7.0,7.0,52,0.00,,,0.00,VWS V14.01,2013-02-20 14:52:00,
2013-02-20 09:53:00,34.7,18.9,30.02,North,9,0.0,7.0,52,0.00,,,0.00,VWS V14.01,2013-02-20 14:53:00,
2013-02-20 09:54:00,34.6,18.8,30.02,West,279,5.0,6.0,52,0.00,,,0.00,VWS V14.01,2013-02-20 14:54:00,
2013-02-20 09:55:00,34.6,18.8,30.02,WNW,289,1.0,7.0,52,0.00,,,0.00,VWS V14.01,2013-02-20 14:55:00,
2013-02-20 09:56:00,34.6,18.8,30.02,NW,319,4.0,5.0,52,0.00,,,0.00,VWS V14.01,2013-02-20 14:56:00,
2013-02-20 09:57:00,34.7,18.9,30.02,NW,324,2.0,10.0,52,0.00,,,0.00,VWS V14.01,2013-02-20 14:57:00,
2013-02-20 09:58:00,34.6,18.8,30.02,NW,323,2.0,6.0,52,0.00,,,0.00,VWS V14.01,2013-02-20 14:58:00,
2013-02-20 09:59:00,34.6,18.3,30.02,NW,321,4.0,8.0,51,0.00,,,0.00,VWS V14.01,2013-02-20 14:59:00,
2013-02-20 10:00:00,34.5,18.2,30.02,North,355,1.0,9.0,51,0.00,,,0.00,VWS V14.01,2013-02-20 15:00:00,
2013-02-20 10:01:00,34.4,18.2,30.02,West,261,5.0,5.0,51,0.00,,,0.00,VWS V14.01,2013-02-20 15:01:00,
2013-02-20 10:02:00,34.4,18.6,30.02,WNW,297,0.0,4.0,52,0.00,,,0.00,VWS V14.01,2013-02-20 15:02:00,
2013-02-20 10:03:00,34.3,18.5,30.02,West,278,1.0,6.0,52,0.00,,,0.00,VWS V14.01,2013-02-20 15:03:00,
2013-02-20 10:04:00,34.3,18.5,30.02,WNW,287,2.0,5.0,52,0.00,,,0.00,VWS V14.01,2013-02-20 15:04:00,
2013-02-20 10:05:00,34.3,19.4,30.02,WNW,292,4.0,5.0,54,0.00,,,0.00,VWS V14.01,2013-02-20 15:05:00,
2013-02-20 10:06:00,34.4,19.0,30.02,NW,305,1.0,4.0,53,0.00,,,0.00,VWS V14.01,2013-02-20 15:06:00,
2013-02-20 10:07:00,34.4,19.0,30.02,NNE,28,4.0,4.0,53,0.00,,,0.00,VWS V14.01,2013-02-20 15:07:00,
2013-02-20 10:08:00,34.4,19.0,30.02,NW,323,4.0,4.0,53,0.00,,,0.00,VWS V14.01,2013-02-20 15:08:00,
2013-02-20 10:09:00,34.4,19.0,30.02,North,355,2.0,8.0,53,0.00,,,0.00,VWS V14.01,2013-02-20 15:09:00,
2013-02-20 10:10:00,34.5,18.7,30.02,WNW,302,1.0,6.0,52,0.00,,,0.00,VWS V14.01,2013-02-20 15:10:00,
2013-02-20 10:11:00,34.4,18.6,30.02,NNW,327,4.0,8.0,52,0.00,,,0.00,VWS V14.01,2013-02-20 15:11:00,
2013-02-20 10:12:00,34.4,18.2,30.02,NNW,344,5.0,7.0,51,0.00,,,0.00,VWS V14.01,2013-02-20 15:12:00,
2013-02-20 10:13:00,34.3,18.5,30.02,ESE,113,0.0,6.0,52,0.00,,,0.00,VWS V14.01,2013-02-20 15:13:00,
2013-02-20 10:14:00,34.3,18.5,30.02,ESE,113,0.0,0.0,52,0.00,,,0.00,VWS V14.01,2013-02-20 15:14:00,
2013-02-20 10:15:00,34.2,18.4,30.02,SW,236,3.0,7.0,52,0.00,,,0.00,VWS V14.01,2013-02-20 15:15:00,
2013-02-20 10:16:00,34.2,18.4,30.02,South,170,0.0,4.0,52,0.00,,,0.00,VWS V14.01,2013-02-20 15:16:00,
2013-02-20 10:17:00,34.2,18.4,30.02,NW,319,1.0,4.0,52,0.00,,,0.00,VWS V14.01,2013-02-20 15:17:00,
2013-02-20 10:18:00,34.2,18.9,30.02,North,5,2.0,6.0,53,0.00,,,0.00,VWS V14.01,2013-02-20 15:18:00,
2013-02-20 10:19:00,34.1,18.3,30.02,NW,311,1.0,4.0,52,0.00,,,0.00,VWS V14.01,2013-02-20 15:19:00,
2013-02-20 10:20:00,34.1,18.3,30.02,West,277,2.0,4.0,52,0.00,,,0.00,VWS V14.01,2013-02-20 15:20:00,
2013-02-20 10:21:00,34.0,18.2,30.02,West,272,4.0,5.0,52,0.00,,,0.00,VWS V14.01,2013-02-20 15:21:00,
2013-02-20 10:22:00,34.0,18.2,30.02,South,185,2.0,5.0,52,0.00,,,0.00,VWS V14.01,2013-02-20 15:22:00,
2013-02-20 10:23:00,33.9,18.1,30.02,SW,215,0.0,3.0,52,0.00,,,0.00,VWS V14.01,2013-02-20 15:23:00,
2013-02-20 10:24:00,33.9,18.6,30.02,NW,321,4.0,4.0,53,0.00,,,0.00,VWS V14.01,2013-02-20 15:24:00,
2013-02-20 10:25:00,33.9,18.6,30.02,NW,304,2.0,4.0,53,0.00,,,0.00,VWS V14.01,2013-02-20 15:25:00,
2013-02-20 10:26:00,33.9,18.6,30.02,WNW,300,2.0,2.0,53,0.00,,,0.00,VWS V14.01,2013-02-20 15:26:00,
2013-02-20 10:27:00,33.8,18.5,30.02,WNW,296,0.0,2.0,53,0.00,,,0.00,VWS V14.01,2013-02-20 15:27:00,
2013-02-20 10:28:00,33.8,18.5,30.02,NE,40,1.0,2.0,53,0.00,,,0.00,VWS V14.01,2013-02-20 15:28:00,
2013-02-20 10:29:00,33.8,18.0,30.02,East,90,0.0,3.0,52,0.00,,,0.00,VWS V14.01,2013-02-20 15:29:00,
2013-02-20 10:30:00,33.8,18.5,30.02,SSW,198,1.0,5.0,53,0.00,,,0.00,VWS V14.01,2013-02-20 15:30:00,
2013-02-20 10:31:00,33.8,18.5,30.02,WNW,296,3.0,3.0,53,0.00,,,0.00,VWS V14.01,2013-02-20 15:31:00,
2013-02-20 10:32:00,33.8,18.5,30.02,NW,317,0.0,4.0,53,0.00,,,0.00,VWS V14.01,2013-02-20 15:32:00,
2013-02-20 10:33:00,33.7,18.4,30.02,NW,317,0.0,1.0,53,0.00,,,0.00,VWS V14.01,2013-02-20 15:33:00,
2013-02-20 10:34:00,33.7,18.4,30.02,NW,318,0.0,1.0,53,0.00,,,0.00,VWS V14.01,2013-02-20 15:34:00,
2013-02-20 10:35:00,33.7,18.4,30.01,NW,307,3.0,4.0,53,0.00,,,0.00,VWS V14.01,2013-02-20 15:35:00,
2013-02-20 10:36:00,33.7,18.4,30.02,SSW,205,6.0,6.0,53,0.00,,,0.00,VWS V14.01,2013-02-20 15:36:00,
2013-02-20 10:37:00,33.7,18.4,30.01,NW,309,4.0,5.0,53,0.00,,,0.00,VWS V14.01,2013-02-20 15:37:00,
2013-02-20 10:38:00,33.7,18.4,30.02,NNW,333,4.0,8.0,53,0.00,,,0.00,VWS V14.01,2013-02-20 15:38:00,
2013-02-20 10:39:00,33.7,18.0,30.01,NW,304,1.0,7.0,52,0.00,,,0.00,VWS V14.01,2013-02-20 15:39:00,
2013-02-20 10:40:00,33.7,18.4,30.01,West,265,2.0,4.0,53,0.00,,,0.00,VWS V14.01,2013-02-20 15:40:00,
2013-02-20 10:41:00,33.7,18.4,30.02,NW,317,4.0,6.0,53,0.00,,,0.00,VWS V14.01,2013-02-20 15:41:00,
2013-02-20 10:42:00,33.7,18.4,30.01,NNW,328,2.0,10.0,53,0.00,,,0.00,VWS V14.01,2013-02-20 15:42:00,
2013-02-20 10:43:00,33.8,18.5,30.02,NW,325,0.0,2.0,53,0.00,,,0.00,VWS V14.01,2013-02-20 15:43:00,
2013-02-20 10:44:00,33.9,19.0,30.01,ENE,59,1.0,2.0,54,0.00,,,0.00,VWS V14.01,2013-02-20 15:44:00,
2013-02-20 10:45:00,33.9,19.0,30.01,NNE,32,5.0,5.0,54,0.00,,,0.00,VWS V14.01,2013-02-20 15:45:00,
2013-02-20 10:46:00,34.1,19.2,30.01,NW,310,3.0,7.0,54,0.00,,,0.00,VWS V14.01,2013-02-20 15:46:00,
2013-02-20 10:47:00,34.3,19.4,30.02,NE,38,4.0,6.0,54,0.00,,,0.00,VWS V14.01,2013-02-20 15:47:00,
2013-02-20 10:48:00,34.4,19.5,30.02,West,277,2.0,7.0,54,0.00,,,0.00,VWS V14.01,2013-02-20 15:48:00,
2013-02-20 10:49:00,34.6,19.7,30.01,WNW,287,0.0,2.0,54,0.00,,,0.00,VWS V14.01,2013-02-20 15:49:00,
2013-02-20 10:50:00,34.7,20.2,30.01,NW,305,3.0,5.0,55,0.00,,,0.00,VWS V14.01,2013-02-20 15:50:00,
2013-02-20 10:51:00,34.9,20.4,30.01,WNW,296,2.0,6.0,55,0.00,,,0.00,VWS V14.01,2013-02-20 15:51:00,
2013-02-20 10:52:00,35.1,19.7,30.01,NNE,14,2.0,8.0,53,0.00,,,0.00,VWS V14.01,2013-02-20 15:52:00,
2013-02-20 10:53:00,35.2,19.4,30.01,WSW,248,11.0,11.0,52,0.00,,,0.00,VWS V14.01,2013-02-20 15:53:00,
2013-02-20 10:54:00,35.4,20.0,30.01,NNW,329,2.0,11.0,53,0.00,,,0.00,VWS V14.01,2013-02-20 15:54:00,
2013-02-20 10:55:00,35.5,20.1,30.02,WSW,240,4.0,5.0,53,0.00,,,0.00,VWS V14.01,2013-02-20 15:55:00,
2013-02-20 10:56:00,35.7,20.3,30.02,NE,53,6.0,8.0,53,0.00,,,0.00,VWS V14.01,2013-02-20 15:56:00,
2013-02-20 10:57:00,35.8,19.5,30.01,West,273,6.0,6.0,51,0.00,,,0.00,VWS V14.01,2013-02-20 15:57:00,
2013-02-20 10:58:00,35.9,19.5,30.02,NNW,340,4.0,11.0,51,0.00,,,0.00,VWS V14.01,2013-02-20 15:58:00,
2013-02-20 10:59:00,36.0,19.6,30.02,WSW,254,1.0,6.0,51,0.00,,,0.00,VWS V14.01,2013-02-20 15:59:00,
2013-02-20 11:00:00,36.0,19.2,30.02,NW,312,7.0,11.0,50,0.00,,,0.00,VWS V14.01,2013-02-20 16:00:00,
2013-02-20 11:01:00,36.0,18.7,30.02,WNW,301,5.0,9.0,49,0.00,,,0.00,VWS V14.01,2013-02-20 16:01:00,
2013-02-20 11:02:00,36.0,19.2,30.02,SW,216,4.0,10.0,50,0.00,,,0.00,VWS V14.01,2013-02-20 16:02:00,
2013-02-20 11:03:00,36.0,19.6,30.02,NNW,338,1.0,4.0,51,0.00,,,0.00,VWS V14.01,2013-02-20 16:03:00,
2013-02-20 11:04:00,36.0,19.6,30.02,NNW,327,2.0,3.0,51,0.00,,,0.00,VWS V14.01,2013-02-20 16:04:00,
2013-02-20 11:05:00,36.1,19.7,30.02,WSW,241,4.0,6.0,51,0.00,,,0.00,VWS V14.01,2013-02-20 16:05:00,
2013-02-20 11:06:00,36.2,19.8,30.02,NW,320,3.0,5.0,51,0.00,,,0.00,VWS V14.01,2013-02-20 16:06:00,
2013-02-20 11:07:00,36.2,19.4,30.02,NW,310,2.0,6.0,50,0.00,,,0.00,VWS V14.01,2013-02-20 16:07:00,
2013-02-20 11:08:00,36.3,19.5,30.02,NNW,336,2.0,4.0,50,0.00,,,0.00,VWS V14.01,2013-02-20 16:08:00,
2013-02-20 11:09:00,36.3,19.5,30.02,WNW,282,1.0,4.0,50,0.00,,,0.00,VWS V14.01,2013-02-20 16:09:00,
2013-02-20 11:10:00,36.3,19.9,30.02,WNW,296,4.0,5.0,51,0.00,,,0.00,VWS V14.01,2013-02-20 16:10:00,
2013-02-20 11:11:00,36.4,20.0,30.02,WNW,284,1.0,5.0,51,0.00,,,0.00,VWS V14.01,2013-02-20 16:11:00,
2013-02-20 11:12:00,36.4,19.1,30.02,West,264,5.0,5.0,49,0.00,,,0.00,VWS V14.01,2013-02-20 16:12:00,
2013-02-20 11:13:00,36.4,19.1,30.02,West,262,1.0,6.0,49,0.00,,,0.00,VWS V14.01,2013-02-20 16:13:00,
2013-02-20 11:14:00,36.4,19.5,30.02,West,261,2.0,2.0,50,0.00,,,0.00,VWS V14.01,2013-02-20 16:14:00,
2013-02-20 11:15:00,36.3,19.5,30.02,West,272,1.0,2.0,50,0.00,,,0.00,VWS V14.01,2013-02-20 16:15:00,
2013-02-20 11:16:00,36.3,19.5,30.02,West,259,2.0,2.0,50,0.00,,,0.00,VWS V14.01,2013-02-20 16:16:00,
2013-02-20 11:17:00,36.2,19.4,30.02,West,259,1.0,2.0,50,0.00,,,0.00,VWS V14.01,2013-02-20 16:17:00,
2013-02-20 11:18:00,36.2,19.4,30.02,West,259,0.0,2.0,50,0.00,,,0.00,VWS V14.01,2013-02-20 16:18:00,
2013-02-20 11:19:00,36.2,19.4,30.02,WNW,302,1.0,2.0,50,0.00,,,0.00,VWS V14.01,2013-02-20 16:19:00,
2013-02-20 11:20:00,36.2,19.4,30.02,NW,309,5.0,6.0,50,0.00,,,0.00,VWS V14.01,2013-02-20 16:20:00,
2013-02-20 11:21:00,36.1,19.3,30.02,NW,315,5.0,5.0,50,0.00,,,0.00,VWS V14.01,2013-02-20 16:21:00,
2013-02-20 11:22:00,36.0,18.7,30.02,SSW,213,4.0,8.0,49,0.00,,,0.00,VWS V14.01,2013-02-20 16:22:00,
2013-02-20 11:23:00,35.9,18.6,30.02,WSW,252,2.0,5.0,49,0.00,,,0.00,VWS V14.01,2013-02-20 16:23:00,
2013-02-20 11:24:00,35.9,19.1,30.02,West,277,3.0,8.0,50,0.00,,,0.00,VWS V14.01,2013-02-20 16:24:00,
2013-02-20 11:25:00,35.8,19.0,30.02,SW,227,2.0,5.0,50,0.00,,,0.00,VWS V14.01,2013-02-20 16:25:00,
2013-02-20 11:26:00,35.7,19.4,30.02,NNW,343,4.0,6.0,51,0.00,,,0.00,VWS V14.01,2013-02-20 16:26:00,
2013-02-20 11:27:00,35.6,18.8,30.02,West,270,1.0,7.0,50,0.00,,,0.00,VWS V14.01,2013-02-20 16:27:00,
2013-02-20 11:28:00,35.5,18.7,30.02,West,281,3.0,6.0,50,0.00,,,0.00,VWS V14.01,2013-02-20 16:28:00,
2013-02-20 11:29:00,35.4,18.6,30.02,WSW,250,4.0,4.0,50,0.00,,,0.00,VWS V14.01,2013-02-20 16:29:00,
2013-02-20 11:30:00,35.3,19.0,30.02,North,360,0.0,4.0,51,0.00,,,0.00,VWS V14.01,2013-02-20 16:30:00,
2013-02-20 11:31:00,35.2,18.9,30.02,WNW,282,3.0,3.0,51,0.00,,,0.00,VWS V14.01,2013-02-20 16:31:00,
2013-02-20 11:32:00,35.2,18.9,30.02,West,281,1.0,3.0,51,0.00,,,0.00,VWS V14.01,2013-02-20 16:32:00,
2013-02-20 11:33:00,35.2,18.9,30.02,NNW,328,4.0,4.0,51,0.00,,,0.00,VWS V14.01,2013-02-20 16:33:00,
2013-02-20 11:34:00,35.1,18.8,30.02,North,350,2.0,6.0,51,0.00,,,0.00,VWS V14.01,2013-02-20 16:34:00,
2013-02-20 11:35:00,35.1,18.8,30.01,NW,306,3.0,3.0,51,0.00,,,0.00,VWS V14.01,2013-02-20 16:35:00,
2013-02-20 11:36:00,35.0,18.7,30.02,North,360,0.0,5.0,51,0.00,,,0.00,VWS V14.01,2013-02-20 16:36:00,
2013-02-20 11:37:00,35.0,19.2,30.02,North,360,1.0,2.0,52,0.00,,,0.00,VWS V14.01,2013-02-20 16:37:00,
2013-02-20 11:38:00,34.9,19.5,30.02,ENE,78,0.0,1.0,53,0.00,,,0.00,VWS V14.01,2013-02-20 16:38:00,
2013-02-20 11:39:00,34.9,19.1,30.02,West,279,3.0,5.0,52,0.00,,,0.00,VWS V14.01,2013-02-20 16:39:00,
2013-02-20 11:40:00,34.9,19.1,30.02,NW,306,0.0,4.0,52,0.00,,,0.00,VWS V14.01,2013-02-20 16:40:00,
2013-02-20 11:41:00,34.8,19.0,30.02,WSW,246,4.0,4.0,52,0.00,,,0.00,VWS V14.01,2013-02-20 16:41:00,
2013-02-20 11:42:00,34.8,19.0,30.02,West,264,2.0,4.0,52,0.00,,,0.00,VWS V14.01,2013-02-20 16:42:00,
2013-02-20 11:43:00,34.8,19.0,30.01,West,275,1.0,2.0,52,0.00,,,0.00,VWS V14.01,2013-02-20 16:43:00,
2013-02-20 11:44:00,34.8,19.4,30.02,NW,311,1.0,4.0,53,0.00,,,0.00,VWS V14.01,2013-02-20 16:44:00,
2013-02-20 11:45:00,34.7,18.9,30.01,West,261,1.0,3.0,52,0.00,,,0.00,VWS V14.01,2013-02-20 16:45:00,
2013-02-20 11:46:00,34.7,19.3,30.01,NW,319,2.0,3.0,53,0.00,,,0.00,VWS V14.01,2013-02-20 16:46:00,
2013-02-20 11:47:00,34.7,19.3,30.02,NNW,343,4.0,6.0,53,0.00,,,0.00,VWS V14.01,2013-02-20 16:47:00,
2013-02-20 11:48:00,34.7,18.9,30.02,WNW,288,4.0,7.0,52,0.00,,,0.00,VWS V14.01,2013-02-20 16:48:00,
2013-02-20 11:49:00,34.7,18.9,30.01,NW,316,4.0,5.0,52,0.00,,,0.00,VWS V14.01,2013-02-20 16:49:00,
2013-02-20 11:50:00,34.6,18.8,30.01,West,259,0.0,4.0,52,0.00,,,0.00,VWS V14.01,2013-02-20 16:50:00,
2013-02-20 11:51:00,34.6,18.8,30.02,West,259,0.0,2.0,52,0.00,,,0.00,VWS V14.01,2013-02-20 16:51:00,
2013-02-20 11:52:00,34.6,19.2,30.01,West,275,4.0,5.0,53,0.00,,,0.00,VWS V14.01,2013-02-20 16:52:00,
2013-02-20 11:53:00,34.6,19.2,30.02,West,267,2.0,4.0,53,0.00,,,0.00,VWS V14.01,2013-02-20 16:53:00,
2013-02-20 11:54:00,34.6,19.2,30.01,West,266,1.0,7.0,53,0.00,,,0.00,VWS V14.01,2013-02-20 16:54:00,
2013-02-20 11:55:00,34.6,19.2,30.01,West,280,2.0,4.0,53,0.00,,,0.00,VWS V14.01,2013-02-20 16:55:00,
2013-02-20 11:56:00,34.6,19.2,30.01,WNW,288,2.0,5.0,53,0.00,,,0.00,VWS V14.01,2013-02-20 16:56:00,
2013-02-20 11:57:00,34.6,19.7,30.01,NW,323,1.0,5.0,54,0.00,,,0.00,VWS V14.01,2013-02-20 16:57:00,
2013-02-20 11:58:00,34.6,19.7,30.01,SW,223,2.0,2.0,54,0.00,,,0.00,VWS V14.01,2013-02-20 16:58:00,
2013-02-20 11:59:00,34.6,19.7,30.01,North,9,3.0,5.0,54,0.00,,,0.00,VWS V14.01,2013-02-20 16:59:00,
2013-02-20 12:00:00,34.6,19.2,30.01,NNW,345,2.0,3.0,53,0.00,,,0.00,VWS V14.01,2013-02-20 17:00:00,
2013-02-20 12:01:00,34.7,19.8,30.01,NNW,333,1.0,3.0,54,0.00,,,0.00,VWS V14.01,2013-02-20 17:01:00,
2013-02-20 12:02:00,34.7,19.3,30.01,NNW,347,2.0,6.0,53,0.00,,,0.00,VWS V14.01,2013-02-20 17:02:00,
2013-02-20 12:03:00,34.7,19.3,30.01,NNW,327,5.0,7.0,53,0.00,,,0.00,VWS V14.01,2013-02-20 17:03:00,
2013-02-20 12:04:00,34.7,19.3,30.01,South,173,1.0,5.0,53,0.00,,,0.00,VWS V14.01,2013-02-20 17:04:00,
2013-02-20 12:05:00,34.8,19.9,30.01,WSW,257,0.0,2.0,54,0.00,,,0.00,VWS V14.01,2013-02-20 17:05:00,
2013-02-20 12:06:00,34.8,20.3,30.01,WNW,282,4.0,8.0,55,0.00,,,0.00,VWS V14.01,2013-02-20 17:06:00,
2013-02-20 12:07:00,34.9,20.4,30.01,West,270,7.0,7.0,55,0.00,,,0.00,VWS V14.01,2013-02-20 17:07:00,
2013-02-20 12:08:00,35.0,20.5,30.01,West,259,2.0,7.0,55,0.00,,,0.00,VWS V14.01,2013-02-20 17:08:00,
2013-02-20 12:09:00,35.1,20.6,30.01,WSW,248,4.0,5.0,55,0.00,,,0.00,VWS V14.01,2013-02-20 17:09:00,
2013-02-20 12:10:00,35.2,20.7,30.01,WSW,248,1.0,5.0,55,0.00,,,0.00,VWS V14.01,2013-02-20 17:10:00,
2013-02-20 12:11:00,35.3,20.3,30.01,SW,221,2.0,5.0,54,0.00,,,0.00,VWS V14.01,2013-02-20 17:11:00,
2013-02-20 12:12:00,35.5,21.0,30.01,WSW,257,4.0,6.0,55,0.00,,,0.00,VWS V14.01,2013-02-20 17:12:00,
2013-02-20 12:13:00,35.6,21.0,30.01,NW,313,4.0,5.0,55,0.00,,,0.00,VWS V14.01,2013-02-20 17:13:00,
2013-02-20 12:14:00,35.7,20.7,30.01,NNW,335,2.0,8.0,54,0.00,,,0.00,VWS V14.01,2013-02-20 17:14:00,
2013-02-20 12:15:00,35.8,20.8,30.01,West,274,6.0,9.0,54,0.00,,,0.00,VWS V14.01,2013-02-20 17:15:00,
2013-02-20 12:16:00,35.8,20.8,30.01,NW,307,1.0,6.0,54,0.00,,,0.00,VWS V14.01,2013-02-20 17:16:00,
2013-02-20 12:17:00,35.9,21.3,30.01,West,280,1.0,3.0,55,0.00,,,0.00,VWS V14.01,2013-02-20 17:17:00,
2013-02-20 12:18:00,35.9,21.3,30.01,NNW,338,2.0,4.0,55,0.00,,,0.00,VWS V14.01,2013-02-20 17:18:00,
2013-02-20 12:19:00,36.0,21.4,30.01,North,355,1.0,6.0,55,0.00,,,0.00,VWS V14.01,2013-02-20 17:19:00,
2013-02-20 12:20:00,36.1,21.5,30.00,SSE,166,1.0,2.0,55,0.00,,,0.00,VWS V14.01,2013-02-20 17:20:00,
2013-02-20 12:21:00,36.2,21.6,30.00,North,355,9.0,9.0,55,0.00,,,0.00,VWS V14.01,2013-02-20 17:21:00,
2013-02-20 12:22:00,36.3,20.8,30.00,NW,304,4.0,9.0,53,0.00,,,0.00,VWS V14.01,2013-02-20 17:22:00,
2013-02-20 12:23:00,36.2,20.7,30.00,WNW,295,1.0,4.0,53,0.00,,,0.00,VWS V14.01,2013-02-20 17:23:00,
2013-02-20 12:24:00,36.2,20.7,30.00,NNW,327,1.0,7.0,53,0.00,,,0.00,VWS V14.01,2013-02-20 17:24:00,
2013-02-20 12:25:00,36.2,21.6,30.01,West,261,1.0,2.0,55,0.00,,,0.00,VWS V14.01,2013-02-20 17:25:00,
2013-02-20 12:26:00,36.2,21.6,30.01,WNW,302,4.0,4.0,55,0.00,,,0.00,VWS V14.01,2013-02-20 17:26:00,
2013-02-20 12:27:00,36.3,21.7,30.00,NNW,339,5.0,6.0,55,0.00,,,0.00,VWS V14.01,2013-02-20 17:27:00,
2013-02-20 12:28:00,36.3,21.3,30.00,NW,309,6.0,8.0,54,0.00,,,0.00,VWS V14.01,2013-02-20 17:28:00,
2013-02-20 12:29:00,36.3,21.3,30.00,NNW,335,4.0,6.0,54,0.00,,,0.00,VWS V14.01,2013-02-20 17:29:00,
2013-02-20 12:30:00,36.3,21.3,30.00,NW,321,2.0,9.0,54,0.00,,,0.00,VWS V14.01,2013-02-20 17:30:00,
2013-02-20 12:31:00,36.3,21.3,30.00,West,279,1.0,9.0,54,0.00,,,0.00,VWS V14.01,2013-02-20 17:31:00,
2013-02-20 12:32:00,36.2,20.7,30.00,SW,216,4.0,6.0,53,0.00,,,0.00,VWS V14.01,2013-02-20 17:32:00,
2013-02-20 12:33:00,36.2,21.2,30.00,West,259,6.0,8.0,54,0.00,,,0.00,VWS V14.01,2013-02-20 17:33:00,
2013-02-20 12:34:00,36.2,20.3,30.00,WNW,285,1.0,7.0,52,0.00,,,0.00,VWS V14.01,2013-02-20 17:34:00,
2013-02-20 12:35:00,36.1,20.2,30.00,WNW,296,0.0,2.0,52,0.00,,,0.00,VWS V14.01,2013-02-20 17:35:00,
2013-02-20 12:36:00,36.1,20.6,30.00,WNW,287,1.0,2.0,53,0.00,,,0.00,VWS V14.01,2013-02-20 17:36:00,
2013-02-20 12:37:00,36.1,21.1,30.00,West,259,6.0,6.0,54,0.00,,,0.00,VWS V14.01,2013-02-20 17:37:00,
2013-02-20 12:38:00,36.1,21.1,30.00,West,268,8.0,8.0,54,0.00,,,0.00,VWS V14.01,2013-02-20 17:38:00,
2013-02-20 12:39:00,36.1,20.6,30.00,West,273,5.0,10.0,53,0.00,,,0.00,VWS V14.01,2013-02-20 17:39:00,
2013-02-20 12:40:00,36.0,20.5,30.00,SW,216,4.0,5.0,53,0.00,,,0.00,VWS V14.01,2013-02-20 17:40:00,
2013-02-20 12:41:00,36.0,20.5,30.00,West,268,5.0,8.0,53,0.00,,,0.00,VWS V14.01,2013-02-20 17:41:00,
2013-02-20 12:42:00,36.0,20.5,30.00,WNW,300,0.0,10.0,53,0.00,,,0.00,VWS V14.01,2013-02-20 17:42:00,
2013-02-20 12:43:00,36.0,21.0,30.00,West,265,2.0,2.0,54,0.00,,,0.00,VWS V14.01,2013-02-20 17:43:00,
2013-02-20 12:44:00,36.0,21.4,30.00,NNW,340,4.0,4.0,55,0.00,,,0.00,VWS V14.01,2013-02-20 17:44:00,
2013-02-20 12:45:00,36.1,21.5,30.00,NW,311,4.0,7.0,55,0.00,,,0.00,VWS V14.01,2013-02-20 17:45:00,
2013-02-20 12:46:00,36.1,21.1,30.00,West,279,4.0,8.0,54,0.00,,,0.00,VWS V14.01,2013-02-20 17:46:00,
2013-02-20 12:47:00,36.2,20.7,30.00,NNW,344,5.0,5.0,53,0.00,,,0.00,VWS V14.01,2013-02-20 17:47:00,
2013-02-20 12:48:00,36.2,21.2,30.00,SW,215,4.0,6.0,54,0.00,,,0.00,VWS V14.01,2013-02-20 17:48:00,
2013-02-20 12:49:00,36.2,21.2,30.00,NE,35,5.0,7.0,54,0.00,,,0.00,VWS V14.01,2013-02-20 17:49:00,
2013-02-20 12:50:00,36.2,20.7,30.00,West,259,1.0,6.0,53,0.00,,,0.00,VWS V14.01,2013-02-20 17:50:00,
2013-02-20 12:51:00,36.3,20.8,30.00,WNW,297,1.0,4.0,53,0.00,,,0.00,VWS V14.01,2013-02-20 17:51:00,
2013-02-20 12:52:00,36.3,21.3,30.00,West,260,4.0,4.0,54,0.00,,,0.00,VWS V14.01,2013-02-20 17:52:00,
2013-02-20 12:53:00,36.4,21.4,30.00,WNW,298,3.0,5.0,54,0.00,,,0.00,VWS V14.01,2013-02-20 17:53:00,
2013-02-20 12:54:00,36.5,21.5,30.00,WNW,302,3.0,7.0,54,0.00,,,0.00,VWS V14.01,2013-02-20 17:54:00,
2013-02-20 12:55:00,36.5,21.5,30.00,SE,138,1.0,7.0,54,0.00,,,0.00,VWS V14.01,2013-02-20 17:55:00,
2013-02-20 12:56:00,36.6,21.1,30.00,WNW,301,3.0,11.0,53,0.00,,,0.00,VWS V14.01,2013-02-20 17:56:00,
2013-02-20 12:57:00,36.6,21.1,30.00,NNW,340,2.0,3.0,53,0.00,,,0.00,VWS V14.01,2013-02-20 17:57:00,
2013-02-20 12:58:00,36.6,21.1,30.00,North,5,6.0,6.0,53,0.00,,,0.00,VWS V14.01,2013-02-20 17:58:00,
2013-02-20 12:59:00,36.7,21.2,30.00,NW,318,2.0,7.0,53,0.00,,,0.00,VWS V14.01,2013-02-20 17:59:00,
2013-02-20 13:00:00,36.7,21.2,30.00,WNW,298,6.0,6.0,53,0.00,,,0.00,VWS V14.01,2013-02-20 18:00:00,
2013-02-20 13:01:00,36.8,21.3,30.01,WSW,244,5.0,10.0,53,0.00,,,0.00,VWS V14.01,2013-02-20 18:01:00,
2013-02-20 13:02:00,36.8,20.8,30.01,NE,40,4.0,7.0,52,0.00,,,0.00,VWS V14.01,2013-02-20 18:02:00,
2013-02-20 13:03:00,36.7,20.8,30.00,NW,314,6.0,7.0,52,0.00,,,0.00,VWS V14.01,2013-02-20 18:03:00,
2013-02-20 13:04:00,36.6,20.2,30.00,NNW,347,4.0,6.0,51,0.00,,,0.00,VWS V14.01,2013-02-20 18:04:00,
2013-02-20 13:05:00,36.5,20.1,30.00,WNW,292,4.0,10.0,51,0.00,,,0.00,VWS V14.01,2013-02-20 18:05:00,
2013-02-20 13:06:00,36.4,20.0,30.00,NW,313,1.0,4.0,51,0.00,,,0.00,VWS V14.01,2013-02-20 18:06:00,
2013-02-20 13:07:00,36.2,19.8,30.00,North,355,5.0,9.0,51,0.00,,,0.00,VWS V14.01,2013-02-20 18:07:00,
2013-02-20 13:08:00,36.1,19.7,30.00,NW,314,4.0,5.0,51,0.00,,,0.00,VWS V14.01,2013-02-20 18:08:00,
2013-02-20 13:09:00,36.0,19.6,30.00,WNW,292,1.0,6.0,51,0.00,,,0.00,VWS V14.01,2013-02-20 18:09:00,
2013-02-20 13:10:00,35.8,19.9,30.00,NNW,329,1.0,8.0,52,0.00,,,0.00,VWS V14.01,2013-02-20 18:10:00,
2013-02-20 13:11:00,35.7,20.3,30.00,NNW,348,4.0,5.0,53,0.00,,,0.00,VWS V14.01,2013-02-20 18:11:00,
2013-02-20 13:12:00,35.7,20.3,30.00,NNE,33,2.0,4.0,53,0.00,,,0.00,VWS V14.01,2013-02-20 18:12:00,
2013-02-20 13:13:00,35.7,20.7,30.00,WNW,300,2.0,2.0,54,0.00,,,0.00,VWS V14.01,2013-02-20 18:13:00,
2013-02-20 13:14:00,35.7,20.7,30.00,WSW,244,4.0,4.0,54,0.00,,,0.00,VWS V14.01,2013-02-20 18:14:00,
2013-02-20 13:15:00,35.7,20.7,30.00,NNE,15,7.0,9.0,54,0.00,,,0.00,VWS V14.01,2013-02-20 18:15:00,
2013-02-20 13:16:00,35.7,20.7,30.00,NE,34,2.0,7.0,54,0.00,,,0.00,VWS V14.01,2013-02-20 18:16:00,
2013-02-20 13:17:00,35.7,20.7,30.00,NNW,346,7.0,7.0,54,0.00,,,0.00,VWS V14.01,2013-02-20 18:17:00,
2013-02-20 13:18:00,35.6,20.2,30.00,North,350,2.0,7.0,53,0.00,,,0.00,VWS V14.01,2013-02-20 18:18:00,
2013-02-20 13:19:00,35.5,20.1,30.00,WSW,258,2.0,6.0,53,0.00,,,0.00,VWS V14.01,2013-02-20 18:19:00,
2013-02-20 13:20:00,35.4,20.0,30.00,West,273,2.0,2.0,53,0.00,,,0.00,VWS V14.01,2013-02-20 18:20:00,
2013-02-20 13:21:00,35.4,20.4,30.00,West,270,0.0,6.0,54,0.00,,,0.00,VWS V14.01,2013-02-20 18:21:00,
2013-02-20 13:22:00,35.3,20.3,30.00,West,264,1.0,4.0,54,0.00,,,0.00,VWS V14.01,2013-02-20 18:22:00,
2013-02-20 13:23:00,35.3,20.3,30.00,NW,315,1.0,4.0,54,0.00,,,0.00,VWS V14.01,2013-02-20 18:23:00,
2013-02-20 13:24:00,35.3,20.3,30.00,SW,234,5.0,5.0,54,0.00,,,0.00,VWS V14.01,2013-02-20 18:24:00,
2013-02-20 13:25:00,35.3,20.8,30.00,WNW,284,2.0,5.0,55,0.00,,,0.00,VWS V14.01,2013-02-20 18:25:00,
2013-02-20 13:26:00,35.3,20.3,30.00,West,267,2.0,4.0,54,0.00,,,0.00,VWS V14.01,2013-02-20 18:26:00,
2013-02-20 13:27:00,35.2,20.2,30.00,NNW,327,2.0,2.0,54,0.00,,,0.00,VWS V14.01,2013-02-20 18:27:00,
2013-02-20 13:28:00,35.2,20.2,30.01,NNW,327,0.0,2.0,54,0.00,,,0.00,VWS V14.01,2013-02-20 18:28:00,
2013-02-20 13:29:00,35.3,20.3,30.00,NNW,327,0.0,1.0,54,0.00,,,0.00,VWS V14.01,2013-02-20 18:29:00,
2013-02-20 13:30:00,35.3,20.3,30.00,WNW,289,4.0,4.0,54,0.00,,,0.00,VWS V14.01,2013-02-20 18:30:00,
2013-02-20 13:31:00,35.3,20.3,30.00,North,5,1.0,5.0,54,0.00,,,0.00,VWS V14.01,2013-02-20 18:31:00,
2013-02-20 13:32:00,35.3,20.3,30.00,North,360,0.0,4.0,54,0.00,,,0.00,VWS V14.01,2013-02-20 18:32:00,
2013-02-20 13:33:00,35.4,20.4,30.00,WNW,301,0.0,4.0,54,0.00,,,0.00,VWS V14.01,2013-02-20 18:33:00,
2013-02-20 13:34:00,35.5,21.0,30.00,WNW,296,2.0,6.0,55,0.00,,,0.00,VWS V14.01,2013-02-20 18:34:00,
2013-02-20 13:35:00,35.6,21.0,30.00,WSW,244,4.0,4.0,55,0.00,,,0.00,VWS V14.01,2013-02-20 18:35:00,
2013-02-20 13:36:00,35.8,21.2,30.00,SSW,200,1.0,5.0,55,0.00,,,0.00,VWS V14.01,2013-02-20 18:36:00,
2013-02-20 13:37:00,36.0,21.4,30.00,West,264,3.0,4.0,55,0.00,,,0.00,VWS V14.01,2013-02-20 18:37:00,
2013-02-20 13:38:00,36.1,21.5,30.00,WNW,291,4.0,5.0,55,0.00,,,0.00,VWS V14.01,2013-02-20 18:38:00,
2013-02-20 13:39:00,36.3,20.4,30.00,NNW,332,5.0,7.0,52,0.00,,,0.00,VWS V14.01,2013-02-20 18:39:00,
2013-02-20 13:40:00,36.4,20.5,30.00,West,266,4.0,6.0,52,0.00,,,0.00,VWS V14.01,2013-02-20 18:40:00,
2013-02-20 13:41:00,36.5,20.6,30.00,NNW,348,1.0,4.0,52,0.00,,,0.00,VWS V14.01,2013-02-20 18:41:00,
2013-02-20 13:42:00,36.6,20.6,30.00,North,351,0.0,4.0,52,0.00,,,0.00,VWS V14.01,2013-02-20 18:42:00,
2013-02-20 13:43:00,36.6,20.6,30.00,West,280,2.0,5.0,52,0.00,,,0.00,VWS V14.01,2013-02-20 18:43:00,
2013-02-20 13:44:00,36.7,20.8,30.00,NNE,32,3.0,4.0,52,0.00,,,0.00,VWS V14.01,2013-02-20 18:44:00,
2013-02-20 13:45:00,36.7,20.8,30.00,WNW,297,2.0,8.0,52,0.00,,,0.00,VWS V14.01,2013-02-20 18:45:00,
2013-02-20 13:46:00,36.7,20.8,30.00,West,278,1.0,4.0,52,0.00,,,0.00,VWS V14.01,2013-02-20 18:46:00,
2013-02-20 13:47:00,36.8,21.3,30.00,WSW,240,4.0,5.0,53,0.00,,,0.00,VWS V14.01,2013-02-20 18:47:00,
2013-02-20 13:48:00,36.8,20.8,30.00,WSW,256,2.0,5.0,52,0.00,,,0.00,VWS V14.01,2013-02-20 18:48:00,
2013-02-20 13:49:00,36.8,21.3,30.00,WSW,258,1.0,3.0,53,0.00,,,0.00,VWS V14.01,2013-02-20 18:49:00,
2013-02-20 13:50:00,36.9,21.8,30.00,WSW,258,0.0,4.0,54,0.00,,,0.00,VWS V14.01,2013-02-20 18:50:00,
2013-02-20 13:51:00,37.0,21.5,30.00,NW,320,5.0,6.0,53,0.00,,,0.00,VWS V14.01,2013-02-20 18:51:00,
2013-02-20 13:52:00,37.1,21.1,30.00,NNW,336,0.0,7.0,52,0.00,,,0.00,VWS V14.01,2013-02-20 18:52:00,
2013-02-20 13:53:00,37.1,21.1,30.00,NW,309,1.0,5.0,52,0.00,,,0.00,VWS V14.01,2013-02-20 18:53:00,
2013-02-20 13:54:00,37.1,21.1,30.00,West,265,2.0,6.0,52,0.00,,,0.00,VWS V14.01,2013-02-20 18:54:00,
2013-02-20 13:55:00,37.2,21.2,30.00,NNW,333,3.0,6.0,52,0.00,,,0.00,VWS V14.01,2013-02-20 18:55:00,
2013-02-20 13:56:00,37.1,20.7,30.00,NNW,347,1.0,7.0,51,0.00,,,0.00,VWS V14.01,2013-02-20 18:56:00,
2013-02-20 13:57:00,37.2,20.8,30.00,WNW,297,0.0,5.0,51,0.00,,,0.00,VWS V14.01,2013-02-20 18:57:00,
2013-02-20 13:58:00,37.2,20.8,30.00,NW,323,4.0,6.0,51,0.00,,,0.00,VWS V14.01,2013-02-20 18:58:00,
2013-02-20 13:59:00,37.2,20.3,30.00,WNW,298,4.0,6.0,50,0.00,,,0.00,VWS V14.01,2013-02-20 18:59:00,
2013-02-20 14:00:00,37.1,20.7,30.00,West,280,2.0,5.0,51,0.00,,,0.00,VWS V14.01,2013-02-20 19:00:00,
2013-02-20 14:01:00,37.1,20.2,30.00,WNW,290,4.0,5.0,50,0.00,,,0.00,VWS V14.01,2013-02-20 19:01:00,
2013-02-20 14:02:00,37.1,20.2,30.00,West,271,5.0,7.0,50,0.00,,,0.00,VWS V14.01,2013-02-20 19:02:00,
2013-02-20 14:03:00,37.1,20.2,30.00,West,272,6.0,6.0,50,0.00,,,0.00,VWS V14.01,2013-02-20 19:03:00,
2013-02-20 14:04:00,37.1,20.2,30.00,SW,227,4.0,7.0,50,0.00,,,0.00,VWS V14.01,2013-02-20 19:04:00,
2013-02-20 14:05:00,37.1,20.2,30.00,NW,312,4.0,6.0,50,0.00,,,0.00,VWS V14.01,2013-02-20 19:05:00,
2013-02-20 14:06:00,37.0,20.1,30.00,NNW,339,6.0,6.0,50,0.00,,,0.00,VWS V14.01,2013-02-20 19:06:00,
2013-02-20 14:07:00,37.0,20.1,30.00,WSW,254,1.0,11.0,50,0.00,,,0.00,VWS V14.01,2013-02-20 19:07:00,
2013-02-20 14:08:00,36.9,20.0,30.00,NW,325,2.0,5.0,50,0.00,,,0.00,VWS V14.01,2013-02-20 19:08:00,
2013-02-20 14:09:00,36.9,20.0,30.00,NNW,336,6.0,6.0,50,0.00,,,0.00,VWS V14.01,2013-02-20 19:09:00,
2013-02-20 14:10:00,36.8,19.9,30.00,North,355,0.0,7.0,50,0.00,,,0.00,VWS V14.01,2013-02-20 19:10:00,
2013-02-20 14:11:00,36.7,19.8,30.00,North,10,4.0,6.0,50,0.00,,,0.00,VWS V14.01,2013-02-20 19:11:00,
2013-02-20 14:12:00,36.7,19.8,30.00,NNW,343,1.0,5.0,50,0.00,,,0.00,VWS V14.01,2013-02-20 19:12:00,
2013-02-20 14:13:00,36.6,20.2,30.00,WNW,300,1.0,4.0,51,0.00,,,0.00,VWS V14.01,2013-02-20 19:13:00,
2013-02-20 14:14:00,36.7,20.3,30.00,North,9,6.0,6.0,51,0.00,,,0.00,VWS V14.01,2013-02-20 19:14:00,
2013-02-20 14:15:00,36.6,19.7,30.00,NNW,333,1.0,7.0,50,0.00,,,0.00,VWS V14.01,2013-02-20 19:15:00,
2013-02-20 14:16:00,36.6,20.2,30.00,West,280,5.0,5.0,51,0.00,,,0.00,VWS V14.01,2013-02-20 19:16:00,
2013-02-20 14:17:00,36.6,20.2,30.00,NW,323,1.0,5.0,51,0.00,,,0.00,VWS V14.01,2013-02-20 19:17:00,
2013-02-20 14:18:00,36.6,20.2,30.00,NW,304,2.0,5.0,51,0.00,,,0.00,VWS V14.01,2013-02-20 19:18:00,
2013-02-20 14:19:00,36.7,20.3,29.99,ENE,77,2.0,5.0,51,0.00,,,0.00,VWS V14.01,2013-02-20 19:19:00,
2013-02-20 14:20:00,36.7,20.8,29.99,NW,305,1.0,4.0,52,0.00,,,0.00,VWS V14.01,2013-02-20 19:20:00,
2013-02-20 14:21:00,36.8,20.4,30.00,NW,325,1.0,5.0,51,0.00,,,0.00,VWS V14.01,2013-02-20 19:21:00,
2013-02-20 14:22:00,36.8,20.4,30.00,NW,311,1.0,5.0,51,0.00,,,0.00,VWS V14.01,2013-02-20 19:22:00,
2013-02-20 14:23:00,36.9,20.5,30.00,North,10,5.0,7.0,51,0.00,,,0.00,VWS V14.01,2013-02-20 19:23:00,
2013-02-20 14:24:00,37.0,20.1,30.00,NW,325,2.0,5.0,50,0.00,,,0.00,VWS V14.01,2013-02-20 19:24:00,
2013-02-20 14:25:00,37.0,20.1,30.00,West,265,2.0,5.0,50,0.00,,,0.00,VWS V14.01,2013-02-20 19:25:00,
2013-02-20 14:26:00,37.0,20.1,30.00,WSW,254,6.0,10.0,50,0.00,,,0.00,VWS V14.01,2013-02-20 19:26:00,
2013-02-20 14:27:00,37.1,20.2,30.00,NNE,33,5.0,7.0,50,0.00,,,0.00,VWS V14.01,2013-02-20 19:27:00,
2013-02-20 14:28:00,37.1,19.7,30.00,WNW,301,1.0,4.0,49,0.00,,,0.00,VWS V14.01,2013-02-20 19:28:00,
2013-02-20 14:29:00,37.1,19.7,30.00,WNW,287,0.0,2.0,49,0.00,,,0.00,VWS V14.01,2013-02-20 19:29:00,
2013-02-20 14:30:00,37.1,20.2,30.00,NNW,335,4.0,4.0,50,0.00,,,0.00,VWS V14.01,2013-02-20 19:30:00,
2013-02-20 14:31:00,37.2,20.3,30.00,NW,325,5.0,5.0,50,0.00,,,0.00,VWS V14.01,2013-02-20 19:31:00,
2013-02-20 14:32:00,37.2,20.3,30.00,WSW,240,0.0,6.0,50,0.00,,,0.00,VWS V14.01,2013-02-20 19:32:00,
2013-02-20 14:33:00,37.3,20.4,30.00,NW,324,2.0,7.0,50,0.00,,,0.00,VWS V14.01,2013-02-20 19:33:00,
2013-02-20 14:34:00,37.3,20.4,30.00,WSW,257,6.0,6.0,50,0.00,,,0.00,VWS V14.01,2013-02-20 19:34:00,
2013-02-20 14:35:00,37.4,20.0,30.00,WSW,258,0.0,10.0,49,0.00,,,0.00,VWS V14.01,2013-02-20 19:35:00,
2013-02-20 14:36:00,37.4,20.0,30.00,West,266,6.0,6.0,49,0.00,,,0.00,VWS V14.01,2013-02-20 19:36:00,
2013-02-20 14:37:00,37.4,20.0,30.00,South,181,4.0,7.0,49,0.00,,,0.00,VWS V14.01,2013-02-20 19:37:00,
2013-02-20 14:38:00,37.4,20.0,30.00,NNE,14,4.0,7.0,49,0.00,,,0.00,VWS V14.01,2013-02-20 19:38:00,
2013-02-20 14:39:00,37.4,20.0,30.00,WNW,292,9.0,10.0,49,0.00,,,0.00,VWS V14.01,2013-02-20 19:39:00,
2013-02-20 14:40:00,37.3,19.9,30.00,NNW,330,0.0,6.0,49,0.00,,,0.00,VWS V14.01,2013-02-20 19:40:00,
2013-02-20 14:41:00,37.3,19.9,30.00,ESE,105,1.0,2.0,49,0.00,,,0.00,VWS V14.01,2013-02-20 19:41:00,
2013-02-20 14:42:00,37.4,20.5,29.99,SW,228,0.0,2.0,50,0.00,,,0.00,VWS V14.01,2013-02-20 19:42:00,
2013-02-20 14:43:00,37.4,20.5,30.00,WNW,287,2.0,5.0,50,0.00,,,0.00,VWS V14.01,2013-02-20 19:43:00,
2013-02-20 14:44:00,37.5,20.1,30.00,NW,305,1.0,5.0,49,0.00,,,0.00,VWS V14.01,2013-02-20 19:44:00,
2013-02-20 14:45:00,37.5,20.1,30.00,NNW,328,0.0,2.0,49,0.00,,,0.00,VWS V14.01,2013-02-20 19:45:00,
2013-02-20 14:46:00,37.5,20.1,30.00,WSW,254,4.0,6.0,49,0.00,,,0.00,VWS V14.01,2013-02-20 19:46:00,
2013-02-20 14:47:00,37.5,19.6,30.00,West,259,1.0,4.0,48,0.00,,,0.00,VWS V14.01,2013-02-20 19:47:00,
2013-02-20 14:48:00,37.5,20.1,30.00,NW,321,3.0,8.0,49,0.00,,,0.00,VWS V14.01,2013-02-20 19:48:00,
2013-02-20 14:49:00,37.5,19.1,30.00,WNW,298,6.0,11.0,47,0.00,,,0.00,VWS V14.01,2013-02-20 19:49:00,
2013-02-20 14:50:00,37.4,19.0,30.00,North,355,2.0,10.0,47,0.00,,,0.00,VWS V14.01,2013-02-20 19:50:00,
2013-02-20 14:51:00,37.3,18.9,30.00,NNW,329,4.0,7.0,47,0.00,,,0.00,VWS V14.01,2013-02-20 19:51:00,
2013-02-20 14:52:00,37.3,18.9,30.00,NNE,30,11.0,11.0,47,0.00,,,0.00,VWS V14.01,2013-02-20 19:52:00,
2013-02-20 14:53:00,37.2,18.8,30.00,WNW,283,3.0,11.0,47,0.00,,,0.00,VWS V14.01,2013-02-20 19:53:00,
2013-02-20 14:54:00,37.2,18.8,30.00,NW,318,4.0,4.0,47,0.00,,,0.00,VWS V14.01,2013-02-20 19:54:00,
2013-02-20 14:55:00,37.1,19.2,30.00,NW,309,1.0,4.0,48,0.00,,,0.00,VWS V14.01,2013-02-20 19:55:00,
2013-02-20 14:56:00,37.1,18.8,30.00,WSW,256,5.0,8.0,47,0.00,,,0.00,VWS V14.01,2013-02-20 19:56:00,
2013-02-20 14:57:00,37.1,18.8,30.00,South,175,0.0,6.0,47,0.00,,,0.00,VWS V14.01,2013-02-20 19:57:00,
2013-02-20 14:58:00,37.2,18.8,30.00,NNW,345,5.0,6.0,47,0.00,,,0.00,VWS V14.01,2013-02-20 19:58:00,
2013-02-20 14:59:00,37.2,18.8,30.00,WNW,287,3.0,9.0,47,0.00,,,0.00,VWS V14.01,2013-02-20 19:59:00,
2013-02-20 15:00:00,37.1,19.2,30.00,WNW,289,0.0,4.0,48,0.00,,,0.00,VWS V14.01,2013-02-20 20:00:00,
2013-02-20 15:01:00,37.2,19.3,30.00,WNW,289,1.0,3.0,48,0.00,,,0.00,VWS V14.01,2013-02-20 20:01:00,
2013-02-20 15:02:00,37.2,19.3,30.00,NNW,348,2.0,2.0,48,0.00,,,0.00,VWS V14.01,2013-02-20 20:02:00,
2013-02-20 15:03:00,37.2,19.3,30.00,West,273,1.0,4.0,48,0.00,,,0.00,VWS V14.01,2013-02-20 20:03:00,
2013-02-20 15:04:00,37.2,19.3,30.00,NW,317,4.0,10.0,48,0.00,,,0.00,VWS V14.01,2013-02-20 20:04:00,
2013-02-20 15:05:00,37.1,18.8,30.00,West,263,5.0,5.0,47,0.00,,,0.00,VWS V14.01,2013-02-20 20:05:00,
2013-02-20 15:06:00,37.1,19.2,30.00,NNW,343,4.0,5.0,48,0.00,,,0.00,VWS V14.01,2013-02-20 20:06:00,
2013-02-20 15:07:00,37.0,19.1,30.00,WSW,250,6.0,6.0,48,0.00,,,0.00,VWS V14.01,2013-02-20 20:07:00,
2013-02-20 15:08:00,37.0,19.1,30.00,NW,311,4.0,6.0,48,0.00,,,0.00,VWS V14.01,2013-02-20 20:08:00,
2013-02-20 15:09:00,37.0,19.1,30.00,West,269,5.0,7.0,48,0.00,,,0.00,VWS V14.01,2013-02-20 20:09:00,
2013-02-20 15:10:00,37.0,19.1,30.00,WNW,298,0.0,5.0,48,0.00,,,0.00,VWS V14.01,2013-02-20 20:10:00,
2013-02-20 15:11:00,37.0,19.6,30.00,NNW,338,2.0,5.0,49,0.00,,,0.00,VWS V14.01,2013-02-20 20:11:00,
2013-02-20 15:12:00,37.0,19.6,30.00,West,279,5.0,6.0,49,0.00,,,0.00,VWS V14.01,2013-02-20 20:12:00,
2013-02-20 15:13:00,37.1,19.2,30.00,West,277,5.0,8.0,48,0.00,,,0.00,VWS V14.01,2013-02-20 20:13:00,
2013-02-20 15:14:00,37.1,19.2,30.00,NNE,19,2.0,5.0,48,0.00,,,0.00,VWS V14.01,2013-02-20 20:14:00,
2013-02-20 15:15:00,37.1,19.2,30.01,West,269,5.0,9.0,48,0.00,,,0.00,VWS V14.01,2013-02-20 20:15:00,
2013-02-20 15:16:00,37.1,19.2,30.00,NW,315,6.0,9.0,48,0.00,,,0.00,VWS V14.01,2013-02-20 20:16:00,
2013-02-20 15:17:00,37.0,18.7,30.01,WSW,255,0.0,9.0,47,0.00,,,0.00,VWS V14.01,2013-02-20 20:17:00,
2013-02-20 15:18:00,37.0,19.1,30.01,NNE,15,3.0,3.0,48,0.00,,,0.00,VWS V14.01,2013-02-20 20:18:00,
2013-02-20 15:19:00,37.0,18.7,30.00,NW,314,3.0,7.0,47,0.00,,,0.00,VWS V14.01,2013-02-20 20:19:00,
2013-02-20 15:20:00,37.0,19.1,30.01,NW,310,1.0,6.0,48,0.00,,,0.00,VWS V14.01,2013-02-20 20:20:00,
2013-02-20 15:21:00,37.0,19.1,30.01,NNW,346,7.0,7.0,48,0.00,,,0.00,VWS V14.01,2013-02-20 20:21:00,
2013-02-20 15:22:00,36.9,18.6,30.01,NW,309,1.0,7.0,47,0.00,,,0.00,VWS V14.01,2013-02-20 20:22:00,
2013-02-20 15:23:00,36.9,18.6,30.01,NNE,30,1.0,4.0,47,0.00,,,0.00,VWS V14.01,2013-02-20 20:23:00,
2013-02-20 15:24:00,36.9,19.1,30.01,West,281,2.0,5.0,48,0.00,,,0.00,VWS V14.01,2013-02-20 20:24:00,
2013-02-20 15:25:00,36.9,19.1,30.01,North,10,2.0,4.0,48,0.00,,,0.00,VWS V14.01,2013-02-20 20:25:00,
2013-02-20 15:26:00,36.9,19.5,30.01,South,184,1.0,3.0,49,0.00,,,0.00,VWS V14.01,2013-02-20 20:26:00,
2013-02-20 15:27:00,36.8,19.0,30.01,South,188,4.0,6.0,48,0.00,,,0.00,VWS V14.01,2013-02-20 20:27:00,
2013-02-20 15:28:00,36.8,19.5,30.01,South,186,0.0,5.0,49,0.00,,,0.00,VWS V14.01,2013-02-20 20:28:00,
2013-02-20 15:29:00,36.8,19.9,30.01,South,186,0.0,0.0,50,0.00,,,0.00,VWS V14.01,2013-02-20 20:29:00,
2013-02-20 15:30:00,36.8,19.9,30.02,South,186,4.0,4.0,50,0.00,,,0.00,VWS V14.01,2013-02-20 20:30:00,
2013-02-20 15:31:00,36.8,19.5,30.02,South,178,6.0,7.0,49,0.00,,,0.00,VWS V14.01,2013-02-20 20:31:00,
2013-02-20 15:32:00,36.7,19.4,30.02,NNE,12,1.0,6.0,49,0.00,,,0.00,VWS V14.01,2013-02-20 20:32:00,
2013-02-20 15:33:00,36.6,19.3,30.02,WSW,248,5.0,5.0,49,0.00,,,0.00,VWS V14.01,2013-02-20 20:33:00,
2013-02-20 15:34:00,36.5,19.2,30.02,WNW,292,2.0,7.0,49,0.00,,,0.00,VWS V14.01,2013-02-20 20:34:00,
2013-02-20 15:35:00,36.5,19.2,30.02,NNW,327,3.0,5.0,49,0.00,,,0.00,VWS V14.01,2013-02-20 20:35:00,
2013-02-20 15:36:00,36.4,19.1,30.02,NNW,331,5.0,7.0,49,0.00,,,0.00,VWS V14.01,2013-02-20 20:36:00,
2013-02-20 15:37:00,36.2,18.9,30.02,NNW,333,0.0,7.0,49,0.00,,,0.00,VWS V14.01,2013-02-20 20:37:00,
2013-02-20 15:38:00,36.1,18.8,30.02,WNW,293,1.0,6.0,49,0.00,,,0.00,VWS V14.01,2013-02-20 20:38:00,
2013-02-20 15:39:00,36.0,18.7,30.03,NNE,24,0.0,2.0,49,0.00,,,0.00,VWS V14.01,2013-02-20 20:39:00,
2013-02-20 15:40:00,36.0,19.2,30.02,SSW,199,4.0,4.0,50,0.00,,,0.00,VWS V14.01,2013-02-20 20:40:00,
2013-02-20 15:41:00,36.0,19.2,30.02,WNW,295,2.0,7.0,50,0.00,,,0.00,VWS V14.01,2013-02-20 20:41:00,
2013-02-20 15:42:00,36.0,19.2,30.03,NE,40,9.0,9.0,50,0.00,,,0.00,VWS V14.01,2013-02-20 20:42:00,
2013-02-20 15:43:00,36.0,19.2,30.03,NNE,13,1.0,1.0,50,0.00,,,0.00,VWS V14.01,2013-02-20 20:43:00,
2013-02-20 15:44:00,36.0,19.2,30.03,SW,230,7.0,7.0,50,0.00,,,0.00,VWS V14.01,2013-02-20 20:44:00,
2013-02-20 15:45:00,36.0,19.2,30.03,WSW,258,3.0,9.0,50,0.00,,,0.00,VWS V14.01,2013-02-20 20:45:00,
2013-02-20 15:46:00,36.1,19.3,30.02,NW,314,2.0,3.0,50,0.00,,,0.00,VWS V14.01,2013-02-20 20:46:00,
2013-02-20 15:47:00,36.1,19.3,30.03,SW,215,4.0,6.0,50,0.00,,,0.00,VWS V14.01,2013-02-20 20:47:00,
2013-02-20 15:48:00,36.2,18.9,30.03,North,9,2.0,4.0,49,0.00,,,0.00,VWS V14.01,2013-02-20 20:48:00,
2013-02-20 15:49:00,36.2,18.9,30.03,North,5,2.0,4.0,49,0.00,,,0.00,VWS V14.01,2013-02-20 20:49:00,
2013-02-20 15:50:00,36.2,18.9,30.03,NNW,327,2.0,8.0,49,0.00,,,0.00,VWS V14.01,2013-02-20 20:50:00,
2013-02-20 15:51:00,36.2,18.9,30.03,NNW,327,1.0,14.0,49,0.00,,,0.00,VWS V14.01,2013-02-20 20:51:00,
2013-02-20 15:52:00,36.2,18.9,30.03,NW,317,0.0,2.0,49,0.00,,,0.00,VWS V14.01,2013-02-20 20:52:00,
2013-02-20 15:53:00,36.2,19.4,30.03,NW,317,1.0,1.0,50,0.00,,,0.00,VWS V14.01,2013-02-20 20:53:00,
2013-02-20 15:54:00,36.2,19.4,30.03,WNW,297,5.0,5.0,50,0.00,,,0.00,VWS V14.01,2013-02-20 20:54:00,
2013-02-20 15:55:00,36.2,18.9,30.03,NW,324,2.0,5.0,49,0.00,,,0.00,VWS V14.01,2013-02-20 20:55:00,
2013-02-20 15:56:00,36.2,18.9,30.03,NW,324,0.0,1.0,49,0.00,,,0.00,VWS V14.01,2013-02-20 20:56:00,
2013-02-20 15:57:00,36.2,19.4,30.03,South,175,1.0,5.0,50,0.00,,,0.00,VWS V14.01,2013-02-20 20:57:00,
2013-02-20 15:58:00,36.2,18.9,30.03,West,279,1.0,5.0,49,0.00,,,0.00,VWS V14.01,2013-02-20 20:58:00,
2013-02-20 15:59:00,36.2,19.4,30.03,West,269,4.0,5.0,50,0.00,,,0.00,VWS V14.01,2013-02-20 20:59:00,
2013-02-20 16:00:00,36.2,18.9,30.03,NW,306,6.0,6.0,49,0.00,,,0.00,VWS V14.01,2013-02-20 21:00:00,
2013-02-20 16:01:00,36.3,19.0,30.03,NNW,341,2.0,6.0,49,0.00,,,0.00,VWS V14.01,2013-02-20 21:01:00,
2013-02-20 16:02:00,36.2,18.9,30.03,NNE,19,1.0,4.0,49,0.00,,,0.00,VWS V14.01,2013-02-20 21:02:00,
2013-02-20 16:03:00,36.2,18.9,30.03,NNE,19,0.0,1.0,49,0.00,,,0.00,VWS V14.01,2013-02-20 21:03:00,
2013-02-20 16:04:00,36.2,19.4,30.03,North,11,8.0,10.0,50,0.00,,,0.00,VWS V14.01,2013-02-20 21:04:00,
2013-02-20 16:05:00,36.2,18.9,30.03,NNW,335,0.0,8.0,49,0.00,,,0.00,VWS V14.01,2013-02-20 21:05:00,
2013-02-20 16:06:00,36.2,18.9,30.03,West,262,5.0,7.0,49,0.00,,,0.00,VWS V14.01,2013-02-20 21:06:00,
2013-02-20 16:07:00,36.1,18.8,30.03,NNE,23,1.0,5.0,49,0.00,,,0.00,VWS V14.01,2013-02-20 21:07:00,
2013-02-20 16:08:00,36.1,18.8,30.03,WSW,249,2.0,2.0,49,0.00,,,0.00,VWS V14.01,2013-02-20 21:08:00,
2013-02-20 16:09:00,36.1,18.8,30.03,NNW,335,2.0,9.0,49,0.00,,,0.00,VWS V14.01,2013-02-20 21:09:00,
2013-02-20 16:10:00,36.1,18.8,30.03,NNW,331,3.0,8.0,49,0.00,,,0.00,VWS V14.01,2013-02-20 21:10:00,
2013-02-20 16:11:00,36.1,18.8,30.03,NW,316,0.0,5.0,49,0.00,,,0.00,VWS V14.01,2013-02-20 21:11:00,
2013-02-20 16:12:00,36.1,18.8,30.03,WNW,293,1.0,5.0,49,0.00,,,0.00,VWS V14.01,2013-02-20 21:12:00,
2013-02-20 16:13:00,36.1,18.8,30.03,WNW,296,2.0,2.0,49,0.00,,,0.00,VWS V14.01,2013-02-20 21:13:00,
2013-02-20 16:14:00,36.1,18.8,30.03,WSW,244,0.0,2.0,49,0.00,,,0.00,VWS V14.01,2013-02-20 21:14:00,
2013-02-20 16:15:00,36.1,18.8,30.03,West,278,2.0,8.0,49,0.00,,,0.00,VWS V14.01,2013-02-20 21:15:00,
2013-02-20 16:16:00,36.1,18.8,30.03,West,278,0.0,3.0,49,0.00,,,0.00,VWS V14.01,2013-02-20 21:16:00,
2013-02-20 16:17:00,36.1,18.8,30.04,NNW,329,2.0,2.0,49,0.00,,,0.00,VWS V14.01,2013-02-20 21:17:00,
2013-02-20 16:18:00,36.1,18.3,30.04,WSW,239,2.0,10.0,48,0.00,,,0.00,VWS V14.01,2013-02-20 21:18:00,
2013-02-20 16:19:00,36.1,18.3,30.03,NNE,22,0.0,2.0,48,0.00,,,0.00,VWS V14.01,2013-02-20 21:19:00,
2013-02-20 16:20:00,36.0,18.2,30.03,West,279,2.0,2.0,48,0.00,,,0.00,VWS V14.01,2013-02-20 21:20:00,
2013-02-20 16:21:00,36.0,18.2,30.04,NW,313,3.0,7.0,48,0.00,,,0.00,VWS V14.01,2013-02-20 21:21:00,
2013-02-20 16:22:00,35.9,18.1,30.03,WNW,288,2.0,4.0,48,0.00,,,0.00,VWS V14.01,2013-02-20 21:22:00,
2013-02-20 16:23:00,35.9,18.1,30.03,NNW,340,2.0,9.0,48,0.00,,,0.00,VWS V14.01,2013-02-20 21:23:00,
2013-02-20 16:24:00,35.8,18.0,30.04,North,10,2.0,5.0,48,0.00,,,0.00,VWS V14.01,2013-02-20 21:24:00,
2013-02-20 16:25:00,35.7,18.0,30.04,WNW,288,9.0,9.0,48,0.00,,,0.00,VWS V14.01,2013-02-20 21:25:00,
2013-02-20 16:26:00,35.7,18.0,30.04,NW,306,3.0,9.0,48,0.00,,,0.00,VWS V14.01,2013-02-20 21:26:00,
2013-02-20 16:27:00,35.6,17.9,30.03,NW,321,0.0,3.0,48,0.00,,,0.00,VWS V14.01,2013-02-20 21:27:00,
2013-02-20 16:28:00,35.5,18.2,30.03,WNW,296,1.0,5.0,49,0.00,,,0.00,VWS V14.01,2013-02-20 21:28:00,
2013-02-20 16:29:00,35.5,18.2,30.03,NE,51,2.0,2.0,49,0.00,,,0.00,VWS V14.01,2013-02-20 21:29:00,
2013-02-20 16:30:00,35.4,18.1,30.03,WSW,250,1.0,5.0,49,0.00,,,0.00,VWS V14.01,2013-02-20 21:30:00,
2013-02-20 16:31:00,35.4,18.1,30.03,North,350,3.0,6.0,49,0.00,,,0.00,VWS V14.01,2013-02-20 21:31:00,
2013-02-20 16:32:00,35.3,18.1,30.04,NW,311,1.0,5.0,49,0.00,,,0.00,VWS V14.01,2013-02-20 21:32:00,
2013-02-20 16:33:00,35.3,18.1,30.04,NW,310,1.0,2.0,49,0.00,,,0.00,VWS V14.01,2013-02-20 21:33:00,
2013-02-20 16:34:00,35.2,18.0,30.04,North,351,1.0,6.0,49,0.00,,,0.00,VWS V14.01,2013-02-20 21:34:00,
2013-02-20 16:35:00,35.2,18.0,30.04,NE,34,0.0,3.0,49,0.00,,,0.00,VWS V14.01,2013-02-20 21:35:00,
2013-02-20 16:36:00,35.2,18.0,30.04,NNE,22,1.0,6.0,49,0.00,,,0.00,VWS V14.01,2013-02-20 21:36:00,
2013-02-20 16:37:00,35.1,17.9,30.04,WNW,286,0.0,1.0,49,0.00,,,0.00,VWS V14.01,2013-02-20 21:37:00,
2013-02-20 16:38:00,35.1,18.4,30.04,NNW,344,3.0,4.0,50,0.00,,,0.00,VWS V14.01,2013-02-20 21:38:00,
2013-02-20 16:39:00,35.0,18.2,30.04,West,261,2.0,8.0,50,0.00,,,0.00,VWS V14.01,2013-02-20 21:39:00,
2013-02-20 16:40:00,35.0,17.8,30.04,NNW,344,2.0,5.0,49,0.00,,,0.00,VWS V14.01,2013-02-20 21:40:00,
2013-02-20 16:41:00,35.0,17.8,30.04,North,355,3.0,3.0,49,0.00,,,0.00,VWS V14.01,2013-02-20 21:41:00,
2013-02-20 16:42:00,34.9,18.2,30.04,North,355,0.0,2.0,50,0.00,,,0.00,VWS V14.01,2013-02-20 21:42:00,
2013-02-20 16:43:00,34.9,18.2,30.05,NW,305,2.0,6.0,50,0.00,,,0.00,VWS V14.01,2013-02-20 21:43:00,
2013-02-20 16:44:00,34.8,17.6,30.05,North,351,1.0,4.0,49,0.00,,,0.00,VWS V14.01,2013-02-20 21:44:00,
2013-02-20 16:45:00,34.8,18.1,30.04,North,350,3.0,7.0,50,0.00,,,0.00,VWS V14.01,2013-02-20 21:45:00,
2013-02-20 16:46:00,34.7,18.0,30.05,WNW,294,1.0,7.0,50,0.00,,,0.00,VWS V14.01,2013-02-20 21:46:00,
2013-02-20 16:47:00,34.7,18.0,30.05,North,5,3.0,4.0,50,0.00,,,0.00,VWS V14.01,2013-02-20 21:47:00,
2013-02-20 16:48:00,34.6,17.9,30.05,NW,313,1.0,7.0,50,0.00,,,0.00,VWS V14.01,2013-02-20 21:48:00,
2013-02-20 16:49:00,34.5,17.8,30.05,SSW,202,0.0,2.0,50,0.00,,,0.00,VWS V14.01,2013-02-20 21:49:00,
2013-02-20 16:50:00,34.5,18.2,30.05,SSW,202,0.0,2.0,51,0.00,,,0.00,VWS V14.01,2013-02-20 21:50:00,
2013-02-20 16:51:00,34.4,18.2,30.05,SSW,202,0.0,2.0,51,0.00,,,0.00,VWS V14.01,2013-02-20 21:51:00,
2013-02-20 16:52:00,34.4,18.2,30.05,West,274,2.0,2.0,51,0.00,,,0.00,VWS V14.01,2013-02-20 21:52:00,
2013-02-20 16:53:00,34.4,17.7,30.05,NE,38,3.0,8.0,50,0.00,,,0.00,VWS V14.01,2013-02-20 21:53:00,
2013-02-20 16:54:00,34.3,17.6,30.05,WSW,245,0.0,4.0,50,0.00,,,0.00,VWS V14.01,2013-02-20 21:54:00,
2013-02-20 16:55:00,34.3,17.6,30.05,North,5,0.0,2.0,50,0.00,,,0.00,VWS V14.01,2013-02-20 21:55:00,
2013-02-20 16:56:00,34.3,17.6,30.05,SSE,163,1.0,2.0,50,0.00,,,0.00,VWS V14.01,2013-02-20 21:56:00,
2013-02-20 16:57:00,34.2,18.0,30.05,North,10,1.0,2.0,51,0.00,,,0.00,VWS V14.01,2013-02-20 21:57:00,
2013-02-20 16:58:00,34.2,18.0,30.05,NNW,346,4.0,7.0,51,0.00,,,0.00,VWS V14.01,2013-02-20 21:58:00,
2013-02-20 16:59:00,34.1,17.9,30.05,NW,306,3.0,6.0,51,0.00,,,0.00,VWS V14.01,2013-02-20 21:59:00,
2013-02-20 17:00:00,34.1,17.4,30.05,NNE,16,2.0,6.0,50,0.00,,,0.00,VWS V14.01,2013-02-20 22:00:00,
2013-02-20 17:01:00,34.0,17.3,30.05,West,274,4.0,8.0,50,0.00,,,0.00,VWS V14.01,2013-02-20 22:01:00,
2013-02-20 17:02:00,33.9,17.2,30.05,SW,232,4.0,5.0,50,0.00,,,0.00,VWS V14.01,2013-02-20 22:02:00,
2013-02-20 17:03:00,33.9,17.2,30.05,WSW,248,2.0,7.0,50,0.00,,,0.00,VWS V14.01,2013-02-20 22:03:00,
2013-02-20 17:04:00,33.8,17.1,30.05,WNW,284,3.0,5.0,50,0.00,,,0.00,VWS V14.01,2013-02-20 22:04:00,
2013-02-20 17:05:00,33.7,17.0,30.05,NW,312,2.0,6.0,50,0.00,,,0.00,VWS V14.01,2013-02-20 22:05:00,
2013-02-20 17:06:00,33.7,17.5,30.05,SSW,207,1.0,4.0,51,0.00,,,0.00,VWS V14.01,2013-02-20 22:06:00,
2013-02-20 17:07:00,33.6,17.4,30.05,NW,313,4.0,4.0,51,0.00,,,0.00,VWS V14.01,2013-02-20 22:07:00,
2013-02-20 17:08:00,33.6,17.4,30.05,West,279,1.0,7.0,51,0.00,,,0.00,VWS V14.01,2013-02-20 22:08:00,
2013-02-20 17:09:00,33.5,17.3,30.05,SSW,209,2.0,4.0,51,0.00,,,0.00,VWS V14.01,2013-02-20 22:09:00,
2013-02-20 17:10:00,33.5,17.3,30.05,NW,310,1.0,10.0,51,0.00,,,0.00,VWS V14.01,2013-02-20 22:10:00,
2013-02-20 17:11:00,33.4,17.2,30.05,WNW,302,5.0,6.0,51,0.00,,,0.00,VWS V14.01,2013-02-20 22:11:00,
2013-02-20 17:12:00,33.4,16.8,30.05,West,261,4.0,5.0,50,0.00,,,0.00,VWS V14.01,2013-02-20 22:12:00,
2013-02-20 17:13:00,33.3,17.1,30.05,ESE,112,0.0,6.0,51,0.00,,,0.00,VWS V14.01,2013-02-20 22:13:00,
2013-02-20 17:14:00,33.3,16.7,30.05,NW,325,0.0,6.0,50,0.00,,,0.00,VWS V14.01,2013-02-20 22:14:00,
2013-02-20 17:15:00,33.2,17.0,30.06,WSW,257,0.0,2.0,51,0.00,,,0.00,VWS V14.01,2013-02-20 22:15:00,
2013-02-20 17:16:00,33.2,17.0,30.05,North,5,3.0,7.0,51,0.00,,,0.00,VWS V14.01,2013-02-20 22:16:00,
2013-02-20 17:17:00,33.2,17.0,30.05,NNW,336,0.0,13.0,51,0.00,,,0.00,VWS V14.01,2013-02-20 22:17:00,
2013-02-20 17:18:00,33.1,17.0,30.05,NNE,28,2.0,8.0,51,0.00,,,0.00,VWS V14.01,2013-02-20 22:18:00,
2013-02-20 17:19:00,33.0,16.9,30.06,NNE,29,2.0,5.0,51,0.00,,,0.00,VWS V14.01,2013-02-20 22:19:00,
2013-02-20 17:20:00,33.0,16.9,30.06,SW,229,0.0,4.0,51,0.00,,,0.00,VWS V14.01,2013-02-20 22:20:00,
2013-02-20 17:21:00,32.9,16.8,30.06,West,279,1.0,2.0,51,0.00,,,0.00,VWS V14.01,2013-02-20 22:21:00,
2013-02-20 17:22:00,32.9,17.2,30.06,WNW,298,1.0,5.0,52,0.00,,,0.00,VWS V14.01,2013-02-20 22:22:00,
2013-02-20 17:23:00,32.9,17.2,30.06,WSW,252,4.0,4.0,52,0.00,,,0.00,VWS V14.01,2013-02-20 22:23:00,
2013-02-20 17:24:00,32.8,17.1,30.07,NNE,22,2.0,4.0,52,0.00,,,0.00,VWS V14.01,2013-02-20 22:24:00,
2013-02-20 17:25:00,32.8,17.1,30.07,WNW,294,0.0,6.0,52,0.00,,,0.00,VWS V14.01,2013-02-20 22:25:00,
2013-02-20 17:26:00,32.7,17.0,30.07,SSW,209,1.0,6.0,52,0.00,,,0.00,VWS V14.01,2013-02-20 22:26:00,
2013-02-20 17:27:00,32.7,17.0,30.07,NNE,25,0.0,5.0,52,0.00,,,0.00,VWS V14.01,2013-02-20 22:27:00,
2013-02-20 17:28:00,32.7,17.0,30.07,WNW,302,1.0,4.0,52,0.00,,,0.00,VWS V14.01,2013-02-20 22:28:00,
2013-02-20 17:29:00,32.6,16.9,30.07,NW,308,0.0,5.0,52,0.00,,,0.00,VWS V14.01,2013-02-20 22:29:00,
2013-02-20 17:30:00,32.6,16.9,30.07,NW,316,1.0,6.0,52,0.00,,,0.00,VWS V14.01,2013-02-20 22:30:00,
2013-02-20 17:31:00,32.6,17.4,30.07,SSW,201,1.0,1.0,53,0.00,,,0.00,VWS V14.01,2013-02-20 22:31:00,
2013-02-20 17:32:00,32.5,17.3,30.07,SSW,201,0.0,1.0,53,0.00,,,0.00,VWS V14.01,2013-02-20 22:32:00,
2013-02-20 17:33:00,32.5,16.9,30.07,WNW,293,0.0,4.0,52,0.00,,,0.00,VWS V14.01,2013-02-20 22:33:00,
2013-02-20 17:34:00,32.5,17.3,30.07,WNW,288,0.0,1.0,53,0.00,,,0.00,VWS V14.01,2013-02-20 22:34:00,
2013-02-20 17:35:00,32.5,17.3,30.08,WNW,288,0.0,1.0,53,0.00,,,0.00,VWS V14.01,2013-02-20 22:35:00,
2013-02-20 17:36:00,32.4,17.2,30.08,NNE,28,0.0,2.0,53,0.00,,,0.00,VWS V14.01,2013-02-20 22:36:00,
2013-02-20 17:37:00,32.4,17.2,30.08,North,360,0.0,2.0,53,0.00,,,0.00,VWS V14.01,2013-02-20 22:37:00,
2013-02-20 17:38:00,32.3,17.5,30.08,WNW,294,0.0,4.0,54,0.00,,,0.00,VWS V14.01,2013-02-20 22:38:00,
2013-02-20 17:39:00,32.3,17.5,30.08,WNW,296,2.0,2.0,54,0.00,,,0.00,VWS V14.01,2013-02-20 22:39:00,
2013-02-20 17:40:00,32.2,17.4,30.08,North,355,0.0,5.0,54,0.00,,,0.00,VWS V14.01,2013-02-20 22:40:00,
2013-02-20 17:41:00,32.2,17.4,30.08,ENE,61,5.0,5.0,54,0.00,,,0.00,VWS V14.01,2013-02-20 22:41:00,
2013-02-20 17:42:00,32.2,17.0,30.08,NNE,19,0.0,5.0,53,0.00,,,0.00,VWS V14.01,2013-02-20 22:42:00,
2013-02-20 17:43:00,32.1,16.9,30.08,NNE,20,0.0,1.0,53,0.00,,,0.00,VWS V14.01,2013-02-20 22:43:00,
2013-02-20 17:44:00,32.1,17.3,30.08,NNE,20,1.0,1.0,54,0.00,,,0.00,VWS V14.01,2013-02-20 22:44:00,
2013-02-20 17:45:00,32.1,17.3,30.08,North,5,2.0,3.0,54,0.00,,,0.00,VWS V14.01,2013-02-20 22:45:00,
2013-02-20 17:46:00,32.0,17.2,30.08,WNW,291,4.0,4.0,54,0.00,,,0.00,VWS V14.01,2013-02-20 22:46:00,
2013-02-20 17:47:00,32.0,17.2,30.08,WNW,300,0.0,3.0,54,0.00,,,0.00,VWS V14.01,2013-02-20 22:47:00,
2013-02-20 17:48:00,31.9,17.2,30.08,NNW,340,1.0,4.0,54,0.00,,,0.00,VWS V14.01,2013-02-20 22:48:00,
2013-02-20 17:49:00,31.9,17.2,30.09,WSW,249,2.0,4.0,54,0.00,,,0.00,VWS V14.01,2013-02-20 22:49:00,
2013-02-20 17:50:00,31.9,17.2,30.08,NW,322,0.0,3.0,54,0.00,,,0.00,VWS V14.01,2013-02-20 22:50:00,
2013-02-20 17:51:00,31.8,17.1,30.08,NW,324,1.0,5.0,54,0.00,,,0.00,VWS V14.01,2013-02-20 22:51:00,
2013-02-20 17:52:00,31.8,17.1,30.09,WNW,302,0.0,2.0,54,0.00,,,0.00,VWS V14.01,2013-02-20 22:52:00,
2013-02-20 17:53:00,31.7,17.4,30.09,North,355,2.0,2.0,55,0.00,,,0.00,VWS V14.01,2013-02-20 22:53:00,
2013-02-20 17:54:00,31.7,17.4,30.09,WNW,294,1.0,7.0,55,0.00,,,0.00,VWS V14.01,2013-02-20 22:54:00,
2013-02-20 17:55:00,31.6,17.3,30.09,WNW,294,0.0,1.0,55,0.00,,,0.00,VWS V14.01,2013-02-20 22:55:00,
2013-02-20 17:56:00,31.6,16.9,30.09,West,265,4.0,4.0,54,0.00,,,0.00,VWS V14.01,2013-02-20 22:56:00,
2013-02-20 17:57:00,31.6,16.9,30.09,NW,310,0.0,5.0,54,0.00,,,0.00,VWS V14.01,2013-02-20 22:57:00,
2013-02-20 17:58:00,31.5,16.8,30.09,NW,321,2.0,3.0,54,0.00,,,0.00,VWS V14.01,2013-02-20 22:58:00,
2013-02-20 17:59:00,31.5,16.8,30.09,NW,321,0.0,1.0,54,0.00,,,0.00,VWS V14.01,2013-02-20 22:59:00,
2013-02-20 18:00:00,31.5,17.2,30.09,WSW,238,8.0,8.0,55,0.00,,,0.00,VWS V14.01,2013-02-20 23:00:00,
2013-02-20 18:01:00,31.5,17.2,30.09,West,272,0.0,4.0,55,0.00,,,0.00,VWS V14.01,2013-02-20 23:01:00,
2013-02-20 18:02:00,31.4,17.1,30.09,West,272,1.0,2.0,55,0.00,,,0.00,VWS V14.01,2013-02-20 23:02:00,
2013-02-20 18:03:00,31.4,17.1,30.09,WNW,295,0.0,3.0,55,0.00,,,0.00,VWS V14.01,2013-02-20 23:03:00,
2013-02-20 18:04:00,31.4,16.7,30.09,WNW,303,0.0,2.0,54,0.00,,,0.00,VWS V14.01,2013-02-20 23:04:00,
2013-02-20 18:05:00,31.3,16.6,30.09,North,355,7.0,8.0,54,0.00,,,0.00,VWS V14.01,2013-02-20 23:05:00,
2013-02-20 18:06:00,31.3,16.6,30.09,NW,306,2.0,7.0,54,0.00,,,0.00,VWS V14.01,2013-02-20 23:06:00,
2013-02-20 18:07:00,31.2,16.5,30.09,SW,232,0.0,2.0,54,0.00,,,0.00,VWS V14.01,2013-02-20 23:07:00,
2013-02-20 18:08:00,31.2,16.1,30.09,NE,46,0.0,1.0,53,0.00,,,0.00,VWS V14.01,2013-02-20 23:08:00,
2013-02-20 18:09:00,31.2,16.1,30.09,SW,232,0.0,5.0,53,0.00,,,0.00,VWS V14.01,2013-02-20 23:09:00,
2013-02-20 18:10:00,31.1,16.0,30.09,East,91,0.0,5.0,53,0.00,,,0.00,VWS V14.01,2013-02-20 23:10:00,
2013-02-20 18:11:00,31.2,16.1,30.09,NE,44,3.0,5.0,53,0.00,,,0.00,VWS V14.01,2013-02-20 23:11:00,
2013-02-20 18:12:00,31.1,16.0,30.09,WNW,296,7.0,7.0,53,0.00,,,0.00,VWS V14.01,2013-02-20 23:12:00,
2013-02-20 18:13:00,31.1,16.0,30.09,North,355,0.0,7.0,53,0.00,,,0.00,VWS V14.01,2013-02-20 23:13:00,
2013-02-20 18:14:00,31.1,16.0,30.09,WNW,291,2.0,2.0,53,0.00,,,0.00,VWS V14.01,2013-02-20 23:14:00,
2013-02-20 18:15:00,31.1,15.5,30.10,West,280,2.0,5.0,52,0.00,,,0.00,VWS V14.01,2013-02-20 23:15:00,
2013-02-20 18:16:00,31.0,15.4,30.10,NNW,348,3.0,3.0,52,0.00,,,0.00,VWS V14.01,2013-02-20 23:16:00,
2013-02-20 18:17:00,31.0,15.4,30.10,WNW,300,2.0,7.0,52,0.00,,,0.00,VWS V14.01,2013-02-20 23:17:00,
2013-02-20 18:18:00,31.0,15.9,30.10,WNW,297,1.0,4.0,53,0.00,,,0.00,VWS V14.01,2013-02-20 23:18:00,
2013-02-20 18:19:00,31.0,15.4,30.09,West,278,2.0,5.0,52,0.00,,,0.00,VWS V14.01,2013-02-20 23:19:00,
2013-02-20 18:20:00,31.0,15.4,30.10,WSW,258,1.0,5.0,52,0.00,,,0.00,VWS V14.01,2013-02-20 23:20:00,
2013-02-20 18:21:00,30.9,15.4,30.10,West,279,2.0,2.0,52,0.00,,,0.00,VWS V14.01,2013-02-20 23:21:00,
2013-02-20 18:22:00,30.9,15.4,30.11,NNW,327,0.0,2.0,52,0.00,,,0.00,VWS V14.01,2013-02-20 23:22:00,
2013-02-20 18:23:00,30.9,15.4,30.10,NW,311,0.0,3.0,52,0.00,,,0.00,VWS V14.01,2013-02-20 23:23:00,
2013-02-20 18:24:00,30.8,15.3,30.11,NW,307,9.0,9.0,52,0.00,,,0.00,VWS V14.01,2013-02-20 23:24:00,
2013-02-20 18:25:00,30.8,15.7,30.11,NNW,335,1.0,9.0,53,0.00,,,0.00,VWS V14.01,2013-02-20 23:25:00,
2013-02-20 18:26:00,30.8,15.3,30.11,West,271,0.0,4.0,52,0.00,,,0.00,VWS V14.01,2013-02-20 23:26:00,
2013-02-20 18:27:00,30.8,15.3,30.11,South,190,4.0,4.0,52,0.00,,,0.00,VWS V14.01,2013-02-20 23:27:00,
2013-02-20 18:28:00,30.8,15.3,30.11,NNW,336,2.0,6.0,52,0.00,,,0.00,VWS V14.01,2013-02-20 23:28:00,
2013-02-20 18:29:00,30.7,15.2,30.11,NNW,336,2.0,5.0,52,0.00,,,0.00,VWS V14.01,2013-02-20 23:29:00,
2013-02-20 18:30:00,30.7,15.2,30.11,WNW,302,4.0,4.0,52,0.00,,,0.00,VWS V14.01,2013-02-20 23:30:00,
2013-02-20 18:31:00,30.7,15.2,30.11,North,349,5.0,7.0,52,0.00,,,0.00,VWS V14.01,2013-02-20 23:31:00,
2013-02-20 18:32:00,30.6,14.6,30.12,North,5,3.0,6.0,51,0.00,,,0.00,VWS V14.01,2013-02-20 23:32:00,
2013-02-20 18:33:00,30.6,14.6,30.12,NW,325,1.0,8.0,51,0.00,,,0.00,VWS V14.01,2013-02-20 23:33:00,
2013-02-20 18:34:00,30.6,14.6,30.12,West,281,4.0,6.0,51,0.00,,,0.00,VWS V14.01,2013-02-20 23:34:00,
2013-02-20 18:35:00,30.6,15.1,30.12,WSW,256,2.0,4.0,52,0.00,,,0.00,VWS V14.01,2013-02-20 23:35:00,
2013-02-20 18:36:00,30.5,15.0,30.12,SSW,205,0.0,4.0,52,0.00,,,0.00,VWS V14.01,2013-02-20 23:36:00,
2013-02-20 18:37:00,30.5,15.0,30.11,WNW,285,0.0,2.0,52,0.00,,,0.00,VWS V14.01,2013-02-20 23:37:00,
2013-02-20 18:38:00,30.5,15.0,30.12,WSW,257,1.0,3.0,52,0.00,,,0.00,VWS V14.01,2013-02-20 23:38:00,
2013-02-20 18:39:00,30.4,14.9,30.12,NNW,339,1.0,2.0,52,0.00,,,0.00,VWS V14.01,2013-02-20 23:39:00,
2013-02-20 18:40:00,30.4,14.9,30.12,NNW,342,3.0,6.0,52,0.00,,,0.00,VWS V14.01,2013-02-20 23:40:00,
2013-02-20 18:41:00,30.3,14.8,30.12,NW,304,8.0,10.0,52,0.00,,,0.00,VWS V14.01,2013-02-20 23:41:00,
2013-02-20 18:42:00,30.3,14.8,30.12,WNW,285,8.0,10.0,52,0.00,,,0.00,VWS V14.01,2013-02-20 23:42:00,
2013-02-20 18:43:00,30.3,14.4,30.12,NNW,327,3.0,6.0,51,0.00,,,0.00,VWS V14.01,2013-02-20 23:43:00,
2013-02-20 18:44:00,30.2,14.3,30.12,SSW,210,5.0,7.0,51,0.00,,,0.00,VWS V14.01,2013-02-20 23:44:00,
2013-02-20 18:45:00,30.2,14.3,30.12,WNW,289,0.0,8.0,51,0.00,,,0.00,VWS V14.01,2013-02-20 23:45:00,
2013-02-20 18:46:00,30.1,14.2,30.12,West,263,3.0,3.0,51,0.00,,,0.00,VWS V14.01,2013-02-20 23:46:00,
2013-02-20 18:47:00,30.1,14.6,30.12,West,260,5.0,9.0,52,0.00,,,0.00,VWS V14.01,2013-02-20 23:47:00,
2013-02-20 18:48:00,30.0,14.1,30.12,North,360,0.0,5.0,51,0.00,,,0.00,VWS V14.01,2013-02-20 23:48:00,
2013-02-20 18:49:00,30.0,14.1,30.12,NW,319,4.0,9.0,51,0.00,,,0.00,VWS V14.01,2013-02-20 23:49:00,
2013-02-20 18:50:00,30.0,14.5,30.12,WSW,257,4.0,7.0,52,0.00,,,0.00,VWS V14.01,2013-02-20 23:50:00,
2013-02-20 18:51:00,29.9,14.4,30.11,NNW,343,6.0,10.0,52,0.00,,,0.00,VWS V14.01,2013-02-20 23:51:00,
2013-02-20 18:52:00,29.9,14.4,30.12,WSW,257,5.0,5.0,52,0.00,,,0.00,VWS V14.01,2013-02-20 23:52:00,
2013-02-20 18:53:00,29.8,14.3,30.12,NW,324,0.0,5.0,52,0.00,,,0.00,VWS V14.01,2013-02-20 23:53:00,
2013-02-20 18:54:00,29.8,13.9,30.12,WSW,256,0.0,4.0,51,0.00,,,0.00,VWS V14.01,2013-02-20 23:54:00,
2013-02-20 18:55:00,29.8,14.8,30.12,WNW,299,0.0,2.0,53,0.00,,,0.00,VWS V14.01,2013-02-20 23:55:00,
2013-02-20 18:56:00,29.7,14.2,30.12,West,276,0.0,2.0,52,0.00,,,0.00,VWS V14.01,2013-02-20 23:56:00,
2013-02-20 18:57:00,29.7,14.2,30.12,West,260,0.0,1.0,52,0.00,,,0.00,VWS V14.01,2013-02-20 23:57:00,
2013-02-20 18:58:00,29.7,14.2,30.12,North,9,4.0,5.0,52,0.00,,,0.00,VWS V14.01,2013-02-20 23:58:00,
2013-02-20 18:59:00,29.7,14.2,30.12,NE,41,0.0,5.0,52,0.00,,,0.00,VWS V14.01,2013-02-20 23:59:00,
2013-02-20 19:00:00,29.6,13.7,30.12,NNW,338,6.0,7.0,51,0.00,,,0.00,VWS V14.01,2013-02-21 00:00:00,
2013-02-20 19:01:00,29.6,13.7,30.12,West,266,4.0,4.0,51,0.00,,,0.00,VWS V14.01,2013-02-21 00:01:00,
2013-02-20 19:02:00,29.6,13.7,30.12,WNW,288,2.0,9.0,51,0.00,,,0.00,VWS V14.01,2013-02-21 00:02:00,
2013-02-20 19:03:00,29.5,13.6,30.12,NW,304,0.0,4.0,51,0.00,,,0.00,VWS V14.01,2013-02-21 00:03:00,
2013-02-20 19:04:00,29.5,13.6,30.12,WSW,244,6.0,6.0,51,0.00,,,0.00,VWS V14.01,2013-02-21 00:04:00,
2013-02-20 19:05:00,29.4,13.5,30.12,NW,319,2.0,7.0,51,0.00,,,0.00,VWS V14.01,2013-02-21 00:05:00,
2013-02-20 19:06:00,29.4,13.5,30.12,NW,311,0.0,2.0,51,0.00,,,0.00,VWS V14.01,2013-02-21 00:06:00,
2013-02-20 19:07:00,29.4,13.5,30.12,WSW,250,1.0,5.0,51,0.00,,,0.00,VWS V14.01,2013-02-21 00:07:00,
2013-02-20 19:08:00,29.4,13.5,30.12,NNW,329,5.0,6.0,51,0.00,,,0.00,VWS V14.01,2013-02-21 00:08:00,
2013-02-20 19:09:00,29.3,13.4,30.12,WNW,286,2.0,5.0,51,0.00,,,0.00,VWS V14.01,2013-02-21 00:09:00,
2013-02-20 19:10:00,29.3,13.4,30.12,West,279,1.0,4.0,51,0.00,,,0.00,VWS V14.01,2013-02-21 00:10:00,
2013-02-20 19:11:00,29.3,13.4,30.12,WNW,299,2.0,4.0,51,0.00,,,0.00,VWS V14.01,2013-02-21 00:11:00,
2013-02-20 19:12:00,29.3,13.4,30.12,SW,229,2.0,2.0,51,0.00,,,0.00,VWS V14.01,2013-02-21 00:12:00,
2013-02-20 19:13:00,29.2,13.3,30.12,North,355,0.0,4.0,51,0.00,,,0.00,VWS V14.01,2013-02-21 00:13:00,
2013-02-20 19:14:00,29.2,13.3,30.12,NW,321,1.0,4.0,51,0.00,,,0.00,VWS V14.01,2013-02-21 00:14:00,
2013-02-20 19:15:00,29.2,13.8,30.12,West,267,1.0,2.0,52,0.00,,,0.00,VWS V14.01,2013-02-21 00:15:00,
2013-02-20 19:16:00,29.2,13.8,30.12,NNW,344,1.0,4.0,52,0.00,,,0.00,VWS V14.01,2013-02-21 00:16:00,
2013-02-20 19:17:00,29.1,13.2,30.12,West,267,0.0,4.0,51,0.00,,,0.00,VWS V14.01,2013-02-21 00:17:00,
2013-02-20 19:18:00,29.1,13.2,30.12,WSW,248,4.0,6.0,51,0.00,,,0.00,VWS V14.01,2013-02-21 00:18:00,
2013-02-20 19:19:00,29.1,13.2,30.13,West,277,1.0,8.0,51,0.00,,,0.00,VWS V14.01,2013-02-21 00:19:00,
2013-02-20 19:20:00,29.1,13.2,30.13,WSW,244,4.0,8.0,51,0.00,,,0.00,VWS V14.01,2013-02-21 00:20:00,
2013-02-20 19:21:00,29.0,12.7,30.13,WSW,258,6.0,6.0,50,0.00,,,0.00,VWS V14.01,2013-02-21 00:21:00,
2013-02-20 19:22:00,29.0,13.1,30.13,NE,49,1.0,5.0,51,0.00,,,0.00,VWS V14.01,2013-02-21 00:22:00,
2013-02-20 19:23:00,29.0,13.1,30.13,NNE,25,0.0,1.0,51,0.00,,,0.00,VWS V14.01,2013-02-21 00:23:00,
2013-02-20 19:24:00,29.0,13.1,30.13,NW,321,1.0,7.0,51,0.00,,,0.00,VWS V14.01,2013-02-21 00:24:00,
2013-02-20 19:25:00,29.0,13.1,30.13,SSW,211,2.0,4.0,51,0.00,,,0.00,VWS V14.01,2013-02-21 00:25:00,
2013-02-20 19:26:00,28.9,13.1,30.13,West,269,1.0,4.0,51,0.00,,,0.00,VWS V14.01,2013-02-21 00:26:00,
2013-02-20 19:27:00,28.9,13.1,30.13,WNW,282,1.0,2.0,51,0.00,,,0.00,VWS V14.01,2013-02-21 00:27:00,
2013-02-20 19:28:00,28.9,13.1,30.13,WNW,282,0.0,1.0,51,0.00,,,0.00,VWS V14.01,2013-02-21 00:28:00,
2013-02-20 19:29:00,28.9,13.5,30.13,WSW,254,0.0,2.0,52,0.00,,,0.00,VWS V14.01,2013-02-21 00:29:00,
2013-02-20 19:30:00,28.9,13.1,30.13,West,261,1.0,2.0,51,0.00,,,0.00,VWS V14.01,2013-02-21 00:30:00,
2013-02-20 19:31:00,28.9,13.5,30.13,WNW,296,0.0,2.0,52,0.00,,,0.00,VWS V14.01,2013-02-21 00:31:00,
2013-02-20 19:32:00,28.8,13.0,30.13,WNW,302,0.0,2.0,51,0.00,,,0.00,VWS V14.01,2013-02-21 00:32:00,
2013-02-20 19:33:00,28.8,13.0,30.13,North,5,1.0,3.0,51,0.00,,,0.00,VWS V14.01,2013-02-21 00:33:00,
2013-02-20 19:34:00,28.8,13.4,30.13,NNW,335,5.0,7.0,52,0.00,,,0.00,VWS V14.01,2013-02-21 00:34:00,
2013-02-20 19:35:00,28.8,13.0,30.13,West,271,0.0,2.0,51,0.00,,,0.00,VWS V14.01,2013-02-21 00:35:00,
2013-02-20 19:36:00,28.7,12.9,30.13,West,271,0.0,1.0,51,0.00,,,0.00,VWS V14.01,2013-02-21 00:36:00,
2013-02-20 19:37:00,28.7,12.9,30.13,NW,325,5.0,5.0,51,0.00,,,0.00,VWS V14.01,2013-02-21 00:37:00,
2013-02-20 19:38:00,28.7,12.9,30.13,WNW,295,0.0,4.0,51,0.00,,,0.00,VWS V14.01,2013-02-21 00:38:00,
2013-02-20 19:39:00,28.7,12.9,30.13,SW,232,0.0,1.0,51,0.00,,,0.00,VWS V14.01,2013-02-21 00:39:00,
2013-02-20 19:40:00,28.7,12.9,30.13,SW,232,1.0,2.0,51,0.00,,,0.00,VWS V14.01,2013-02-21 00:40:00,
2013-02-20 19:41:00,28.7,13.3,30.13,SW,232,0.0,1.0,52,0.00,,,0.00,VWS V14.01,2013-02-21 00:41:00,
2013-02-20 19:42:00,28.6,12.8,30.13,WNW,289,1.0,1.0,51,0.00,,,0.00,VWS V14.01,2013-02-21 00:42:00,
2013-02-20 19:43:00,28.6,12.8,30.13,NNW,332,0.0,2.0,51,0.00,,,0.00,VWS V14.01,2013-02-21 00:43:00,
2013-02-20 19:44:00,28.6,12.8,30.13,West,265,4.0,4.0,51,0.00,,,0.00,VWS V14.01,2013-02-21 00:44:00,
2013-02-20 19:45:00,28.6,12.8,30.13,NNE,22,1.0,4.0,51,0.00,,,0.00,VWS V14.01,2013-02-21 00:45:00,
2013-02-20 19:46:00,28.5,12.7,30.13,SSW,213,2.0,2.0,51,0.00,,,0.00,VWS V14.01,2013-02-21 00:46:00,
2013-02-20 19:47:00,28.5,12.7,30.12,WNW,292,0.0,1.0,51,0.00,,,0.00,VWS V14.01,2013-02-21 00:47:00,
2013-02-20 19:48:00,28.5,12.7,30.12,WSW,245,5.0,5.0,51,0.00,,,0.00,VWS V14.01,2013-02-21 00:48:00,
2013-02-20 19:49:00,28.5,12.7,30.12,WSW,252,2.0,8.0,51,0.00,,,0.00,VWS V14.01,2013-02-21 00:49:00,
2013-02-20 19:50:00,28.5,12.7,30.13,West,269,1.0,4.0,51,0.00,,,0.00,VWS V14.01,2013-02-21 00:50:00,
2013-02-20 19:51:00,28.5,12.7,30.13,NW,315,2.0,5.0,51,0.00,,,0.00,VWS V14.01,2013-02-21 00:51:00,
2013-02-20 19:52:00,28.5,12.7,30.13,West,275,4.0,4.0,51,0.00,,,0.00,VWS V14.01,2013-02-21 00:52:00,
2013-02-20 19:53:00,28.5,12.7,30.13,WSW,252,1.0,4.0,51,0.00,,,0.00,VWS V14.01,2013-02-21 00:53:00,
2013-02-20 19:54:00,28.5,12.7,30.13,WNW,295,0.0,2.0,51,0.00,,,0.00,VWS V14.01,2013-02-21 00:54:00,
2013-02-20 19:55:00,28.5,12.7,30.13,WNW,295,0.0,0.0,51,0.00,,,0.00,VWS V14.01,2013-02-21 00:55:00,
2013-02-20 19:56:00,28.5,12.7,30.13,North,350,1.0,4.0,51,0.00,,,0.00,VWS V14.01,2013-02-21 00:56:00,
2013-02-20 19:57:00,28.4,12.6,30.13,WNW,298,0.0,2.0,51,0.00,,,0.00,VWS V14.01,2013-02-21 00:57:00,
2013-02-20 19:58:00,28.5,12.7,30.13,ENE,61,1.0,2.0,51,0.00,,,0.00,VWS V14.01,2013-02-21 00:58:00,
2013-02-20 19:59:00,28.4,12.6,30.13,NW,307,5.0,6.0,51,0.00,,,0.00,VWS V14.01,2013-02-21 00:59:00,
2013-02-20 20:00:00,28.4,12.6,30.13,WNW,299,0.0,4.0,51,0.00,,,0.00,VWS V14.01,2013-02-21 01:00:00,
2013-02-20 20:01:00,28.4,12.6,30.13,NW,315,1.0,6.0,51,0.00,,,0.00,VWS V14.01,2013-02-21 01:01:00,
2013-02-20 20:02:00,28.4,12.6,30.13,WNW,302,2.0,2.0,51,0.00,,,0.00,VWS V14.01,2013-02-21 01:02:00,
2013-02-20 20:03:00,28.4,12.6,30.13,WNW,295,0.0,2.0,51,0.00,,,0.00,VWS V14.01,2013-02-21 01:03:00,
2013-02-20 20:04:00,28.3,12.5,30.13,NW,316,0.0,3.0,51,0.00,,,0.00,VWS V14.01,2013-02-21 01:04:00,
2013-02-20 20:05:00,28.3,12.5,30.13,NW,316,0.0,1.0,51,0.00,,,0.00,VWS V14.01,2013-02-21 01:05:00,
2013-02-20 20:06:00,28.3,12.5,30.13,WNW,302,0.0,2.0,51,0.00,,,0.00,VWS V14.01,2013-02-21 01:06:00,
2013-02-20 20:07:00,28.3,12.5,30.13,NW,316,1.0,1.0,51,0.00,,,0.00,VWS V14.01,2013-02-21 01:07:00,
2013-02-20 20:08:00,28.3,12.9,30.13,WSW,252,6.0,6.0,52,0.00,,,0.00,VWS V14.01,2013-02-21 01:08:00,
2013-02-20 20:09:00,28.3,12.9,30.13,West,279,0.0,5.0,52,0.00,,,0.00,VWS V14.01,2013-02-21 01:09:00,
2013-02-20 20:10:00,28.3,12.5,30.13,West,279,0.0,1.0,51,0.00,,,0.00,VWS V14.01,2013-02-21 01:10:00,
2013-02-20 20:11:00,28.2,12.9,30.13,West,279,0.0,1.0,52,0.00,,,0.00,VWS V14.01,2013-02-21 01:11:00,
2013-02-20 20:12:00,28.3,12.9,30.13,West,279,0.0,1.0,52,0.00,,,0.00,VWS V14.01,2013-02-21 01:12:00,
2013-02-20 20:13:00,28.2,12.9,30.13,WNW,298,0.0,6.0,52,0.00,,,0.00,VWS V14.01,2013-02-21 01:13:00,
2013-02-20 20:14:00,28.2,12.9,30.14,SSW,202,0.0,1.0,52,0.00,,,0.00,VWS V14.01,2013-02-21 01:14:00,
2013-02-20 20:15:00,28.2,12.9,30.14,SSW,202,0.0,1.0,52,0.00,,,0.00,VWS V14.01,2013-02-21 01:15:00,
2013-02-20 20:16:00,28.2,12.9,30.14,SSW,202,0.0,1.0,52,0.00,,,0.00,VWS V14.01,2013-02-21 01:16:00,
2013-02-20 20:17:00,28.2,12.9,30.14,WNW,297,2.0,3.0,52,0.00,,,0.00,VWS V14.01,2013-02-21 01:17:00,
2013-02-20 20:18:00,28.1,12.8,30.14,WNW,297,0.0,1.0,52,0.00,,,0.00,VWS V14.01,2013-02-21 01:18:00,
2013-02-20 20:19:00,28.1,12.8,30.13,WNW,297,0.0,1.0,52,0.00,,,0.00,VWS V14.01,2013-02-21 01:19:00,
2013-02-20 20:20:00,28.1,12.8,30.14,West,280,0.0,1.0,52,0.00,,,0.00,VWS V14.01,2013-02-21 01:20:00,
2013-02-20 20:21:00,28.1,12.8,30.14,NNW,327,0.0,4.0,52,0.00,,,0.00,VWS V14.01,2013-02-21 01:21:00,
2013-02-20 20:22:00,28.1,12.8,30.13,NW,317,0.0,1.0,52,0.00,,,0.00,VWS V14.01,2013-02-21 01:22:00,
2013-02-20 20:23:00,28.1,12.8,30.13,North,355,1.0,1.0,52,0.00,,,0.00,VWS V14.01,2013-02-21 01:23:00,
2013-02-20 20:24:00,28.1,12.8,30.14,SW,228,1.0,3.0,52,0.00,,,0.00,VWS V14.01,2013-02-21 01:24:00,
2013-02-20 20:25:00,28.1,12.8,30.14,West,276,1.0,4.0,52,0.00,,,0.00,VWS V14.01,2013-02-21 01:25:00,
2013-02-20 20:26:00,28.0,12.7,30.14,West,263,1.0,2.0,52,0.00,,,0.00,VWS V14.01,2013-02-21 01:26:00,
2013-02-20 20:27:00,28.0,12.7,30.14,West,264,0.0,1.0,52,0.00,,,0.00,VWS V14.01,2013-02-21 01:27:00,
2013-02-20 20:28:00,28.0,12.7,30.14,West,263,2.0,2.0,52,0.00,,,0.00,VWS V14.01,2013-02-21 01:28:00,
2013-02-20 20:29:00,28.0,12.7,30.14,West,263,0.0,2.0,52,0.00,,,0.00,VWS V14.01,2013-02-21 01:29:00,
2013-02-20 20:30:00,28.0,12.7,30.14,West,263,0.0,2.0,52,0.00,,,0.00,VWS V14.01,2013-02-21 01:30:00,
2013-02-20 20:31:00,28.0,12.7,30.14,WSW,250,0.0,5.0,52,0.00,,,0.00,VWS V14.01,2013-02-21 01:31:00,
2013-02-20 20:32:00,28.0,12.7,30.14,WSW,250,0.0,1.0,52,0.00,,,0.00,VWS V14.01,2013-02-21 01:32:00,
2013-02-20 20:33:00,28.0,12.7,30.14,West,263,0.0,2.0,52,0.00,,,0.00,VWS V14.01,2013-02-21 01:33:00,
2013-02-20 20:34:00,28.0,12.7,30.14,West,263,0.0,2.0,52,0.00,,,0.00,VWS V14.01,2013-02-21 01:34:00,
2013-02-20 20:35:00,28.0,12.7,30.14,WNW,294,0.0,1.0,52,0.00,,,0.00,VWS V14.01,2013-02-21 01:35:00,
2013-02-20 20:36:00,28.0,12.7,30.14,West,265,0.0,2.0,52,0.00,,,0.00,VWS V14.01,2013-02-21 01:36:00,
2013-02-20 20:37:00,27.9,12.6,30.14,NNW,336,5.0,5.0,52,0.00,,,0.00,VWS V14.01,2013-02-21 01:37:00,
2013-02-20 20:38:00,27.9,12.6,30.14,NW,318,0.0,5.0,52,0.00,,,0.00,VWS V14.01,2013-02-21 01:38:00,
2013-02-20 20:39:00,27.9,12.6,30.14,WNW,299,1.0,2.0,52,0.00,,,0.00,VWS V14.01,2013-02-21 01:39:00,
2013-02-20 20:40:00,27.9,12.6,30.14,WNW,299,1.0,1.0,52,0.00,,,0.00,VWS V14.01,2013-02-21 01:40:00,
2013-02-20 20:41:00,27.9,12.6,30.14,WNW,286,0.0,2.0,52,0.00,,,0.00,VWS V14.01,2013-02-21 01:41:00,
2013-02-20 20:42:00,27.9,12.6,30.14,WNW,286,0.0,1.0,52,0.00,,,0.00,VWS V14.01,2013-02-21 01:42:00,
2013-02-20 20:43:00,27.9,12.6,30.14,WNW,286,0.0,1.0,52,0.00,,,0.00,VWS V14.01,2013-02-21 01:43:00,
2013-02-20 20:44:00,27.9,13.0,30.14,WNW,286,0.0,1.0,53,0.00,,,0.00,VWS V14.01,2013-02-21 01:44:00,
2013-02-20 20:45:00,27.9,12.6,30.14,WNW,286,0.0,0.0,52,0.00,,,0.00,VWS V14.01,2013-02-21 01:45:00,
2013-02-20 20:46:00,27.9,12.6,30.14,WSW,250,1.0,3.0,52,0.00,,,0.00,VWS V14.01,2013-02-21 01:46:00,
2013-02-20 20:47:00,27.8,12.5,30.14,West,265,1.0,7.0,52,0.00,,,0.00,VWS V14.01,2013-02-21 01:47:00,
2013-02-20 20:48:00,27.8,12.5,30.14,West,271,1.0,2.0,52,0.00,,,0.00,VWS V14.01,2013-02-21 01:48:00,
2013-02-20 20:49:00,27.8,12.5,30.14,WNW,294,1.0,1.0,52,0.00,,,0.00,VWS V14.01,2013-02-21 01:49:00,
2013-02-20 20:50:00,27.8,12.5,30.14,WNW,294,0.0,1.0,52,0.00,,,0.00,VWS V14.01,2013-02-21 01:50:00,
2013-02-20 20:51:00,27.8,12.5,30.14,WNW,302,2.0,7.0,52,0.00,,,0.00,VWS V14.01,2013-02-21 01:51:00,
2013-02-20 20:52:00,27.8,12.5,30.14,WNW,299,0.0,1.0,52,0.00,,,0.00,VWS V14.01,2013-02-21 01:52:00,
2013-02-20 20:53:00,27.8,12.9,30.14,WNW,299,0.0,1.0,53,0.00,,,0.00,VWS V14.01,2013-02-21 01:53:00,
2013-02-20 20:54:00,27.8,12.9,30.15,WNW,299,0.0,0.0,53,0.00,,,0.00,VWS V14.01,2013-02-21 01:54:00,
2013-02-20 20:55:00,27.8,12.9,30.15,WNW,299,0.0,0.0,53,0.00,,,0.00,VWS V14.01,2013-02-21 01:55:00,
2013-02-20 20:56:00,27.7,12.8,30.15,WNW,299,0.0,0.0,53,0.00,,,0.00,VWS V14.01,2013-02-21 01:56:00,
2013-02-20 20:57:00,27.7,12.8,30.15,WNW,299,0.0,1.0,53,0.00,,,0.00,VWS V14.01,2013-02-21 01:57:00,
2013-02-20 20:58:00,27.7,12.8,30.15,WNW,299,0.0,1.0,53,0.00,,,0.00,VWS V14.01,2013-02-21 01:58:00,
2013-02-20 20:59:00,27.7,12.8,30.15,WNW,299,0.0,1.0,53,0.00,,,0.00,VWS V14.01,2013-02-21 01:59:00,
2013-02-20 21:00:00,27.7,12.8,30.14,WNW,299,0.0,1.0,53,0.00,,,0.00,VWS V14.01,2013-02-21 02:00:00,
2013-02-20 21:01:00,27.6,12.7,30.14,WNW,299,0.0,0.0,53,0.00,,,0.00,VWS V14.01,2013-02-21 02:01:00,
2013-02-20 21:02:00,27.6,12.7,30.14,WNW,299,1.0,1.0,53,0.00,,,0.00,VWS V14.01,2013-02-21 02:02:00,
2013-02-20 21:03:00,27.6,12.7,30.14,North,9,0.0,3.0,53,0.00,,,0.00,VWS V14.01,2013-02-21 02:03:00,
2013-02-20 21:04:00,27.6,12.7,30.15,NW,326,0.0,2.0,53,0.00,,,0.00,VWS V14.01,2013-02-21 02:04:00,
2013-02-20 21:05:00,27.6,12.7,30.15,NW,326,0.0,1.0,53,0.00,,,0.00,VWS V14.01,2013-02-21 02:05:00,
2013-02-20 21:06:00,27.6,12.7,30.14,NW,326,0.0,0.0,53,0.00,,,0.00,VWS V14.01,2013-02-21 02:06:00,
2013-02-20 21:07:00,27.5,12.6,30.14,NW,305,1.0,1.0,53,0.00,,,0.00,VWS V14.01,2013-02-21 02:07:00,
2013-02-20 21:08:00,27.5,13.1,30.14,West,261,1.0,8.0,54,0.00,,,0.00,VWS V14.01,2013-02-21 02:08:00,
2013-02-20 21:09:00,27.5,12.6,30.14,WNW,285,1.0,2.0,53,0.00,,,0.00,VWS V14.01,2013-02-21 02:09:00,
2013-02-20 21:10:00,27.5,12.6,30.14,NNE,17,0.0,4.0,53,0.00,,,0.00,VWS V14.01,2013-02-21 02:10:00,
2013-02-20 21:11:00,27.5,12.6,30.14,NNE,17,0.0,1.0,53,0.00,,,0.00,VWS V14.01,2013-02-21 02:11:00,
2013-02-20 21:12:00,27.5,12.6,30.15,North,360,2.0,3.0,53,0.00,,,0.00,VWS V14.01,2013-02-21 02:12:00,
2013-02-20 21:13:00,27.5,12.6,30.14,North,11,0.0,2.0,53,0.00,,,0.00,VWS V14.01,2013-02-21 02:13:00,
2013-02-20 21:14:00,27.5,12.6,30.15,NW,317,0.0,1.0,53,0.00,,,0.00,VWS V14.01,2013-02-21 02:14:00,
2013-02-20 21:15:00,27.5,12.6,30.15,NW,317,0.0,0.0,53,0.00,,,0.00,VWS V14.01,2013-02-21 02:15:00,
2013-02-20 21:16:00,27.5,12.6,30.15,NW,317,0.0,0.0,53,0.00,,,0.00,VWS V14.01,2013-02-21 02:16:00,
2013-02-20 21:17:00,27.4,12.5,30.15,NW,317,0.0,1.0,53,0.00,,,0.00,VWS V14.01,2013-02-21 02:17:00,
2013-02-20 21:18:00,27.4,12.5,30.15,West,264,0.0,1.0,53,0.00,,,0.00,VWS V14.01,2013-02-21 02:18:00,
2013-02-20 21:19:00,27.4,12.5,30.15,NW,321,1.0,4.0,53,0.00,,,0.00,VWS V14.01,2013-02-21 02:19:00,
2013-02-20 21:20:00,27.4,12.5,30.15,NW,314,0.0,4.0,53,0.00,,,0.00,VWS V14.01,2013-02-21 02:20:00,
2013-02-20 21:21:00,27.4,12.5,30.15,NW,314,0.0,1.0,53,0.00,,,0.00,VWS V14.01,2013-02-21 02:21:00,
2013-02-20 21:22:00,27.4,13.0,30.15,West,259,1.0,2.0,54,0.00,,,0.00,VWS V14.01,2013-02-21 02:22:00,
2013-02-20 21:23:00,27.4,13.0,30.15,WSW,257,1.0,2.0,54,0.00,,,0.00,VWS V14.01,2013-02-21 02:23:00,
2013-02-20 21:24:00,27.4,13.0,30.15,West,259,0.0,1.0,54,0.00,,,0.00,VWS V14.01,2013-02-21 02:24:00,
2013-02-20 21:25:00,27.4,13.0,30.15,ENE,61,1.0,10.0,54,0.00,,,0.00,VWS V14.01,2013-02-21 02:25:00,
2013-02-20 21:26:00,27.4,12.5,30.15,NE,44,0.0,1.0,53,0.00,,,0.00,VWS V14.01,2013-02-21 02:26:00,
2013-02-20 21:27:00,27.4,12.5,30.15,West,281,0.0,2.0,53,0.00,,,0.00,VWS V14.01,2013-02-21 02:27:00,
2013-02-20 21:28:00,27.4,12.5,30.15,West,270,1.0,2.0,53,0.00,,,0.00,VWS V14.01,2013-02-21 02:28:00,
2013-02-20 21:29:00,27.4,12.5,30.15,West,272,5.0,6.0,53,0.00,,,0.00,VWS V14.01,2013-02-21 02:29:00,
2013-02-20 21:30:00,27.4,12.5,30.15,WNW,298,0.0,4.0,53,0.00,,,0.00,VWS V14.01,2013-02-21 02:30:00,
2013-02-20 21:31:00,27.4,12.5,30.15,WNW,298,0.0,1.0,53,0.00,,,0.00,VWS V14.01,2013-02-21 02:31:00,
2013-02-20 21:32:00,27.4,13.0,30.15,NNW,339,1.0,2.0,54,0.00,,,0.00,VWS V14.01,2013-02-21 02:32:00,
2013-02-20 21:33:00,27.4,13.0,30.15,West,263,2.0,2.0,54,0.00,,,0.00,VWS V14.01,2013-02-21 02:33:00,
2013-02-20 21:34:00,27.3,12.4,30.15,WSW,257,1.0,4.0,53,0.00,,,0.00,VWS V14.01,2013-02-21 02:34:00,
2013-02-20 21:35:00,27.4,13.0,30.15,WSW,257,0.0,1.0,54,0.00,,,0.00,VWS V14.01,2013-02-21 02:35:00,
2013-02-20 21:36:00,27.3,12.4,30.15,WSW,257,1.0,1.0,53,0.00,,,0.00,VWS V14.01,2013-02-21 02:36:00,
2013-02-20 21:37:00,27.3,12.4,30.15,NW,311,1.0,1.0,53,0.00,,,0.00,VWS V14.01,2013-02-21 02:37:00,
2013-02-20 21:38:00,27.3,12.9,30.15,West,264,0.0,2.0,54,0.00,,,0.00,VWS V14.01,2013-02-21 02:38:00,
2013-02-20 21:39:00,27.3,12.9,30.15,West,261,0.0,1.0,54,0.00,,,0.00,VWS V14.01,2013-02-21 02:39:00,
2013-02-20 21:40:00,27.3,12.9,30.15,West,261,0.0,1.0,54,0.00,,,0.00,VWS V14.01,2013-02-21 02:40:00,
2013-02-20 21:41:00,27.3,12.9,30.15,West,261,0.0,0.0,54,0.00,,,0.00,VWS V14.01,2013-02-21 02:41:00,
2013-02-20 21:42:00,27.3,12.9,30.15,NW,305,2.0,2.0,54,0.00,,,0.00,VWS V14.01,2013-02-21 02:42:00,
2013-02-20 21:43:00,27.2,12.8,30.15,NW,305,0.0,1.0,54,0.00,,,0.00,VWS V14.01,2013-02-21 02:43:00,
2013-02-20 21:44:00,27.2,12.8,30.15,SSW,209,1.0,2.0,54,0.00,,,0.00,VWS V14.01,2013-02-21 02:44:00,
2013-02-20 21:45:00,27.2,12.8,30.16,WSW,244,0.0,2.0,54,0.00,,,0.00,VWS V14.01,2013-02-21 02:45:00,
2013-02-20 21:46:00,27.2,13.2,30.15,WSW,244,0.0,0.0,55,0.00,,,0.00,VWS V14.01,2013-02-21 02:46:00,
2013-02-20 21:47:00,27.2,13.2,30.15,WSW,244,0.0,1.0,55,0.00,,,0.00,VWS V14.01,2013-02-21 02:47:00,
2013-02-20 21:48:00,27.2,12.8,30.15,WSW,244,0.0,2.0,54,0.00,,,0.00,VWS V14.01,2013-02-21 02:48:00,
2013-02-20 21:49:00,27.1,12.7,30.16,WSW,244,0.0,0.0,54,0.00,,,0.00,VWS V14.01,2013-02-21 02:49:00,
2013-02-20 21:50:00,27.1,12.7,30.16,WSW,244,0.0,0.0,54,0.00,,,0.00,VWS V14.01,2013-02-21 02:50:00,
2013-02-20 21:51:00,27.1,12.7,30.15,WSW,244,0.0,2.0,54,0.00,,,0.00,VWS V14.01,2013-02-21 02:51:00,
2013-02-20 21:52:00,27.1,12.7,30.16,WSW,244,0.0,0.0,54,0.00,,,0.00,VWS V14.01,2013-02-21 02:52:00,
2013-02-20 21:53:00,27.1,13.1,30.16,NW,311,1.0,2.0,55,0.00,,,0.00,VWS V14.01,2013-02-21 02:53:00,
2013-02-20 21:54:00,27.0,12.6,30.16,NW,311,0.0,1.0,54,0.00,,,0.00,VWS V14.01,2013-02-21 02:54:00,
2013-02-20 21:55:00,27.0,13.0,30.16,NNE,30,2.0,7.0,55,0.00,,,0.00,VWS V14.01,2013-02-21 02:55:00,
2013-02-20 21:56:00,27.0,13.0,30.15,NW,319,0.0,2.0,55,0.00,,,0.00,VWS V14.01,2013-02-21 02:56:00,
2013-02-20 21:57:00,27.0,12.6,30.15,NW,319,0.0,1.0,54,0.00,,,0.00,VWS V14.01,2013-02-21 02:57:00,
2013-02-20 21:58:00,27.0,13.0,30.15,West,276,0.0,2.0,55,0.00,,,0.00,VWS V14.01,2013-02-21 02:58:00,
2013-02-20 21:59:00,27.0,13.0,30.15,West,277,0.0,1.0,55,0.00,,,0.00,VWS V14.01,2013-02-21 02:59:00,
2013-02-20 22:00:00,26.9,12.9,30.15,WNW,286,4.0,4.0,55,0.00,,,0.00,VWS V14.01,2013-02-21 03:00:00,
2013-02-20 22:01:00,26.9,12.9,30.15,WNW,284,2.0,2.0,55,0.00,,,0.00,VWS V14.01,2013-02-21 03:01:00,
2013-02-20 22:02:00,26.9,12.9,30.15,North,355,0.0,4.0,55,0.00,,,0.00,VWS V14.01,2013-02-21 03:02:00,
2013-02-20 22:03:00,26.9,12.9,30.15,NW,311,1.0,1.0,55,0.00,,,0.00,VWS V14.01,2013-02-21 03:03:00,
2013-02-20 22:04:00,26.9,12.9,30.15,WSW,252,1.0,4.0,55,0.00,,,0.00,VWS V14.01,2013-02-21 03:04:00,
2013-02-20 22:05:00,26.9,12.9,30.15,WNW,298,0.0,3.0,55,0.00,,,0.00,VWS V14.01,2013-02-21 03:05:00,
2013-02-20 22:06:00,26.9,12.9,30.15,WNW,298,0.0,1.0,55,0.00,,,0.00,VWS V14.01,2013-02-21 03:06:00,
2013-02-20 22:07:00,26.9,12.9,30.15,WNW,298,0.0,3.0,55,0.00,,,0.00,VWS V14.01,2013-02-21 03:07:00,
2013-02-20 22:08:00,26.9,12.9,30.15,WNW,289,2.0,2.0,55,0.00,,,0.00,VWS V14.01,2013-02-21 03:08:00,
2013-02-20 22:09:00,26.8,12.8,30.15,WNW,292,1.0,4.0,55,0.00,,,0.00,VWS V14.01,2013-02-21 03:09:00,
2013-02-20 22:10:00,26.8,12.8,30.15,WNW,292,0.0,2.0,55,0.00,,,0.00,VWS V14.01,2013-02-21 03:10:00,
2013-02-20 22:11:00,26.8,12.8,30.15,West,268,4.0,7.0,55,0.00,,,0.00,VWS V14.01,2013-02-21 03:11:00,
2013-02-20 22:12:00,26.8,12.8,30.15,NW,305,1.0,5.0,55,0.00,,,0.00,VWS V14.01,2013-02-21 03:12:00,
2013-02-20 22:13:00,26.8,12.8,30.15,WNW,292,0.0,2.0,55,0.00,,,0.00,VWS V14.01,2013-02-21 03:13:00,
2013-02-20 22:14:00,26.7,13.1,30.15,North,360,1.0,2.0,56,0.00,,,0.00,VWS V14.01,2013-02-21 03:14:00,
2013-02-20 22:15:00,26.8,13.2,30.15,NW,319,2.0,2.0,56,0.00,,,0.00,VWS V14.01,2013-02-21 03:15:00,
2013-02-20 22:16:00,26.8,13.2,30.15,NW,314,0.0,2.0,56,0.00,,,0.00,VWS V14.01,2013-02-21 03:16:00,
2013-02-20 22:17:00,26.7,13.1,30.15,NW,314,0.0,0.0,56,0.00,,,0.00,VWS V14.01,2013-02-21 03:17:00,
2013-02-20 22:18:00,26.7,13.1,30.15,NW,314,0.0,1.0,56,0.00,,,0.00,VWS V14.01,2013-02-21 03:18:00,
2013-02-20 22:19:00,26.7,13.1,30.15,West,261,0.0,2.0,56,0.00,,,0.00,VWS V14.01,2013-02-21 03:19:00,
2013-02-20 22:20:00,26.7,13.1,30.15,WSW,240,0.0,2.0,56,0.00,,,0.00,VWS V14.01,2013-02-21 03:20:00,
2013-02-20 22:21:00,26.7,13.1,30.15,WSW,253,1.0,4.0,56,0.00,,,0.00,VWS V14.01,2013-02-21 03:21:00,
2013-02-20 22:22:00,26.7,13.1,30.15,WNW,286,0.0,2.0,56,0.00,,,0.00,VWS V14.01,2013-02-21 03:22:00,
2013-02-20 22:23:00,26.7,13.1,30.15,WNW,294,0.0,2.0,56,0.00,,,0.00,VWS V14.01,2013-02-21 03:23:00,
2013-02-20 22:24:00,26.7,13.1,30.16,WNW,294,0.0,1.0,56,0.00,,,0.00,VWS V14.01,2013-02-21 03:24:00,
2013-02-20 22:25:00,26.7,13.1,30.16,West,279,0.0,1.0,56,0.00,,,0.00,VWS V14.01,2013-02-21 03:25:00,
2013-02-20 22:26:00,26.7,13.1,30.16,West,280,1.0,1.0,56,0.00,,,0.00,VWS V14.01,2013-02-21 03:26:00,
2013-02-20 22:27:00,26.7,13.1,30.16,WNW,284,0.0,1.0,56,0.00,,,0.00,VWS V14.01,2013-02-21 03:27:00,
2013-02-20 22:28:00,26.7,13.1,30.16,West,279,0.0,2.0,56,0.00,,,0.00,VWS V14.01,2013-02-21 03:28:00,
2013-02-20 22:29:00,26.7,13.1,30.15,West,279,0.0,1.0,56,0.00,,,0.00,VWS V14.01,2013-02-21 03:29:00,
2013-02-20 22:30:00,26.6,13.0,30.15,West,279,2.0,2.0,56,0.00,,,0.00,VWS V14.01,2013-02-21 03:30:00,
2013-02-20 22:31:00,26.6,13.4,30.15,West,277,0.0,2.0,57,0.00,,,0.00,VWS V14.01,2013-02-21 03:31:00,
2013-02-20 22:32:00,26.6,13.4,30.15,West,277,1.0,2.0,57,0.00,,,0.00,VWS V14.01,2013-02-21 03:32:00,
2013-02-20 22:33:00,26.6,13.4,30.15,West,278,1.0,2.0,57,0.00,,,0.00,VWS V14.01,2013-02-21 03:33:00,
2013-02-20 22:34:00,26.6,13.4,30.15,West,280,0.0,2.0,57,0.00,,,0.00,VWS V14.01,2013-02-21 03:34:00,
2013-02-20 22:35:00,26.6,13.4,30.15,WSW,246,2.0,2.0,57,0.00,,,0.00,VWS V14.01,2013-02-21 03:35:00,
2013-02-20 22:36:00,26.6,13.4,30.15,WSW,246,0.0,2.0,57,0.00,,,0.00,VWS V14.01,2013-02-21 03:36:00,
2013-02-20 22:37:00,26.6,13.4,30.15,West,265,1.0,1.0,57,0.00,,,0.00,VWS V14.01,2013-02-21 03:37:00,
2013-02-20 22:38:00,26.6,13.4,30.15,NW,311,0.0,2.0,57,0.00,,,0.00,VWS V14.01,2013-02-21 03:38:00,
2013-02-20 22:39:00,26.5,13.3,30.15,NW,322,8.0,9.0,57,0.00,,,0.00,VWS V14.01,2013-02-21 03:39:00,
2013-02-20 22:40:00,26.5,13.3,30.15,WSW,240,1.0,4.0,57,0.00,,,0.00,VWS V14.01,2013-02-21 03:40:00,
2013-02-20 22:41:00,26.5,13.3,30.15,NNW,331,1.0,5.0,57,0.00,,,0.00,VWS V14.01,2013-02-21 03:41:00,
2013-02-20 22:42:00,26.5,13.3,30.15,NNE,13,5.0,5.0,57,0.00,,,0.00,VWS V14.01,2013-02-21 03:42:00,
2013-02-20 22:43:00,26.5,13.3,30.15,WSW,250,5.0,5.0,57,0.00,,,0.00,VWS V14.01,2013-02-21 03:43:00,
2013-02-20 22:44:00,26.5,13.3,30.15,West,278,0.0,3.0,57,0.00,,,0.00,VWS V14.01,2013-02-21 03:44:00,
2013-02-20 22:45:00,26.5,13.3,30.15,NNE,16,0.0,4.0,57,0.00,,,0.00,VWS V14.01,2013-02-21 03:45:00,
2013-02-20 22:46:00,26.5,12.9,30.15,NW,311,0.0,4.0,56,0.00,,,0.00,VWS V14.01,2013-02-21 03:46:00,
2013-02-20 22:47:00,26.5,13.3,30.15,West,266,0.0,3.0,57,0.00,,,0.00,VWS V14.01,2013-02-21 03:47:00,
2013-02-20 22:48:00,26.5,13.3,30.15,WNW,302,0.0,2.0,57,0.00,,,0.00,VWS V14.01,2013-02-21 03:48:00,
2013-02-20 22:49:00,26.5,13.3,30.15,WNW,302,0.0,0.0,57,0.00,,,0.00,VWS V14.01,2013-02-21 03:49:00,
2013-02-20 22:50:00,26.5,13.3,30.15,NW,323,2.0,2.0,57,0.00,,,0.00,VWS V14.01,2013-02-21 03:50:00,
2013-02-20 22:51:00,26.5,13.3,30.15,NW,306,0.0,2.0,57,0.00,,,0.00,VWS V14.01,2013-02-21 03:51:00,
2013-02-20 22:52:00,26.5,13.3,30.15,West,278,0.0,2.0,57,0.00,,,0.00,VWS V14.01,2013-02-21 03:52:00,
2013-02-20 22:53:00,26.5,13.3,30.15,West,263,7.0,8.0,57,0.00,,,0.00,VWS V14.01,2013-02-21 03:53:00,
2013-02-20 22:54:00,26.4,13.2,30.15,NW,316,4.0,7.0,57,0.00,,,0.00,VWS V14.01,2013-02-21 03:54:00,
2013-02-20 22:55:00,26.5,13.3,30.15,North,355,0.0,4.0,57,0.00,,,0.00,VWS V14.01,2013-02-21 03:55:00,
2013-02-20 22:56:00,26.4,13.2,30.15,NNW,333,1.0,7.0,57,0.00,,,0.00,VWS V14.01,2013-02-21 03:56:00,
2013-02-20 22:57:00,26.5,13.3,30.15,NW,311,1.0,5.0,57,0.00,,,0.00,VWS V14.01,2013-02-21 03:57:00,
2013-02-20 22:58:00,26.4,13.2,30.15,NW,306,2.0,4.0,57,0.00,,,0.00,VWS V14.01,2013-02-21 03:58:00,
2013-02-20 22:59:00,26.4,13.2,30.15,WNW,283,4.0,5.0,57,0.00,,,0.00,VWS V14.01,2013-02-21 03:59:00,
2013-02-20 23:00:00,26.5,13.3,30.15,NW,315,4.0,5.0,57,0.00,,,0.00,VWS V14.01,2013-02-21 04:00:00,
2013-02-20 23:01:00,26.4,13.2,30.15,WSW,244,1.0,5.0,57,0.00,,,0.00,VWS V14.01,2013-02-21 04:01:00,
2013-02-20 23:02:00,26.4,13.2,30.15,West,259,2.0,2.0,57,0.00,,,0.00,VWS V14.01,2013-02-21 04:02:00,
2013-02-20 23:03:00,26.4,13.2,30.15,NNW,338,1.0,2.0,57,0.00,,,0.00,VWS V14.01,2013-02-21 04:03:00,
2013-02-20 23:04:00,26.4,13.2,30.15,WNW,299,0.0,1.0,57,0.00,,,0.00,VWS V14.01,2013-02-21 04:04:00,
2013-02-20 23:05:00,26.4,13.2,30.14,SW,229,1.0,5.0,57,0.00,,,0.00,VWS V14.01,2013-02-21 04:05:00,
2013-02-20 23:06:00,26.4,13.2,30.15,SW,232,1.0,1.0,57,0.00,,,0.00,VWS V14.01,2013-02-21 04:06:00,
2013-02-20 23:07:00,26.4,13.6,30.15,SW,236,0.0,1.0,58,0.00,,,0.00,VWS V14.01,2013-02-21 04:07:00,
2013-02-20 23:08:00,26.4,13.6,30.15,NW,307,0.0,3.0,58,0.00,,,0.00,VWS V14.01,2013-02-21 04:08:00,
2013-02-20 23:09:00,26.4,13.2,30.15,West,270,1.0,2.0,57,0.00,,,0.00,VWS V14.01,2013-02-21 04:09:00,
2013-02-20 23:10:00,26.3,13.1,30.14,WNW,303,3.0,4.0,57,0.00,,,0.00,VWS V14.01,2013-02-21 04:10:00,
2013-02-20 23:11:00,26.4,13.2,30.14,WSW,238,0.0,4.0,57,0.00,,,0.00,VWS V14.01,2013-02-21 04:11:00,
2013-02-20 23:12:00,26.3,13.1,30.14,West,280,0.0,1.0,57,0.00,,,0.00,VWS V14.01,2013-02-21 04:12:00,
2013-02-20 23:13:00,26.3,13.1,30.15,West,280,1.0,1.0,57,0.00,,,0.00,VWS V14.01,2013-02-21 04:13:00,
2013-02-20 23:14:00,26.3,13.6,30.15,West,280,0.0,1.0,58,0.00,,,0.00,VWS V14.01,2013-02-21 04:14:00,
2013-02-20 23:15:00,26.3,13.6,30.15,NNW,337,0.0,2.0,58,0.00,,,0.00,VWS V14.01,2013-02-21 04:15:00,
2013-02-20 23:16:00,26.3,13.6,30.14,West,276,0.0,4.0,58,0.00,,,0.00,VWS V14.01,2013-02-21 04:16:00,
2013-02-20 23:17:00,26.3,13.6,30.15,NW,323,2.0,4.0,58,0.00,,,0.00,VWS V14.01,2013-02-21 04:17:00,
2013-02-20 23:18:00,26.3,13.6,30.15,WSW,254,4.0,6.0,58,0.00,,,0.00,VWS V14.01,2013-02-21 04:18:00,
2013-02-20 23:19:00,26.3,13.6,30.14,West,261,2.0,4.0,58,0.00,,,0.00,VWS V14.01,2013-02-21 04:19:00,
2013-02-20 23:20:00,26.3,13.6,30.15,WNW,302,3.0,4.0,58,0.00,,,0.00,VWS V14.01,2013-02-21 04:20:00,
2013-02-20 23:21:00,26.3,13.6,30.14,WNW,296,1.0,3.0,58,0.00,,,0.00,VWS V14.01,2013-02-21 04:21:00,
2013-02-20 23:22:00,26.3,13.6,30.14,WNW,282,0.0,7.0,58,0.00,,,0.00,VWS V14.01,2013-02-21 04:22:00,
2013-02-20 23:23:00,26.3,13.6,30.14,WNW,282,0.0,0.0,58,0.00,,,0.00,VWS V14.01,2013-02-21 04:23:00,
2013-02-20 23:24:00,26.3,13.6,30.14,West,259,0.0,2.0,58,0.00,,,0.00,VWS V14.01,2013-02-21 04:24:00,
2013-02-20 23:25:00,26.3,13.6,30.14,NNW,339,1.0,5.0,58,0.00,,,0.00,VWS V14.01,2013-02-21 04:25:00,
2013-02-20 23:26:00,26.3,13.6,30.14,NNW,331,1.0,1.0,58,0.00,,,0.00,VWS V14.01,2013-02-21 04:26:00,
2013-02-20 23:27:00,26.3,13.6,30.14,NNW,331,0.0,1.0,58,0.00,,,0.00,VWS V14.01,2013-02-21 04:27:00,
2013-02-20 23:28:00,26.3,13.9,30.14,NNW,331,0.0,1.0,59,0.00,,,0.00,VWS V14.01,2013-02-21 04:28:00,
2013-02-20 23:29:00,26.3,13.9,30.14,NNW,332,0.0,1.0,59,0.00,,,0.00,VWS V14.01,2013-02-21 04:29:00,
2013-02-20 23:30:00,26.3,13.9,30.14,NNW,332,0.0,2.0,59,0.00,,,0.00,VWS V14.01,2013-02-21 04:30:00,
2013-02-20 23:31:00,26.2,13.8,30.14,NW,308,0.0,2.0,59,0.00,,,0.00,VWS V14.01,2013-02-21 04:31:00,
2013-02-20 23:32:00,26.2,13.8,30.15,WNW,296,2.0,4.0,59,0.00,,,0.00,VWS V14.01,2013-02-21 04:32:00,
2013-02-20 23:33:00,26.2,13.4,30.14,West,276,1.0,3.0,58,0.00,,,0.00,VWS V14.01,2013-02-21 04:33:00,
2013-02-20 23:34:00,26.2,13.4,30.14,WNW,295,0.0,2.0,58,0.00,,,0.00,VWS V14.01,2013-02-21 04:34:00,
2013-02-20 23:35:00,26.2,13.4,30.14,WNW,295,0.0,1.0,58,0.00,,,0.00,VWS V14.01,2013-02-21 04:35:00,
2013-02-20 23:36:00,26.2,13.4,30.14,North,360,3.0,3.0,58,0.00,,,0.00,VWS V14.01,2013-02-21 04:36:00,
2013-02-20 23:37:00,26.2,13.4,30.14,NW,323,0.0,5.0,58,0.00,,,0.00,VWS V14.01,2013-02-21 04:37:00,
2013-02-20 23:38:00,26.2,13.8,30.14,NW,323,1.0,5.0,59,0.00,,,0.00,VWS V14.01,2013-02-21 04:38:00,
2013-02-20 23:39:00,26.2,13.4,30.14,North,9,1.0,6.0,58,0.00,,,0.00,VWS V14.01,2013-02-21 04:39:00,
2013-02-20 23:40:00,26.2,13.4,30.14,NNW,335,0.0,2.0,58,0.00,,,0.00,VWS V14.01,2013-02-21 04:40:00,
2013-02-20 23:41:00,26.2,13.8,30.14,NW,309,1.0,1.0,59,0.00,,,0.00,VWS V14.01,2013-02-21 04:41:00,
2013-02-20 23:42:00,26.2,13.8,30.14,WNW,289,1.0,5.0,59,0.00,,,0.00,VWS V14.01,2013-02-21 04:42:00,
2013-02-20 23:43:00,26.2,13.8,30.14,WSW,252,0.0,4.0,59,0.00,,,0.00,VWS V14.01,2013-02-21 04:43:00,
2013-02-20 23:44:00,26.2,13.8,30.13,WSW,254,0.0,1.0,59,0.00,,,0.00,VWS V14.01,2013-02-21 04:44:00,
2013-02-20 23:45:00,26.2,13.8,30.14,WSW,254,0.0,1.0,59,0.00,,,0.00,VWS V14.01,2013-02-21 04:45:00,
2013-02-20 23:46:00,26.2,13.8,30.14,WSW,254,0.0,1.0,59,0.00,,,0.00,VWS V14.01,2013-02-21 04:46:00,
2013-02-20 23:47:00,26.2,13.8,30.14,WSW,254,0.0,1.0,59,0.00,,,0.00,VWS V14.01,2013-02-21 04:47:00,
2013-02-20 23:48:00,26.2,13.8,30.14,West,263,1.0,2.0,59,0.00,,,0.00,VWS V14.01,2013-02-21 04:48:00,
2013-02-20 23:49:00,26.2,13.8,30.14,West,261,1.0,2.0,59,0.00,,,0.00,VWS V14.01,2013-02-21 04:49:00,
2013-02-20 23:50:00,26.1,13.8,30.14,NE,34,1.0,2.0,59,0.00,,,0.00,VWS V14.01,2013-02-21 04:50:00,
2013-02-20 23:51:00,26.1,13.8,30.14,NE,34,0.0,0.0,59,0.00,,,0.00,VWS V14.01,2013-02-21 04:51:00,
2013-02-20 23:52:00,26.1,13.8,30.14,NNE,33,0.0,1.0,59,0.00,,,0.00,VWS V14.01,2013-02-21 04:52:00,
2013-02-20 23:53:00,26.1,13.8,30.14,WSW,242,2.0,2.0,59,0.00,,,0.00,VWS V14.01,2013-02-21 04:53:00,
2013-02-20 23:54:00,26.1,13.8,30.14,West,272,2.0,4.0,59,0.00,,,0.00,VWS V14.01,2013-02-21 04:54:00,
2013-02-20 23:55:00,26.1,13.8,30.14,West,264,1.0,3.0,59,0.00,,,0.00,VWS V14.01,2013-02-21 04:55:00,
2013-02-20 23:56:00,26.1,13.8,30.14,West,264,0.0,1.0,59,0.00,,,0.00,VWS V14.01,2013-02-21 04:56:00,
2013-02-20 23:57:00,26.1,13.8,30.14,West,275,1.0,4.0,59,0.00,,,0.00,VWS V14.01,2013-02-21 04:57:00,
2013-02-20 23:58:00,26.1,13.8,30.14,West,267,0.0,5.0,59,0.00,,,0.00,VWS V14.01,2013-02-21 04:58:00,
2013-02-20 23:59:00,26.1,13.8,30.13,NW,323,5.0,5.0,59,0.00,,,0.00,VWS V14.01,2013-02-21 04:59:00,